GFSSGP_sfc_dewp_000.txt.gz
Dewpoint
45 28 31 20 16 12 10 9 13 12 16 33 34 42 45 48 48 50 61 64 65 63 62 60 68 68 68 70 71 72 72 71 72 71 71 71 69 69 68 67 65 63 65 63 68 68 69 69 70
30 23 13 17 14 10 11 12 11 10 12 23 32 38 50 48 53 55 60 63 64 63 62 63 69 69 67 68 68 70 71 71 71 71 70 70 68 68 68 66 64 64 65 64 66 68 68 69 68
36 24 10 13 11 12 17 13 12 9 14 21 30 48 52 51 52 55 61 63 63 63 63 65 69 69 68 68 68 69 70 70 70 70 70 69 69 67 67 66 65 64 65 68 67 66 69 67 68
15 13 9 9 7 9 12 13 13 10 18 19 28 46 55 55 54 58 59 62 62 62 64 67 69 68 67 66 67 69 69 69 70 70 70 70 67 65 64 64 63 66 67 66 65 64 66 68 67
12 11 8 6 5 4 9 11 14 13 25 28 31 51 53 57 59 58 59 59 60 63 64 66 68 69 68 67 67 68 68 68 68 69 69 69 68 68 66 66 66 67 64 62 62 62 63 67 67
9 9 6 4 4 4 10 14 19 23 28 31 47 50 52 58 58 59 56 56 58 62 64 65 68 68 67 67 67 66 67 67 68 68 68 68 68 68 67 67 67 67 66 64 63 65 66 66 66
8 10 5 3 4 4 6 9 12 13 25 26 43 49 51 54 58 59 55 56 57 58 60 63 66 66 66 65 64 65 66 66 66 67 66 67 67 66 65 65 64 63 63 64 65 65 65 65 66
8 6 1 2 2 4 4 9 12 12 12 12 15 33 49 51 57 58 57 57 59 59 58 61 62 65 65 63 63 64 65 65 65 66 66 67 66 64 63 63 63 62 63 62 60 59 63 64 64
7 6 1 1 4 3 4 3 14 16 14 18 20 29 48 53 56 55 54 54 55 54 59 63 63 64 64 62 62 64 65 65 65 64 65 64 64 63 62 62 62 61 61 61 59 57 59 61 62
10 9 7 6 5 7 5 4 9 10 13 18 25 31 43 50 51 50 48 49 50 51 52 56 62 64 64 58 58 65 63 63 64 63 63 63 62 62 61 62 62 61 60 59 59 58 57 56 57
14 9 8 11 15 9 9 9 12 11 12 21 21 30 36 41 44 46 43 44 45 48 50 52 59 63 64 63 63 63 63 63 63 62 62 62 60 61 60 61 61 61 59 59 58 58 58 57 57
15 15 16 18 18 17 18 19 17 17 17 22 24 28 33 37 40 43 44 45 42 45 46 50 58 60 61 60 58 60 58 59 59 59 59 61 60 59 59 59 57 58 58 58 58 57 56 56 57
18 19 21 22 23 21 21 19 19 18 18 23 24 31 33 36 38 40 44 44 47 46 46 48 54 58 59 58 58 57 56 55 54 55 55 57 57 58 58 58 57 57 57 57 58 57 57 57 57
23 22 22 22 21 19 21 18 16 15 19 22 24 29 32 34 35 36 36 37 39 40 46 48 50 55 55 57 57 56 54 52 52 53 54 55 57 57 57 55 55 54 55 56 57 58 59 58 58
23 23 24 23 17 13 19 13 12 19 22 22 22 27 28 29 30 32 35 37 37 40 43 45 47 51 52 53 53 52 49 47 49 52 52 53 54 52 51 51 50 52 53 54 54 53 54 56 58
22 21 11 13 16 17 15 10 11 16 16 19 21 24 27 28 28 30 35 35 39 44 40 42 35 45 48 49 47 46 46 48 49 52 52 50 50 50 49 49 49 48 49 48 46 46 48 51 53
17 12 14 16 14 13 14 13 13 15 13 16 21 22 23 27 28 30 32 36 39 40 39 41 40 40 45 45 44 45 46 46 47 50 49 48 46 46 45 46 48 46 43 43 42 42 42 41 42
18 18 19 19 18 18 19 19 18 18 17 18 20 22 23 25 25 31 33 38 38 43 41 41 40 42 44 44 44 44 45 44 44 45 45 46 44 43 43 45 44 43 42 42 43 43 42 42 41
18 18 18 19 18 19 20 20 19 16 16 20 21 25 26 28 28 33 38 40 39 43 40 39 38 41 40 41 41 41 42 43 44 43 43 45 43 43 43 42 41 42 42 41 41 41 41 41 42
16 17 20 21 21 23 22 20 18 17 19 20 21 26 27 29 28 32 36 41 42 41 41 39 39 40 40 39 40 41 42 41 41 42 44 43 45 43 41 43 40 41 41 41 43 42 40 41 41
18 23 23 22 23 22 21 16 17 18 20 20 24 26 26 28 29 31 38 41 43 43 43 40 39 39 41 40 38 40 41 41 39 39 41 43 44 45 44 43 42 41 41 41 42 41 40 39 40
20 24 25 26 25 21 24 15 14 17 19 20 24 30 31 31 32 33 38 39 43 43 45 43 42 39 39 43 37 40 36 33 34 37 37 37 44 44 42 42 43 42 42 41 42 40 43 41 38
24 27 28 27 27 25 21 16 16 17 15 18 25 28 32 34 35 34 34 36 40 42 46 45 43 42 41 42 42 39 40 39 39 40 40 39 40 40 39 40 41 42 43 42 42 42 42 42 41
28 28 27 27 26 29 24 22 19 16 18 18 21 26 31 33 35 34 36 37 37 44 45 47 45 41 42 42 43 43 40 41 41 41 39 39 39 40 41 38 39 40 39 39 39 38 38 39 39
28 29 32 35 35 32 23 21 23 24 21 21 24 28 33 36 36 37 36 36 39 41 44 46 44 41 41 44 44 42 43 42 41 41 39 37 36 35 36 36 36 36 35 36 36 35 36 36 35
28 28 35 27 27 27 25 20 18 20 21 22 25 31 32 36 37 36 38 40 40 42 43 43 39 39 40 42 43 44 43 41 41 39 37 35 34 34 34 33 34 34 34 35 35 34 34 34 35
28 31 30 31 36 31 28 25 25 24 22 25 26 28 34 35 37 36 38 39 41 43 43 44 42 41 41 42 44 43 42 40 38 37 36 35 34 29 34 34 34 34 35 35 34 34 33 33 34
30 31 31 36 30 25 22 25 24 26 29 30 31 32 35 36 37 37 38 40 41 41 42 44 45 40 39 39 39 37 37 37 35 35 33 32 32 32 33 32 32 32 32 32 32 32 32 33 33
29 31 33 30 32 30 28 25 31 31 32 32 31 33 34 37 37 37 39 39 40 41 40 39 38 36 37 37 38 37 34 35 32 31 30 30 32 31 31 30 30 29 28 29 29 29 30 29 29
28 30 30 34 31 32 33 30 32 33 34 33 33 33 35 35 34 35 36 37 39 40 41 40 37 36 35 34 35 34 32 31 31 30 31 33 31 32 31 30 28 27 26 27 27 27 26 26 26

GFSSGP_sfc_dewp_003.txt.gz
Dewpoint
47 31 36 27 17 15 11 11 11 13 18 27 47 49 51 52 50 51 63 65 63 62 63 66 68 69 69 70 71 72 72 72 72 72 71 71 70 68 68 67 65 63 63 61 62 64 68 68 68
45 31 19 18 15 12 12 13 8 13 20 27 44 41 49 53 58 60 62 64 64 62 64 67 68 69 69 70 70 71 71 71 71 71 70 70 69 69 67 65 64 63 63 62 63 67 67 68 67
43 33 11 15 14 12 12 13 11 13 17 22 46 46 51 53 55 60 63 64 63 63 66 68 68 67 68 69 70 70 70 70 70 70 70 69 69 69 68 65 64 63 63 63 65 65 66 65 64
29 19 13 8 5 8 10 13 15 16 20 41 52 51 56 58 57 59 63 63 63 65 67 68 68 68 68 69 69 69 69 70 70 70 70 69 68 67 67 66 65 64 64 66 67 66 64 64 65
27 14 9 6 5 7 11 12 14 28 43 48 51 48 54 58 58 58 61 62 63 65 67 68 67 68 68 68 67 68 68 68 69 70 69 69 68 66 64 63 64 65 66 66 65 63 62 61 64
10 10 5 6 4 6 5 7 11 20 32 43 47 50 53 58 59 58 58 60 63 64 66 66 67 67 66 67 66 66 66 67 68 68 68 68 68 68 67 68 67 67 66 63 62 62 61 64 64
9 9 8 3 4 4 7 6 10 13 18 33 46 47 52 54 58 58 55 55 60 64 66 66 66 66 65 64 64 64 65 66 67 67 67 67 66 66 65 65 64 65 65 66 65 65 65 66 66
7 8 4 2 3 4 5 8 11 13 11 27 44 44 45 46 57 58 55 57 57 58 60 65 65 64 62 61 62 63 64 65 66 67 67 65 64 64 64 64 63 64 63 62 61 63 63 64 64
8 8 5 4 3 10 3 5 15 17 15 19 22 46 50 52 57 56 55 54 54 57 60 62 63 64 63 61 62 63 64 65 65 65 65 64 63 61 60 62 62 61 63 61 59 61 63 62 62
14 7 4 12 12 8 9 6 10 10 10 20 25 44 50 52 54 52 52 52 50 50 54 57 59 60 61 60 62 63 65 64 63 63 62 62 61 59 60 61 62 61 60 60 60 59 59 58 57
14 13 16 17 19 15 13 17 14 12 13 23 24 34 46 49 50 49 45 49 46 46 47 52 58 59 59 58 62 63 61 62 61 60 60 58 59 59 59 59 59 58 58 58 58 58 58 57 57
15 17 20 19 19 19 20 20 19 16 17 22 23 34 36 39 41 43 42 41 42 44 45 52 56 57 57 56 56 56 59 57 58 58 59 59 58 57 57 56 57 56 57 56 57 56 55 55 56
20 20 22 21 21 21 22 19 20 18 17 23 24 32 34 36 38 40 36 35 37 38 42 50 53 55 56 54 53 51 51 50 50 53 52 55 57 57 57 57 56 57 57 57 56 56 55 55 56
27 24 23 23 23 21 21 22 20 16 17 23 24 30 33 33 34 36 33 32 34 35 41 45 49 52 52 54 52 50 48 46 48 50 52 54 54 53 52 54 55 54 53 54 53 52 53 56 57
25 22 24 23 21 15 16 14 14 16 22 22 24 27 29 30 33 32 33 32 33 35 39 41 42 49 48 52 51 49 46 47 47 49 50 50 51 47 47 47 48 49 51 53 52 51 51 51 53
25 25 19 22 20 20 14 11 13 15 22 22 20 24 27 28 29 30 31 34 33 35 37 36 36 44 44 48 48 46 41 42 46 50 50 48 49 49 47 47 46 43 45 46 41 42 42 45 45
21 17 18 20 16 16 14 15 19 20 16 18 20 21 25 27 28 29 31 31 33 34 34 36 28 33 39 40 41 42 42 42 45 50 48 47 46 44 42 46 43 41 43 41 41 40 41 39 39
18 17 18 20 18 19 19 20 20 20 19 19 20 23 23 25 27 29 31 34 34 34 34 36 34 32 38 39 38 39 39 38 43 46 47 46 45 42 39 43 44 41 41 42 40 39 40 40 40
20 17 18 21 22 23 22 21 21 18 18 19 22 23 25 26 28 34 35 33 34 34 32 32 33 35 36 36 36 35 37 38 40 39 43 43 43 40 39 40 42 42 40 40 38 40 38 37 40
21 21 24 23 25 25 23 22 22 18 19 20 24 25 26 26 28 31 34 35 33 33 33 32 33 34 35 36 36 36 36 36 37 39 41 43 42 41 40 40 37 38 38 36 38 40 38 39 39
21 25 25 25 27 27 24 21 18 21 20 24 25 25 26 26 27 29 31 34 36 35 35 35 34 34 37 35 35 36 38 37 34 35 40 40 40 42 40 40 40 39 39 38 40 38 36 37 39
21 27 27 27 27 24 25 20 17 19 20 23 24 27 28 29 29 30 29 31 36 37 38 36 36 37 37 38 35 34 33 32 33 34 35 38 41 42 42 41 41 40 40 40 41 41 41 40 38
25 29 28 29 28 26 24 21 16 20 20 22 26 28 29 30 31 30 31 31 31 38 40 40 38 38 39 39 38 35 34 38 36 38 36 38 41 41 40 40 41 41 41 39 38 38 38 41 41
30 31 31 33 28 25 25 23 21 20 19 23 27 29 31 31 31 33 34 34 35 39 40 41 40 39 40 40 39 39 36 35 38 37 37 39 38 38 36 35 36 36 35 35 35 34 33 34 36
29 31 27 24 24 24 25 23 23 25 23 25 27 28 29 29 32 35 32 34 37 38 39 40 41 41 41 41 41 40 39 36 36 38 37 36 34 35 32 33 33 33 34 34 34 34 33 34 34
29 29 27 22 22 25 27 23 22 25 23 25 26 27 32 31 33 34 35 38 39 39 39 40 40 41 40 41 41 42 41 40 37 38 37 34 33 34 32 33 33 32 32 32 32 31 33 34 34
30 31 32 27 25 24 28 28 25 26 30 32 31 31 32 32 35 35 37 40 40 40 40 40 39 40 40 38 39 39 40 37 35 32 32 34 33 31 32 32 31 32 34 34 33 35 34 34 34
31 33 29 29 24 23 24 26 26 29 30 32 32 32 34 36 35 37 37 40 40 40 39 39 38 36 35 35 33 34 32 30 32 33 31 30 31 30 31 32 34 35 33 32 32 32 32 33 34
30 30 31 32 30 29 27 28 31 30 32 33 30 34 34 34 34 35 36 39 40 40 40 39 39 38 31 33 33 32 31 29 28 28 29 29 30 28 31 32 33 32 30 30 30 30 31 31 31
29 32 32 32 32 30 28 30 32 33 33 31 36 34 35 33 34 35 37 39 40 40 41 40 40 34 30 34 31 29 28 26 26 27 29 31 30 31 30 31 30 30 30 30 30 29 28 28 27

GFSSGP_sfc_dewp_006.txt.gz
Dewpoint
48 34 33 23 14 13 11 9 12 15 27 49 52 50 50 51 50 49 63 63 62 61 64 66 68 70 71 71 71 71 72 72 72 72 72 70 69 68 68 68 67 63 64 64 64 65 67 68 66
42 32 18 18 14 11 11 11 11 15 43 46 47 53 54 56 60 61 62 63 62 62 65 66 68 69 70 70 70 70 70 70 72 71 71 70 69 69 68 67 63 63 61 64 67 67 66 67 63
35 32 10 14 13 12 10 12 10 25 44 36 51 53 55 54 60 61 63 63 63 65 66 66 67 68 70 70 70 70 70 70 71 70 70 70 69 69 68 65 64 63 63 64 66 67 67 65 64
28 16 11 7 6 10 12 12 15 21 46 49 52 52 57 57 58 62 63 63 64 64 65 66 66 67 69 70 69 69 69 69 70 70 70 69 68 67 67 66 64 64 64 64 65 65 64 65 64
23 12 8 5 5 10 6 11 25 41 46 48 48 46 53 57 60 63 63 64 64 64 65 66 66 67 68 68 68 68 68 69 69 69 69 68 67 66 64 63 65 64 65 66 66 67 66 65 65
10 10 5 5 6 5 5 12 21 34 45 47 48 50 49 58 58 61 62 64 65 64 66 66 67 66 66 66 66 66 67 68 68 68 68 68 68 68 67 67 66 65 67 64 64 63 64 63 64
9 7 6 4 4 5 7 10 12 12 14 37 46 47 53 54 58 58 61 63 65 64 65 65 65 65 65 65 64 64 65 66 67 67 67 66 66 66 66 65 65 65 65 65 64 64 63 63 65
10 7 3 3 3 2 3 9 14 13 11 43 46 43 43 53 56 57 56 61 63 65 65 64 64 63 61 60 63 64 64 65 66 66 65 64 64 64 64 64 64 64 64 64 63 64 65 65 65
10 7 6 9 7 13 8 12 15 16 14 21 36 44 47 50 57 56 55 56 57 61 64 64 64 63 61 59 61 63 64 65 65 66 65 63 62 61 61 62 63 63 62 61 60 60 61 60 60
9 7 14 13 10 10 12 13 11 9 20 23 44 46 50 56 55 55 53 54 53 56 58 59 62 62 62 59 62 62 63 63 63 63 63 62 60 59 60 61 62 60 60 60 60 60 60 58 57
29 16 17 18 18 16 19 19 18 13 16 23 43 44 51 54 53 53 52 52 49 49 53 57 58 59 57 59 62 63 62 62 62 61 60 59 58 59 59 58 58 56 58 57 57 56 56 56 56
16 19 19 19 19 20 20 20 20 32 16 23 37 48 50 51 52 51 45 48 45 45 49 56 57 57 55 56 61 60 60 61 59 59 59 58 57 56 56 56 56 55 56 55 55 55 55 53 54
20 20 21 21 21 20 23 19 19 19 18 23 32 36 40 44 44 43 43 43 43 43 47 53 55 56 55 53 51 51 51 53 52 53 54 58 57 56 56 56 55 55 55 55 54 56 57 56 56
28 24 23 22 22 23 21 21 21 20 18 22 31 32 33 34 36 36 34 37 38 41 46 52 52 54 55 52 50 48 48 47 49 51 52 55 56 55 55 55 55 54 53 52 51 50 50 50 52
27 23 23 23 22 20 16 13 14 16 18 22 25 30 32 32 34 34 33 33 34 39 43 47 49 51 49 52 51 48 46 46 48 49 50 52 51 48 49 49 51 51 52 51 51 49 48 48 50
26 23 19 21 23 18 14 12 14 16 21 22 23 26 29 31 31 33 34 33 33 37 40 41 44 47 47 50 50 49 46 44 46 49 49 49 50 48 47 47 46 44 46 49 41 41 40 40 41
20 16 18 20 18 17 16 13 18 21 20 21 21 22 26 27 27 29 31 33 34 37 36 32 40 41 41 42 44 42 43 40 43 49 49 48 48 47 45 47 45 41 43 42 40 39 39 38 38
18 16 17 20 20 24 20 20 22 19 19 18 19 21 23 27 30 31 31 34 34 34 36 34 30 33 38 39 38 39 39 39 41 47 48 48 46 45 41 45 44 41 41 41 40 38 40 39 38
21 21 22 22 23 26 24 24 24 20 21 22 23 24 26 29 34 34 33 34 33 33 32 34 33 33 35 36 36 35 35 38 39 41 47 47 45 43 40 41 43 43 40 41 39 38 38 37 38
21 25 23 25 26 28 26 25 20 18 20 22 25 25 26 28 31 33 32 32 32 32 31 32 32 33 35 35 35 35 35 36 37 38 40 46 45 43 40 40 41 41 41 39 39 39 38 38 39
22 25 25 25 28 28 26 23 18 20 24 25 25 25 26 26 28 31 34 32 32 32 33 32 32 33 35 36 35 36 37 37 37 36 38 41 43 43 41 40 41 39 39 38 37 38 37 36 39
22 25 27 27 27 24 26 23 21 19 21 24 25 25 26 27 30 29 30 33 35 34 35 34 35 34 35 37 35 34 32 32 33 34 35 39 42 41 42 41 41 39 40 40 40 40 40 39 37
24 28 30 30 28 26 25 22 20 20 19 21 26 28 29 30 30 29 30 30 32 35 37 38 37 37 38 39 39 37 35 35 35 36 35 36 39 41 42 42 42 41 40 37 34 34 32 36 35
30 31 31 32 28 24 26 22 21 22 20 26 29 29 30 30 31 32 33 34 36 38 38 40 39 39 40 40 40 39 37 36 36 37 37 39 38 38 39 38 37 36 36 35 34 33 31 32 32
30 30 26 23 23 23 27 24 23 24 25 26 27 29 31 30 32 32 32 36 38 38 39 39 39 40 41 41 41 41 41 40 38 36 38 39 36 35 34 34 35 34 34 35 35 36 36 34 32
29 31 26 21 21 24 28 23 23 25 27 27 27 28 31 32 33 34 37 38 39 39 39 38 39 38 38 39 40 41 41 42 41 39 39 37 36 35 34 34 35 36 37 37 37 38 38 37 33
30 29 31 27 23 23 27 28 26 27 32 31 31 31 34 34 36 37 39 39 39 39 39 39 39 38 39 38 37 35 35 36 33 32 34 34 33 32 34 37 39 41 42 41 36 35 34 34 34
31 32 28 29 19 25 26 26 25 28 32 33 33 32 34 35 35 36 38 39 40 39 40 41 40 39 39 34 34 31 30 31 32 31 30 32 34 37 39 41 41 41 38 36 34 34 32 32 33
29 31 31 32 30 26 26 28 31 32 33 34 34 35 33 34 35 38 39 40 40 40 41 41 40 40 32 31 33 31 28 29 28 29 30 30 32 34 36 36 35 35 35 34 32 30 31 31 31
33 33 33 27 29 29 28 28 32 34 33 34 34 34 35 34 37 39 39 40 40 40 40 40 41 33 32 33 32 31 28 27 28 29 30 31 30 31 30 31 31 31 31 31 30 30 29 28 27

GFSSGP_sfc_dewp_009.txt.gz
Dewpoint
51 35 32 24 13 12 11 8 11 16 49 53 51 49 50 52 49 42 63 63 62 63 65 66 69 71 71 71 71 72 72 72 72 71 71 70 69 69 68 68 66 64 65 64 64 66 68 66 66
44 31 17 18 12 9 9 12 17 39 52 54 52 53 55 55 60 62 62 62 61 64 65 66 69 70 70 70 70 71 70 71 72 72 71 70 69 69 68 67 64 64 63 65 65 65 68 65 66
37 26 10 14 12 10 10 13 35 46 49 43 52 55 55 56 61 62 62 62 64 64 65 65 68 69 69 69 69 69 70 70 70 71 70 70 69 68 67 65 65 63 64 65 65 66 66 65 64
27 14 11 8 7 9 13 20 25 37 45 51 53 52 56 58 60 62 62 63 63 63 64 65 67 68 69 68 68 68 68 69 70 70 69 69 68 68 67 65 64 63 64 64 65 65 65 66 65
14 11 6 8 5 8 15 36 40 43 45 47 48 48 54 57 62 63 63 63 62 63 64 64 66 67 68 67 67 68 68 68 69 69 69 68 67 66 65 65 66 65 64 66 66 67 67 66 65
10 9 5 5 4 6 9 26 32 43 45 46 46 48 51 57 62 62 63 63 62 63 64 64 66 66 66 67 67 67 67 68 67 68 68 68 68 67 67 65 64 64 65 66 65 65 64 65 63
8 6 5 5 5 4 9 13 13 15 31 37 47 51 53 55 60 62 63 64 63 64 64 64 64 65 65 65 65 65 66 67 67 66 66 66 66 66 66 66 66 66 66 66 63 64 63 63 64
10 7 3 3 3 2 5 10 14 12 17 45 47 45 51 55 58 60 63 64 64 63 63 62 63 63 61 61 64 64 65 66 66 65 65 64 64 64 64 64 64 64 64 63 62 63 64 64 63
10 7 9 8 8 11 10 14 14 15 32 28 40 43 45 56 58 56 58 59 62 64 63 62 62 61 60 57 60 63 64 65 65 65 64 62 61 60 59 62 63 63 62 61 61 61 60 59 58
12 10 10 12 9 12 13 16 12 12 30 41 46 46 51 56 56 54 55 57 59 61 62 62 62 62 61 59 60 61 62 62 62 63 62 61 59 58 59 60 61 60 60 60 59 59 59 57 56
15 15 15 18 15 14 19 19 18 13 21 38 42 45 54 56 55 54 54 56 56 60 59 60 62 61 61 60 61 61 61 61 61 60 61 60 58 58 57 57 57 55 57 55 56 55 55 54 53
15 19 19 18 19 19 19 32 21 31 16 24 43 44 53 54 52 51 52 52 50 50 54 57 58 57 54 59 61 61 61 61 60 59 59 57 56 56 56 56 56 55 55 54 54 54 54 54 54
19 19 21 21 21 20 22 19 18 18 18 23 42 47 52 53 51 51 49 50 47 46 50 55 56 56 54 55 54 56 56 60 58 58 57 57 56 55 55 54 54 53 54 54 53 53 53 53 53
27 25 23 23 21 23 22 21 21 20 19 22 37 45 49 49 49 41 44 45 45 44 48 52 55 56 53 51 50 50 50 51 51 52 52 56 56 55 55 55 54 54 53 52 50 49 48 48 49
26 23 24 24 23 22 20 13 15 18 19 21 31 37 39 39 38 36 41 43 43 43 46 52 52 54 53 52 50 48 46 47 48 50 52 54 54 53 53 53 53 53 51 50 49 48 47 43 46
22 20 17 19 23 19 14 13 14 18 18 18 22 29 31 32 33 34 35 36 36 41 45 47 48 50 48 52 50 49 47 45 46 48 50 51 51 48 47 47 49 49 47 50 45 40 39 39 39
20 15 16 18 23 23 16 14 14 21 19 19 21 24 28 28 28 28 32 33 34 40 41 39 46 46 45 48 49 46 45 42 42 47 49 49 50 49 48 47 46 44 43 45 40 39 39 37 36
18 16 19 19 21 27 24 19 23 25 19 19 21 21 23 25 29 33 31 34 36 38 35 32 40 40 39 40 39 39 40 41 41 43 48 49 48 48 45 46 46 42 41 41 40 38 39 38 37
21 22 23 23 23 27 26 26 26 25 21 21 21 24 28 30 33 33 34 33 34 35 35 31 30 32 36 36 36 36 36 38 39 40 43 48 48 46 44 43 45 43 41 40 40 38 37 37 37
23 23 22 25 26 28 27 25 19 19 20 23 25 27 28 30 31 32 33 32 31 32 33 33 33 33 34 34 35 35 34 35 36 39 40 46 47 46 44 41 42 43 41 40 40 39 38 38 39
22 23 23 24 27 28 26 23 19 21 24 25 25 26 27 30 31 32 32 31 31 31 32 32 32 32 34 36 35 35 36 36 36 36 37 39 45 47 45 41 40 41 42 40 39 39 38 36 39
22 24 27 27 27 23 26 20 21 19 21 24 25 25 26 27 29 30 32 32 33 33 34 34 34 34 35 36 36 35 33 32 34 35 36 36 41 42 45 43 40 40 41 39 38 39 39 38 35
26 30 29 30 28 27 24 21 23 22 19 23 27 28 28 29 29 29 29 30 32 34 36 37 39 39 39 40 39 39 38 38 38 38 37 37 38 42 43 43 41 40 42 40 37 35 33 34 33
30 31 30 30 28 23 25 23 20 21 23 27 28 29 31 30 30 32 33 35 37 39 39 39 39 39 40 40 41 40 39 39 39 39 39 39 38 39 41 41 40 37 36 36 35 34 34 33 34
30 30 23 20 22 22 27 22 22 24 26 28 29 30 30 30 30 32 35 37 38 38 38 38 39 39 39 39 39 39 40 41 40 40 40 39 36 35 35 36 35 35 36 37 39 39 40 40 39
29 30 25 18 19 23 27 22 23 26 27 27 29 28 31 32 34 36 38 38 38 39 39 39 39 40 40 40 37 37 37 39 41 41 39 38 35 34 35 37 39 41 41 42 42 42 41 40 39
30 29 31 26 22 22 27 28 28 29 33 31 29 32 34 36 37 38 39 39 39 39 39 40 40 40 40 38 35 35 33 34 35 33 34 34 34 35 38 40 41 41 41 41 41 40 39 38 36
30 32 28 29 18 22 27 28 26 29 32 32 34 33 34 35 37 38 39 39 39 40 40 41 40 40 39 32 33 33 32 31 31 32 32 32 35 38 40 41 40 41 41 40 39 36 34 32 33
31 31 31 31 29 26 22 27 32 31 33 32 33 34 34 35 37 38 39 40 40 40 40 40 40 41 35 32 33 34 32 29 28 30 31 32 35 35 35 34 36 37 36 35 33 31 31 30 30
32 32 31 29 27 27 24 27 31 32 33 34 35 36 36 35 38 39 40 40 40 40 40 40 40 38 34 35 34 33 32 28 27 29 30 31 31 31 31 31 31 32 31 31 30 29 29 28 27

GFSSGP_sfc_dewp_015.txt.gz
Dewpoint
47 32 30 25 16 16 12 12 12 41 47 52 52 47 50 55 48 44 62 62 62 64 67 68 70 70 71 71 72 72 71 71 71 70 70 70 69 69 68 67 65 65 65 65 64 66 67 66 66
41 23 23 21 14 15 21 20 22 47 52 53 53 54 53 52 60 60 58 60 61 63 66 67 69 69 70 70 70 71 72 72 71 70 70 69 68 68 68 66 65 64 64 65 66 66 67 67 65
30 15 18 18 16 13 31 32 47 51 50 50 53 55 55 56 61 60 62 60 61 62 65 67 68 68 68 68 69 70 70 71 71 71 70 70 69 68 68 65 65 64 64 64 65 66 67 66 66
22 16 15 22 19 16 25 41 49 49 48 53 53 50 56 59 61 62 60 60 60 61 64 66 67 67 67 68 68 68 68 69 69 70 70 69 69 68 67 67 65 63 64 64 66 67 67 66 66
15 16 19 24 24 27 31 38 46 43 45 48 49 52 54 60 62 62 61 61 59 59 63 64 66 67 67 67 67 67 68 68 68 68 68 68 67 67 66 64 65 65 65 66 66 65 64 64 64
12 14 20 23 20 12 29 33 41 42 46 49 50 50 54 61 61 62 61 61 59 58 61 63 66 66 66 66 66 66 67 67 67 68 68 68 67 67 67 67 66 66 66 66 65 65 65 64 65
11 13 8 7 9 7 11 9 32 37 40 40 49 48 56 61 61 62 62 60 60 60 60 61 62 63 65 65 65 65 66 66 66 66 65 66 66 65 65 65 65 65 64 64 63 63 64 63 62
11 10 6 5 4 5 9 13 14 22 35 46 49 45 52 58 62 63 63 61 61 62 61 62 63 62 63 62 64 64 65 65 65 65 64 63 63 63 62 62 63 63 63 62 62 61 61 60 60
13 10 7 5 7 11 13 12 15 23 40 34 40 50 49 59 62 63 63 61 62 62 63 63 63 62 61 60 61 63 65 65 65 64 63 62 62 61 60 61 62 61 61 61 60 59 59 57 56
14 13 11 11 9 13 16 12 11 21 33 39 44 48 56 60 61 61 61 60 61 61 62 62 64 63 62 57 61 62 62 63 64 65 64 63 63 62 60 60 60 59 59 59 58 58 57 55 55
19 15 16 16 12 16 19 18 16 24 26 33 31 48 56 59 60 61 60 60 60 61 62 63 64 64 63 61 61 61 62 63 63 64 64 64 63 63 62 61 60 60 58 56 57 57 58 58 58
19 18 18 18 20 19 18 19 18 19 17 25 38 52 56 57 59 60 60 61 61 62 63 64 64 64 65 63 62 61 61 62 62 63 63 63 62 62 61 59 59 60 59 58 58 59 58 57 56
21 19 20 20 18 19 22 19 18 19 21 20 40 53 55 56 56 59 59 60 60 61 62 64 64 64 62 60 61 62 62 63 63 63 63 62 61 61 59 59 58 58 58 57 58 57 54 52 49
26 25 24 23 22 23 22 22 21 20 20 23 40 49 54 56 56 55 55 56 57 59 61 62 60 60 58 58 61 61 62 62 62 62 62 62 61 60 58 58 57 57 57 57 58 56 50 48 47
24 19 21 23 23 20 21 18 17 18 17 19 29 42 52 54 56 55 53 53 54 56 57 58 58 59 59 56 56 55 56 56 58 59 60 60 59 59 58 58 57 57 58 58 56 52 50 47 45
20 20 19 21 25 23 20 20 21 19 22 22 25 27 44 51 52 49 49 45 48 51 53 54 54 56 57 56 55 54 52 52 51 52 53 55 56 56 57 56 56 56 57 56 55 52 48 44 41
21 14 18 20 26 27 26 24 25 27 26 27 25 23 35 44 43 35 34 39 45 49 50 52 54 54 54 54 53 54 54 52 51 51 49 52 53 55 55 54 54 55 54 54 54 52 49 43 40
19 17 20 21 23 28 27 26 27 22 23 24 23 23 31 36 33 34 35 36 41 48 49 51 51 51 52 49 49 47 46 46 47 46 46 48 49 52 53 52 53 52 50 51 51 51 48 44 41
20 20 22 23 25 28 27 27 23 23 25 24 25 27 30 31 34 34 37 38 40 45 46 48 46 47 46 44 42 42 41 41 42 41 43 45 45 48 50 49 50 51 50 49 50 48 48 44 43
21 21 20 24 26 29 27 24 23 24 26 28 29 30 31 32 32 34 36 38 40 42 43 40 37 38 37 38 40 41 40 40 40 42 44 45 45 45 45 48 47 49 48 50 49 48 45 43 43
26 22 23 23 27 28 26 22 24 22 25 27 28 30 30 32 32 33 34 38 39 39 39 36 37 39 40 42 40 41 42 42 40 40 40 41 44 45 45 45 46 47 47 47 49 48 46 43 42
25 25 29 27 28 23 27 18 23 24 23 26 27 29 30 31 32 33 34 37 40 40 44 42 42 42 42 44 42 42 39 37 38 40 40 41 44 44 44 44 45 47 47 47 46 46 46 44 41
29 31 31 29 29 27 26 21 24 25 23 24 29 30 31 32 33 34 38 40 40 43 43 44 42 43 43 43 41 40 40 40 40 40 40 41 42 43 43 43 44 45 45 46 45 45 44 42 41
32 31 28 29 29 25 26 23 25 25 25 27 29 31 32 33 34 35 40 40 40 44 44 44 43 42 43 44 41 41 41 41 40 40 39 38 39 40 41 41 42 43 41 42 42 42 42 41 40
32 27 24 28 28 26 27 23 26 29 30 30 31 32 37 39 39 39 39 39 40 41 43 42 42 41 43 44 40 40 41 42 41 40 38 38 37 38 39 40 41 41 42 42 42 41 41 40 39
31 30 29 20 24 25 27 23 28 31 32 34 35 35 37 39 40 40 39 40 40 41 42 43 42 42 43 43 42 40 42 40 39 38 39 37 36 38 41 41 41 42 43 42 42 41 40 39 38
30 31 31 28 25 29 27 28 29 32 32 34 34 34 36 38 39 39 40 41 42 42 43 44 43 41 42 43 41 40 41 41 39 40 39 36 38 39 41 42 42 42 42 41 40 40 38 38 38
32 32 29 32 26 22 24 27 25 30 31 33 34 36 37 37 38 39 40 41 42 43 42 44 44 41 42 43 40 39 40 40 40 38 36 36 38 41 41 41 38 37 37 38 38 39 39 38 37
32 31 32 31 31 28 26 25 32 32 32 33 34 37 38 39 39 39 39 41 42 43 43 43 43 42 42 41 39 40 40 39 34 33 34 36 39 38 35 32 33 34 34 34 34 34 33 34 33
33 31 29 27 24 30 30 25 30 33 33 34 35 37 39 40 40 40 40 41 42 42 41 42 44 43 41 39 40 40 37 32 31 32 33 34 32 33 33 35 35 34 32 32 32 31 30 28 27

GFSSGP_sfc_dewp_018.txt.gz
Dewpoint
41 30 30 25 17 23 24 27 36 43 43 48 48 43 45 50 45 45 59 60 56 58 63 65 70 70 71 72 72 71 71 70 70 70 70 69 70 69 68 66 65 65 66 65 66 66 66 67 67
31 22 23 21 16 16 22 28 33 41 47 48 48 47 44 46 53 57 58 60 56 58 61 64 69 70 70 71 71 72 72 71 71 70 69 69 68 68 67 66 65 65 64 65 66 67 67 67 66
27 20 18 17 16 17 22 29 42 46 48 47 46 50 49 49 54 55 57 56 55 58 61 65 68 68 69 69 69 69 70 70 70 70 69 68 68 68 67 67 66 64 64 64 66 67 67 66 65
21 16 21 14 17 26 30 36 40 44 48 48 42 42 51 57 56 56 58 56 52 54 56 65 67 67 68 67 67 68 69 69 69 69 69 69 68 68 67 66 65 65 65 66 66 66 65 64 65
15 18 19 17 22 29 35 40 43 39 42 45 45 44 48 57 60 60 59 57 51 52 56 58 66 66 67 66 66 67 67 68 68 68 68 68 67 67 66 64 64 65 65 66 64 65 64 63 63
14 23 17 19 27 32 37 41 36 33 39 44 40 41 46 59 58 59 59 56 51 52 57 57 64 66 66 66 66 67 67 66 67 67 68 67 67 66 66 66 66 66 65 65 65 65 65 65 64
16 18 16 20 25 27 27 29 28 30 33 36 40 38 49 54 56 58 56 54 53 53 55 57 59 62 65 65 65 66 66 66 66 66 66 66 65 65 65 65 65 64 64 64 63 63 63 62 61
12 12 13 14 11 10 12 15 22 23 32 45 44 33 43 51 58 58 57 54 54 56 56 58 60 59 61 60 63 64 65 65 65 64 64 64 64 63 62 62 63 63 62 62 62 61 61 60 59
13 6 5 6 7 10 12 10 16 30 34 35 38 40 45 55 59 58 57 55 56 57 60 61 60 61 62 59 60 62 64 65 65 64 63 62 61 61 59 61 61 61 61 60 59 59 57 56 57
11 7 8 9 10 9 11 10 14 19 20 26 35 45 51 57 59 58 56 54 56 58 60 61 64 63 63 56 61 61 60 61 62 62 63 60 63 62 59 60 60 59 58 58 57 57 57 56 50
15 9 12 11 13 11 11 12 13 12 15 18 21 39 52 56 57 57 54 50 54 57 58 61 64 65 64 60 59 57 57 59 61 64 63 63 62 62 61 59 57 58 57 54 53 54 51 53 53
11 14 11 11 15 14 12 14 14 15 14 23 27 38 49 52 53 52 50 49 50 54 59 62 64 65 65 60 57 58 57 58 59 60 64 63 60 60 60 57 56 57 54 56 53 53 56 55 53
19 20 20 18 17 17 20 17 19 17 18 20 33 43 45 46 47 50 50 49 52 55 58 62 64 65 63 62 59 60 60 58 60 59 59 62 59 59 57 56 55 53 52 52 53 52 52 51 48
26 23 23 23 21 23 22 21 21 18 20 21 29 37 41 43 44 47 51 52 55 56 59 62 64 65 60 57 60 59 60 58 58 57 57 61 61 58 55 53 50 50 50 50 51 51 51 47 46
24 23 23 23 23 22 20 19 17 19 19 20 25 30 38 42 43 46 47 50 52 54 57 61 63 61 58 56 56 55 54 56 53 53 56 58 59 56 56 52 50 49 50 54 54 53 52 49 45
18 19 16 23 23 25 24 17 20 26 26 21 25 26 37 42 45 46 51 52 51 52 54 58 58 57 57 54 54 52 51 52 51 51 52 54 55 55 55 51 50 51 52 51 50 50 48 48 45
15 11 13 19 24 25 23 20 23 24 23 25 26 25 29 37 45 48 46 47 48 48 51 55 58 54 54 53 52 53 53 52 49 51 48 50 52 53 53 50 50 52 50 50 49 49 50 48 44
13 13 18 17 21 23 20 21 22 23 23 25 28 27 26 35 42 43 42 38 40 47 51 55 54 52 53 52 52 47 46 45 46 44 44 46 46 48 50 49 50 51 50 49 48 50 48 47 46
19 18 17 18 24 26 26 24 21 24 25 26 26 27 30 37 36 35 39 41 42 49 50 49 49 49 47 46 43 42 42 41 41 42 45 47 46 47 49 47 48 48 48 50 51 49 50 48 47
22 19 20 23 25 28 26 22 22 25 27 28 28 30 32 32 33 36 40 43 45 45 45 42 40 40 39 40 42 43 43 43 44 45 45 44 46 45 43 46 45 46 45 48 49 50 49 48 48
25 23 26 25 26 28 26 23 22 24 26 27 28 30 31 32 33 35 37 41 43 43 43 40 41 43 45 45 43 43 43 43 40 40 39 40 42 42 43 44 45 46 45 44 46 47 48 46 47
23 27 29 28 26 19 28 18 23 22 24 26 28 31 32 32 33 34 37 41 43 45 45 44 43 43 43 45 42 43 40 39 40 40 39 40 41 41 41 42 44 45 44 45 45 44 47 47 45
29 32 31 30 28 26 25 19 25 24 23 25 30 32 34 34 36 38 39 41 43 46 46 46 43 43 44 44 43 41 41 41 41 41 43 42 39 39 38 41 43 45 44 45 46 46 46 45 43
32 31 30 31 31 27 27 25 25 25 26 28 32 35 38 38 37 38 40 40 42 46 46 45 42 41 43 44 43 44 44 43 41 40 38 35 36 35 38 40 43 44 44 45 44 43 42 42 41
30 28 27 30 29 26 27 25 29 29 31 32 33 36 39 40 40 39 39 39 41 43 44 43 42 41 42 43 42 41 42 42 41 39 37 37 35 36 38 42 43 43 44 42 42 42 41 40 39
31 30 31 21 25 25 27 21 27 31 32 33 34 36 37 38 39 39 39 40 41 43 43 44 42 41 39 40 41 41 41 41 40 38 38 38 37 38 41 42 43 42 41 42 41 41 41 40 40
30 31 32 30 31 31 25 27 31 32 32 32 33 33 35 37 38 38 39 40 41 43 43 45 43 42 41 41 43 43 43 42 40 40 39 37 39 37 41 41 40 40 39 39 38 38 36 39 39
32 33 31 32 30 17 15 21 20 31 32 32 32 34 36 38 38 38 38 40 41 42 43 45 43 42 43 43 43 41 42 40 39 37 37 37 38 40 40 40 37 36 36 37 38 36 36 37 37
32 32 30 29 31 25 22 17 31 29 31 32 33 35 36 38 38 39 39 40 41 43 43 42 42 43 42 41 42 41 39 38 36 35 35 37 39 37 36 33 34 37 39 39 38 36 34 32 33
32 30 28 28 20 29 30 22 28 30 33 33 34 36 37 38 37 37 39 40 41 40 39 38 40 39 39 39 38 39 37 36 35 34 35 36 35 35 34 35 36 38 37 36 33 31 29 28 27

GFSSGP_sfc_dewp_021.txt.gz
Dewpoint
49 34 26 25 18 20 24 29 33 35 37 42 40 38 39 44 47 48 55 54 58 61 63 66 71 71 72 71 71 71 71 70 70 70 70 70 69 68 67 66 65 66 66 66 67 67 68 67 66
29 19 23 20 16 17 21 26 30 35 37 37 36 36 36 42 51 53 53 53 55 58 61 66 70 70 70 71 71 72 71 70 70 69 69 69 69 68 67 66 66 66 65 65 66 67 67 66 65
37 22 18 14 14 15 21 24 34 37 38 37 36 38 42 44 48 51 52 53 54 57 61 66 68 69 69 70 70 70 70 71 70 70 69 68 68 67 67 67 66 64 65 65 66 67 67 66 65
21 16 18 14 21 21 25 32 34 35 39 38 33 38 49 50 49 51 52 50 53 53 58 65 67 67 68 67 67 68 68 69 69 70 70 69 69 68 67 66 66 66 65 66 66 65 64 64 64
19 17 15 15 22 26 30 32 33 33 34 34 33 34 47 54 54 52 50 45 46 48 53 57 66 67 66 66 66 67 67 68 68 68 68 67 67 67 66 65 65 66 66 66 65 65 64 64 64
14 19 15 17 23 28 32 33 30 29 31 30 31 36 48 53 52 53 50 46 46 49 52 55 64 66 66 66 66 66 66 66 67 67 67 67 67 66 66 66 66 65 65 65 65 65 65 64 63
16 19 17 20 23 25 27 28 24 25 27 27 28 33 46 49 52 52 48 46 45 49 51 53 56 62 65 65 66 66 66 65 65 65 65 65 65 65 65 65 64 64 64 63 63 62 62 61 60
14 16 15 17 19 17 16 19 22 21 29 30 32 30 42 49 52 50 48 46 47 50 52 54 55 55 58 61 64 65 66 65 65 64 63 64 64 63 62 64 63 62 62 62 61 61 60 60 59
11 9 8 7 7 8 9 9 11 19 25 27 27 35 40 49 50 49 48 47 50 51 56 56 54 56 56 53 59 63 65 65 65 64 63 62 59 59 60 62 61 60 60 60 59 59 58 59 59
10 8 7 6 7 6 6 6 9 18 19 21 30 35 46 50 50 49 47 47 50 53 53 56 60 58 56 49 56 56 54 57 58 59 60 57 60 60 57 60 61 60 60 59 59 59 58 58 49
9 9 8 5 6 4 4 4 7 9 13 19 24 31 44 48 49 48 47 46 47 51 52 54 62 61 59 55 52 52 52 55 56 60 60 59 59 59 57 57 57 58 59 54 55 54 52 53 52
9 8 5 5 7 8 6 8 9 9 14 17 21 33 41 45 47 47 46 44 45 48 50 55 62 63 60 55 52 52 52 54 54 57 59 58 56 57 57 53 53 53 50 52 52 51 53 55 53
10 10 7 8 10 11 14 12 12 11 14 16 25 33 39 44 45 44 44 45 45 47 50 53 61 65 60 59 54 55 55 54 57 56 56 56 55 56 54 53 51 50 49 49 50 49 49 50 50
18 18 19 18 18 18 19 17 18 16 16 15 24 30 35 38 41 43 45 45 46 47 50 53 58 64 60 54 56 55 56 55 54 53 53 55 56 57 54 52 50 49 47 47 49 50 50 49 48
20 19 21 21 21 20 19 15 16 18 19 18 20 24 31 35 37 39 43 45 46 47 49 53 58 62 60 54 53 51 51 50 50 50 53 53 54 54 54 51 51 49 51 55 52 50 50 49 48
18 19 18 20 21 23 22 18 17 21 22 20 23 24 28 33 35 38 41 43 45 46 46 51 56 60 58 53 51 49 48 49 48 49 50 51 52 53 53 50 50 51 53 50 49 49 48 48 47
15 13 11 19 20 20 20 17 20 24 22 22 21 23 25 30 35 39 44 45 44 45 47 50 57 58 56 53 50 51 51 49 47 49 47 48 50 50 51 50 50 54 51 52 51 50 51 48 48
11 9 12 12 20 16 16 16 21 22 22 23 23 25 25 27 34 43 42 43 41 49 49 51 55 56 53 52 51 46 45 44 45 44 43 47 48 49 50 49 50 50 48 49 50 53 51 50 50
14 14 13 15 20 21 19 19 20 23 24 26 26 26 26 30 41 40 42 43 45 50 51 52 53 52 48 46 43 42 42 42 42 42 46 47 46 47 48 45 46 48 46 49 51 51 51 50 51
19 18 18 20 22 23 22 20 21 23 26 27 28 31 34 36 36 39 42 45 46 46 46 44 43 43 42 41 42 44 45 43 44 45 46 45 44 44 43 46 44 46 44 48 50 50 47 48 50
23 22 25 23 23 24 23 21 21 24 26 27 29 30 31 32 33 36 40 44 46 46 44 43 43 44 45 45 42 43 43 43 41 41 42 42 44 44 44 45 43 45 46 44 48 48 48 45 47
23 26 27 25 23 18 24 18 22 23 25 27 29 32 32 32 34 36 39 42 46 46 46 44 44 43 44 46 43 44 42 41 42 44 43 44 46 43 40 39 41 44 45 46 46 42 46 46 43
26 31 28 28 26 22 21 16 23 22 23 26 31 33 35 35 37 38 40 42 44 47 47 46 43 43 44 45 45 44 44 43 43 43 43 42 40 39 37 38 41 43 43 44 46 46 46 45 44
30 30 28 30 27 25 24 22 23 23 26 28 32 35 37 38 38 38 39 40 43 46 46 45 43 41 43 45 46 45 44 43 40 40 39 37 37 37 38 37 41 43 44 44 45 43 43 42 41
29 28 29 29 28 27 25 20 29 29 30 31 33 35 37 38 39 38 39 39 41 43 44 44 43 42 42 43 43 43 42 42 41 40 38 39 37 36 37 40 42 41 44 43 42 42 42 41 40
29 29 32 22 25 23 25 17 26 30 31 33 33 34 35 37 38 38 39 40 41 42 44 45 44 43 42 43 43 44 44 41 41 40 40 38 36 37 39 41 42 42 43 44 43 42 41 41 39
29 30 30 30 32 30 19 25 30 31 31 32 32 34 35 36 37 37 38 40 41 42 43 44 44 42 42 43 44 44 42 42 41 41 38 36 38 36 39 41 43 42 41 40 39 39 39 40 39
31 31 32 32 28 18 13 15 19 30 30 32 30 32 34 35 37 37 38 40 40 40 42 44 42 40 41 42 42 40 41 41 39 37 37 37 37 38 41 41 41 38 38 39 39 38 38 38 40
29 31 29 25 28 24 20 17 27 26 28 30 29 33 35 36 37 36 37 39 40 41 41 39 39 39 39 39 39 39 37 38 36 35 35 36 37 35 35 36 36 39 38 39 38 38 36 36 35
29 28 28 29 21 28 30 24 27 28 30 31 32 34 35 37 36 36 37 40 40 39 38 37 38 37 37 36 35 35 35 36 35 35 37 39 36 37 38 40 41 40 38 36 35 34 34 33 32

GFSSGP_sfc_dewp_024.txt.gz
Dewpoint
49 31 30 28 22 20 16 26 33 34 36 36 37 35 42 48 50 49 56 58 63 65 65 68 71 72 72 72 72 72 71 71 71 71 71 70 69 68 67 67 67 67 66 66 67 68 68 67 66
33 33 25 23 20 17 22 29 32 34 34 31 35 34 43 46 52 51 52 57 60 63 64 66 70 71 71 71 72 72 71 71 71 70 71 70 68 68 67 66 66 66 66 66 67 67 67 66 65
45 32 20 20 17 15 22 32 36 33 32 33 34 44 43 45 50 50 52 56 58 63 65 66 68 69 70 70 70 71 71 71 71 70 70 69 68 68 68 67 66 66 66 66 66 66 66 66 66
30 25 20 16 16 21 23 33 33 32 36 34 37 42 46 48 50 50 51 54 55 60 63 65 67 68 68 68 69 69 69 70 70 70 70 69 69 67 66 66 66 66 66 66 65 64 63 64 64
29 22 17 18 24 27 30 31 31 32 32 31 34 44 48 50 49 48 48 48 50 55 59 62 66 67 68 67 67 68 68 69 69 68 68 68 67 67 66 66 66 66 66 65 65 65 65 65 65
21 18 17 17 25 28 30 31 30 34 31 28 35 44 49 50 48 46 44 46 47 51 55 59 66 67 67 67 67 67 67 67 68 68 67 66 66 66 66 66 65 65 64 64 65 65 64 63 62
21 20 17 22 24 25 29 28 24 26 26 27 29 41 48 48 50 47 44 45 48 50 53 58 61 64 66 66 66 66 66 66 66 66 66 66 66 66 65 65 64 64 63 63 63 62 62 61 61
16 16 15 20 20 22 19 22 23 22 28 26 32 36 43 49 50 47 45 44 48 52 52 55 59 60 62 63 65 65 65 65 65 64 64 64 64 64 65 64 63 62 62 61 61 60 61 61 61
14 14 15 14 17 11 11 10 12 19 24 25 33 37 46 49 48 46 45 46 49 51 58 58 56 59 62 61 62 65 65 65 65 64 63 62 62 62 62 62 63 61 61 61 60 60 60 60 61
10 14 7 6 8 7 6 7 10 18 19 23 34 42 47 46 47 46 45 47 50 54 56 59 61 60 57 50 61 63 61 63 63 62 62 62 61 61 59 61 62 62 62 62 61 61 61 60 54
10 10 8 4 8 4 5 5 9 14 14 23 27 42 45 46 47 47 44 46 49 53 54 58 64 62 61 59 56 59 59 61 63 64 61 62 60 63 61 62 61 61 62 60 59 58 58 56 55
8 6 3 4 7 4 3 4 6 13 16 19 26 33 44 44 45 46 46 45 47 51 54 61 64 64 61 60 58 58 58 60 60 60 61 61 60 61 58 58 56 55 55 55 54 54 56 54 55
8 2 3 6 8 11 12 8 10 11 16 19 28 34 41 44 45 46 46 45 46 49 52 57 64 66 63 60 61 60 59 61 60 59 60 60 59 59 59 57 56 55 54 52 53 52 52 53 52
12 11 11 11 13 14 13 16 17 12 15 16 25 32 38 42 43 45 45 47 47 49 53 58 61 66 63 59 59 59 60 60 60 58 58 58 59 59 58 56 56 54 54 53 53 52 53 53 52
16 16 17 18 18 16 16 16 14 17 16 15 19 26 34 36 38 42 44 46 46 51 53 59 64 64 63 58 57 56 56 54 55 56 56 55 56 56 56 56 55 54 55 55 54 53 52 52 51
15 18 17 18 19 21 20 17 14 18 17 17 20 22 25 34 34 39 44 48 49 50 50 53 54 63 63 60 57 54 54 55 53 53 54 54 54 55 55 55 55 56 56 55 54 53 52 51 51
16 14 17 19 17 20 19 18 17 21 22 21 22 24 25 28 34 39 41 46 48 52 52 53 57 61 61 59 55 55 54 53 53 55 53 55 52 54 54 53 54 55 54 54 53 51 52 51 50
15 8 11 12 18 13 12 14 19 21 21 23 23 23 26 27 33 43 44 46 49 55 54 54 58 59 59 57 54 53 52 51 52 51 52 53 51 53 53 52 53 53 51 50 51 52 51 51 51
13 11 10 13 19 18 15 16 20 22 24 28 31 32 32 39 41 44 46 49 51 55 54 54 54 54 52 51 49 49 50 50 50 50 52 51 51 49 50 49 49 49 49 49 50 49 48 48 49
16 17 17 19 20 20 19 19 21 23 26 27 29 32 37 37 40 43 46 48 49 49 49 48 47 49 48 47 48 50 50 50 50 50 48 49 49 48 47 48 47 47 47 47 47 47 47 47 48
19 20 25 21 21 22 21 20 21 24 26 29 31 33 34 35 37 41 44 48 50 49 49 46 47 48 49 50 47 48 48 49 47 48 47 48 50 49 49 49 48 47 46 46 46 46 45 45 46
20 28 26 23 22 18 22 17 21 24 25 28 30 33 34 34 36 39 43 46 49 50 51 48 47 46 47 49 48 49 47 45 47 47 46 45 48 47 44 44 45 46 47 45 46 45 47 45 43
25 28 26 26 25 23 19 20 23 24 24 28 32 34 36 38 39 40 42 45 47 51 51 50 47 46 48 48 50 49 48 47 46 46 46 45 45 44 43 42 43 45 46 46 46 44 43 42 41
27 29 28 27 27 30 22 20 25 22 25 30 34 36 38 38 39 39 41 44 46 51 50 50 47 45 47 47 48 47 46 46 45 45 44 43 42 41 41 41 43 44 45 45 44 43 42 41 41
28 28 33 34 32 32 26 21 29 28 30 32 35 36 38 40 41 40 40 40 43 46 48 47 47 45 47 48 48 48 48 48 46 44 43 41 39 39 39 41 43 44 45 44 43 42 42 41 39
28 27 37 26 29 28 24 17 28 30 32 33 34 35 36 38 41 41 42 42 43 45 46 47 46 45 44 47 47 47 47 45 43 43 40 39 39 39 41 44 44 44 44 43 42 42 42 41 41
28 30 27 30 35 33 18 29 29 30 31 32 32 33 36 38 39 39 40 43 43 44 45 47 45 43 43 45 46 46 45 45 43 41 41 40 40 37 41 42 43 41 40 41 41 40 39 40 41
26 27 30 37 30 22 14 18 28 30 31 32 31 31 35 36 38 38 38 41 42 43 44 47 44 41 42 42 43 40 41 41 41 40 40 39 40 39 39 40 40 40 41 40 40 39 39 40 39
26 27 28 24 31 28 25 20 26 27 29 31 30 32 36 37 37 38 38 41 42 44 44 43 41 39 39 39 40 40 39 39 39 39 40 41 40 39 38 40 41 41 40 39 38 37 36 35 35
26 27 27 36 27 35 33 24 27 28 31 32 32 34 35 36 37 37 38 40 40 41 41 39 40 39 38 37 36 36 38 40 39 38 37 39 40 39 38 37 39 39 39 38 37 34 33 33 32

GFSSGP_sfc_dewp_027.txt.gz
Dewpoint
46 34 33 29 23 22 18 18 34 34 30 41 47 49 50 51 50 50 64 66 66 68 70 71 71 72 72 72 72 72 72 72 72 71 71 70 69 68 68 67 68 67 66 67 68 68 67 66 66
44 34 33 24 21 19 22 33 31 30 32 44 45 48 48 48 51 55 62 64 64 66 68 70 70 71 72 72 72 72 71 71 71 71 70 70 68 68 68 67 68 68 67 67 67 67 67 66 66
43 36 22 20 19 17 25 32 30 31 34 38 43 46 48 48 50 54 63 64 65 65 66 68 69 69 70 70 71 71 71 71 71 70 70 70 69 68 67 67 68 67 67 66 66 65 64 64 65
34 28 19 15 14 26 34 32 33 34 36 43 44 46 48 49 49 53 61 63 63 63 64 66 67 68 69 69 69 69 70 70 70 70 70 69 68 67 66 66 66 66 66 66 65 64 64 65 65
36 27 16 17 26 31 31 32 34 34 42 47 48 46 46 48 50 53 57 58 60 60 63 65 66 67 68 68 67 68 69 69 69 69 69 68 67 67 67 67 67 66 65 65 65 65 65 64 64
23 21 15 15 26 29 29 29 34 35 34 47 48 47 46 47 44 46 53 55 57 57 61 63 66 67 67 67 67 67 67 67 68 68 68 67 67 67 66 65 65 64 64 64 64 63 63 63 62
22 21 18 17 25 27 27 25 26 28 26 35 48 47 47 46 44 44 47 52 54 56 59 62 63 65 66 65 65 65 65 66 66 66 66 66 66 66 66 65 64 63 63 62 62 61 62 62 62
20 18 14 15 21 20 21 17 25 26 23 42 47 45 46 47 46 44 46 49 51 54 57 59 61 62 63 63 64 64 64 64 64 64 64 64 64 65 65 64 64 63 62 61 60 61 61 61 61
17 12 10 12 13 14 13 11 13 24 25 34 40 47 49 48 46 44 44 47 49 52 55 58 58 60 61 61 63 64 64 64 63 63 63 62 62 62 63 63 63 63 62 62 61 61 61 60 60
13 13 9 8 10 7 8 8 11 19 24 41 47 48 48 47 45 44 44 46 49 53 55 56 56 60 60 57 62 62 63 63 63 63 62 61 61 61 61 61 62 62 62 62 62 61 60 60 56
11 7 5 8 8 6 6 7 14 19 21 37 45 46 46 46 46 45 45 48 50 53 55 57 55 55 56 55 60 61 61 62 62 61 58 58 59 59 60 60 60 59 61 59 60 59 58 57 56
6 5 5 9 9 5 3 4 8 15 18 30 45 46 46 46 46 46 45 46 50 52 56 59 58 57 56 56 55 56 57 58 61 59 57 57 58 55 55 55 54 55 57 58 57 56 54 55 53
4 6 7 8 11 12 10 8 12 16 18 29 45 45 45 45 45 46 46 46 48 51 57 59 59 58 57 55 56 55 56 57 56 57 57 56 57 55 55 54 54 52 52 51 51 50 50 51 51
12 6 7 8 13 16 16 18 16 14 15 29 38 43 43 44 45 45 46 45 48 49 58 61 61 61 60 57 54 55 55 56 56 56 55 55 56 55 55 53 54 52 52 52 52 51 51 51 51
15 15 14 14 15 15 17 17 15 15 14 22 28 36 41 43 44 45 44 45 46 50 60 62 62 62 62 56 53 53 57 50 53 53 54 54 54 52 53 53 53 53 54 53 52 52 52 51 51
16 19 16 18 19 18 17 16 16 16 17 17 22 23 32 41 40 43 43 46 50 55 58 62 64 62 64 57 52 51 51 51 50 52 53 52 53 52 52 51 51 53 53 52 52 52 51 51 50
18 15 18 19 19 22 19 18 17 18 17 18 19 20 22 28 37 42 45 49 49 51 51 56 61 63 60 57 55 52 50 48 48 50 51 50 51 52 51 50 51 51 52 51 51 50 50 50 49
16 16 20 18 17 12 11 16 21 22 21 22 22 24 38 42 44 46 49 50 51 52 53 52 52 55 56 55 52 51 49 49 49 49 49 48 50 48 46 47 48 48 47 47 48 47 47 48 48
17 17 17 19 20 18 18 16 22 26 25 25 36 39 41 43 44 45 46 47 47 46 46 46 47 47 46 45 45 45 45 46 46 48 46 45 47 47 47 47 45 45 45 46 45 45 45 45 47
19 20 24 21 21 20 19 20 24 26 30 34 36 37 39 41 44 46 48 48 49 45 45 45 45 45 45 45 46 46 46 46 46 48 47 48 47 46 45 46 46 46 45 45 44 44 43 45 45
26 26 25 23 23 23 22 21 24 27 30 31 33 35 37 40 43 44 45 46 46 45 44 44 45 45 46 45 45 46 46 46 45 45 44 46 46 45 43 42 43 43 45 44 43 45 45 44 44
26 30 28 26 24 21 21 18 24 26 29 31 33 35 36 39 42 44 45 45 46 46 46 44 44 44 45 45 45 45 45 43 45 44 44 43 43 42 41 42 42 43 44 43 45 43 42 41 40
30 32 29 29 27 26 25 21 22 27 29 32 34 35 37 39 40 42 44 45 46 46 45 44 44 44 45 46 46 46 43 44 44 44 43 42 42 41 40 39 40 41 43 45 42 41 42 41 40
28 31 31 30 28 26 29 26 26 24 30 34 36 37 37 37 39 41 44 45 46 46 45 44 44 44 45 45 44 43 43 44 44 42 41 41 40 40 39 38 41 44 44 43 44 43 41 41 40
30 30 29 28 28 26 34 30 35 34 33 36 37 38 38 38 38 38 39 41 44 42 44 43 44 43 44 46 45 44 44 43 42 41 40 38 38 38 38 42 43 44 43 43 42 42 41 41 39
30 29 28 24 26 27 27 27 29 33 35 37 37 37 38 38 37 37 39 39 41 42 43 43 43 42 44 45 44 44 42 43 41 39 38 38 37 37 39 41 41 39 40 41 41 42 42 40 39
28 29 28 28 29 26 25 28 31 32 33 34 34 36 36 37 37 37 39 40 41 41 43 43 39 40 42 42 41 40 41 41 38 37 37 38 39 37 39 39 39 39 39 39 41 40 38 38 38
28 29 28 31 23 22 22 29 33 31 32 34 32 34 36 37 37 37 39 40 41 41 42 41 39 39 38 37 37 36 36 37 38 38 39 39 39 38 37 40 40 40 40 40 38 38 38 37 36
29 29 29 28 29 24 22 22 31 35 35 35 34 36 36 35 37 38 39 40 40 41 41 39 37 37 35 34 35 35 38 38 38 37 37 38 38 39 38 38 40 39 39 39 38 37 37 36 34
28 30 30 27 25 28 27 24 28 34 34 33 32 34 35 36 36 36 38 38 38 37 37 37 37 35 34 33 33 33 38 37 35 35 35 36 36 38 36 34 33 37 38 37 37 36 32 28 26

GFSSGP_sfc_dewp_030.txt.gz
Dewpoint
45 34 32 29 20 21 19 20 36 38 45 50 51 50 50 51 49 50 66 67 69 70 70 70 71 72 72 72 72 72 72 71 71 70 70 69 68 68 67 67 67 68 67 68 68 67 67 67 66
42 32 32 25 20 18 25 32 40 43 48 49 49 50 52 54 60 63 63 66 68 69 70 70 71 71 72 72 71 71 71 71 71 70 69 68 68 68 67 67 68 68 67 67 67 66 65 65 65
37 34 21 19 19 17 30 31 34 41 45 45 46 49 49 54 61 62 64 66 67 67 68 69 69 70 71 71 71 71 71 70 70 70 69 69 68 68 67 67 68 67 66 66 65 64 64 64 64
34 25 18 15 14 18 32 32 41 43 45 47 47 46 48 53 55 63 64 64 64 64 65 67 68 69 70 70 70 70 70 70 70 70 69 68 67 66 66 67 67 66 66 65 64 65 65 65 64
35 24 16 15 19 32 32 34 41 45 47 47 47 46 47 58 62 63 62 61 61 61 63 65 67 68 68 68 68 69 69 69 69 69 68 67 67 67 67 67 66 65 64 64 64 64 63 63 63
22 21 14 14 27 29 26 34 45 47 46 46 46 46 46 57 58 58 59 58 59 61 63 64 67 67 67 67 67 67 68 68 68 68 68 67 67 66 65 65 64 64 63 63 62 62 62 62 62
22 20 17 15 17 29 27 28 39 47 47 48 46 45 45 46 53 54 54 56 58 60 62 63 64 65 65 65 65 65 65 66 66 66 66 66 66 66 66 65 64 63 62 61 60 61 61 61 61
22 18 17 13 23 19 22 23 26 36 40 49 47 44 41 43 49 51 53 53 55 58 60 61 62 63 62 63 64 64 64 64 64 64 64 64 64 65 65 64 64 63 62 61 61 61 60 61 60
19 16 12 11 17 16 13 20 20 30 38 41 44 47 43 45 47 49 49 50 53 55 57 60 60 61 61 62 63 64 64 64 63 63 63 62 62 63 63 62 63 63 62 61 61 61 60 59 59
18 14 11 11 14 9 8 12 16 37 45 47 47 47 46 43 45 46 47 49 51 54 56 57 59 59 60 59 62 61 62 62 62 62 61 61 61 61 62 62 62 62 62 62 62 62 61 60 57
12 5 9 8 9 9 9 13 17 36 42 47 45 45 46 43 43 44 46 48 51 54 56 57 59 60 58 57 60 60 61 62 62 62 61 61 61 61 61 59 60 59 60 59 59 59 58 57 56
4 9 7 11 9 6 5 7 14 20 36 48 47 47 46 44 43 43 45 47 52 54 55 55 56 59 57 56 59 60 60 61 61 61 59 57 58 55 56 58 57 56 55 57 57 56 55 54 54
6 7 7 13 13 8 8 9 15 18 40 48 47 46 45 44 44 44 44 47 52 54 55 55 56 56 55 55 56 56 57 59 60 58 56 57 55 54 54 54 53 52 52 51 50 50 50 50 50
8 7 7 9 15 15 13 16 14 17 41 45 45 45 45 45 45 45 45 45 50 54 56 59 58 59 60 56 54 54 57 56 57 56 56 56 56 54 54 52 52 52 52 53 52 51 51 52 52
11 7 10 12 15 14 16 16 14 15 43 44 45 45 45 45 46 45 46 45 49 55 60 59 62 62 61 60 57 53 55 55 56 54 55 55 55 53 52 52 51 51 53 52 51 51 51 51 51
16 17 14 17 17 18 16 13 16 14 31 42 43 43 44 44 44 45 46 48 53 58 60 62 61 60 59 61 59 56 51 50 52 53 53 52 53 52 51 50 50 51 51 50 49 50 49 48 49
18 13 17 19 19 19 19 17 19 16 19 24 26 37 41 46 48 49 50 51 53 56 61 61 61 59 57 60 57 54 52 50 50 50 51 50 52 51 49 48 48 48 46 47 47 46 47 46 45
18 15 19 17 17 18 14 19 21 20 20 29 39 43 44 44 45 46 47 48 50 52 55 56 58 58 59 56 53 51 49 47 49 49 47 49 48 48 47 47 46 46 45 46 45 44 44 44 44
19 19 18 19 20 17 18 21 25 29 37 39 41 42 43 44 45 46 47 49 45 46 47 50 52 49 48 48 48 47 45 46 47 46 48 47 46 46 45 45 44 45 45 44 44 44 43 43 44
23 23 22 21 23 18 21 22 28 33 36 40 40 41 43 43 44 44 47 48 48 50 47 47 45 45 44 45 45 46 45 47 46 45 46 45 43 43 40 42 42 42 44 43 43 43 44 44 43
29 26 26 23 25 23 22 22 29 32 34 37 39 42 43 43 44 44 45 48 47 45 45 44 44 44 45 45 45 45 45 45 44 44 43 43 42 41 41 41 41 41 43 42 43 42 42 41 41
29 31 28 25 23 17 22 18 24 30 32 34 37 40 42 43 44 44 44 45 44 44 44 43 44 44 45 45 45 44 43 41 43 43 42 41 41 40 40 40 40 41 42 43 43 42 40 41 39
28 30 29 29 26 25 25 21 23 31 31 34 36 39 41 43 43 44 44 45 45 44 43 44 44 44 45 46 45 45 43 44 44 43 40 39 40 40 39 41 42 43 44 43 41 41 41 40 39
29 31 33 31 29 24 28 25 23 28 31 35 36 38 40 41 42 44 45 45 45 45 44 44 44 44 45 45 45 45 43 43 41 40 38 39 39 38 40 42 42 43 42 42 41 41 40 39 38
29 31 27 26 26 25 32 31 31 32 35 36 37 38 38 39 40 43 44 44 45 44 44 44 43 44 44 44 43 43 42 41 39 38 37 37 36 37 38 41 41 42 41 40 40 40 39 38 38
29 31 26 22 23 24 28 28 30 36 37 38 37 37 38 37 38 40 40 41 42 42 42 42 42 43 44 44 41 41 42 40 39 37 37 37 37 37 38 40 39 39 39 39 39 39 39 39 37
29 27 29 29 28 24 27 29 31 34 36 36 37 39 39 38 37 39 40 40 41 42 42 39 40 41 40 40 38 38 40 38 37 37 38 38 38 37 38 38 38 39 39 39 38 38 37 37 36
27 29 27 29 20 22 23 28 31 34 34 36 35 35 36 37 38 39 39 40 41 41 41 40 39 37 36 35 35 35 37 38 38 38 38 38 37 38 38 38 39 39 39 39 38 36 36 35 35
27 28 29 28 27 23 21 22 29 34 36 34 34 36 36 37 38 38 38 38 38 38 37 38 37 35 33 33 34 36 38 38 37 36 36 37 37 36 37 37 36 38 38 37 36 36 36 34 31
27 29 30 25 23 26 25 23 32 33 34 34 34 35 36 36 37 38 38 37 37 36 35 37 36 34 32 32 32 32 38 37 36 35 35 35 34 36 37 34 29 29 30 30 31 31 27 25 24

GFSSGP_sfc_dewp_033.txt.gz
Dewpoint
48 33 32 29 20 21 18 19 34 41 47 50 53 51 52 56 51 49 65 67 69 69 69 70 70 71 71 71 72 72 72 71 70 69 69 69 68 67 67 67 68 68 68 67 67 66 66 66 66
37 32 29 24 19 17 27 31 39 47 49 49 51 52 53 56 62 64 64 68 68 69 70 70 71 71 71 71 71 71 71 70 70 69 68 68 68 67 67 67 67 66 66 66 65 64 64 64 64
38 31 19 19 19 17 28 35 46 48 49 46 48 49 50 59 62 62 66 68 69 69 69 70 70 70 71 71 71 71 71 71 70 69 69 68 68 67 66 67 67 66 65 64 63 64 64 64 64
32 23 18 16 14 17 30 37 46 46 47 48 48 49 49 58 61 64 66 67 66 66 67 68 69 69 70 71 71 70 70 70 70 69 69 68 66 66 66 66 66 65 64 63 64 64 63 63 62
32 22 16 15 19 28 32 38 44 45 46 47 47 46 50 61 64 64 64 65 64 63 65 66 67 69 69 69 70 70 70 69 69 69 68 66 66 66 66 66 65 64 63 63 62 62 62 62 62
22 20 14 19 32 31 29 46 47 46 46 47 48 47 51 62 62 62 62 61 62 62 63 64 67 68 68 68 68 68 68 68 68 68 68 67 66 66 65 64 64 63 62 61 60 60 60 61 61
21 18 15 15 35 32 30 40 45 45 46 46 47 46 52 57 59 59 57 59 60 62 62 63 64 65 66 66 66 66 66 66 66 67 66 66 66 65 65 64 63 62 61 60 60 60 60 60 60
23 18 16 15 29 33 37 27 44 46 46 46 45 44 49 50 55 54 55 56 59 60 61 61 61 62 62 62 64 64 65 65 65 65 64 64 64 64 64 64 64 63 61 61 60 60 60 60 60
20 17 13 19 23 18 26 23 28 42 46 45 46 44 49 51 51 51 51 53 55 57 59 60 61 61 60 60 62 64 64 64 64 64 63 62 62 62 63 62 62 63 62 61 61 61 61 60 60
21 18 16 14 24 24 15 37 36 43 46 46 43 44 48 48 48 47 47 50 53 55 57 59 59 59 60 60 61 61 62 62 61 61 61 61 60 60 62 62 63 62 62 62 62 62 62 61 57
16 8 7 10 12 10 13 26 31 45 45 45 42 43 45 47 47 46 46 48 50 53 55 58 58 58 59 58 61 60 61 61 61 60 60 60 60 60 60 60 59 58 59 58 59 57 57 56 55
9 8 8 10 10 9 14 13 35 32 45 46 43 44 44 45 46 47 47 49 50 53 55 57 58 58 57 58 59 59 60 61 61 61 61 60 59 57 57 58 56 54 52 52 53 53 52 50 51
6 7 12 12 8 5 9 15 16 19 45 46 45 43 43 44 44 46 47 48 51 53 55 56 58 59 57 56 58 59 59 60 61 61 59 57 55 54 54 53 52 52 52 52 51 51 51 51 51
8 8 9 13 13 13 15 16 18 27 48 46 45 43 42 42 42 44 45 47 52 53 55 56 57 58 57 55 55 56 57 59 59 59 57 56 55 54 53 51 51 51 52 52 51 50 50 49 49
10 7 10 12 14 13 17 15 18 30 47 46 45 45 45 43 44 44 45 46 52 54 56 57 58 59 59 57 55 54 56 55 57 56 55 55 55 53 51 51 50 51 50 48 48 47 47 46 46
16 15 12 14 16 16 15 12 17 39 45 45 45 45 44 47 48 49 47 46 50 57 58 60 62 60 59 60 58 54 51 50 53 53 53 53 53 52 50 49 48 48 46 47 46 46 44 44 44
17 13 17 18 17 17 17 16 20 30 44 38 40 43 46 46 46 50 53 55 57 61 60 61 61 59 60 57 54 51 49 49 49 50 49 49 49 48 47 47 46 46 45 46 45 44 44 43 43
14 17 17 16 18 19 16 17 23 19 29 41 43 44 44 44 45 46 48 52 53 55 56 57 58 59 58 53 51 49 46 46 46 47 46 45 44 44 44 43 43 44 44 44 44 43 43 42 44
20 18 19 18 19 17 19 25 30 37 41 42 43 43 43 43 45 46 48 47 48 52 53 54 53 50 48 50 52 49 46 45 46 44 44 42 42 42 42 41 41 42 42 43 42 43 42 43 42
24 20 20 23 24 22 28 28 34 37 40 42 42 43 42 43 43 44 48 49 50 51 48 46 43 44 44 44 45 45 45 45 44 43 42 42 42 41 39 39 39 40 41 41 41 43 43 43 41
29 25 25 22 23 23 25 25 32 35 39 41 42 43 43 42 43 46 47 49 47 45 44 43 43 43 44 45 45 45 45 45 43 42 41 41 41 40 39 39 40 41 42 42 42 41 40 40 40
28 30 27 24 20 18 22 21 27 32 34 39 41 42 43 44 46 48 46 44 43 44 44 44 44 44 44 45 44 42 42 41 43 42 41 39 40 39 40 41 42 43 43 42 42 41 39 39 37
27 29 28 27 25 24 24 24 24 32 33 36 39 41 43 43 43 43 43 43 43 43 43 43 44 45 46 45 45 44 43 44 43 41 38 38 38 39 41 42 42 41 42 41 40 39 39 39 37
29 30 32 32 28 24 27 24 24 29 33 35 37 40 42 43 43 44 44 44 44 44 44 43 43 45 45 45 44 44 43 42 40 38 38 38 37 38 40 41 41 41 41 40 39 39 38 37 37
30 30 26 26 24 24 30 29 28 31 33 36 38 39 41 42 43 44 44 44 45 44 43 43 43 43 43 43 42 42 41 39 37 36 36 36 36 36 37 39 39 40 40 39 39 38 37 36 36
29 29 25 22 22 23 28 28 30 36 37 38 38 38 38 39 41 42 42 43 42 42 42 41 43 43 43 41 41 42 40 39 38 37 37 37 37 37 37 39 39 38 39 39 38 37 37 37 35
29 25 28 28 27 23 27 30 33 35 36 37 37 37 39 38 38 39 40 41 41 41 40 39 41 40 41 39 38 39 40 38 38 37 37 37 37 37 37 38 38 38 38 38 37 37 36 35 35
25 29 27 27 20 21 23 28 29 32 35 37 37 40 37 38 39 39 39 40 40 40 39 39 39 37 35 34 34 34 35 38 37 38 38 38 37 37 37 37 38 38 38 37 37 35 35 34 33
26 27 28 28 27 22 20 23 28 33 35 37 36 37 37 37 38 37 37 37 37 37 36 37 35 34 33 33 33 34 36 37 37 37 37 37 36 36 37 37 35 36 37 36 36 34 34 30 26
27 29 27 21 21 25 23 22 30 35 36 35 35 36 36 37 37 37 36 36 36 35 34 36 36 35 33 33 33 33 36 37 37 36 36 35 35 35 37 35 32 29 31 30 28 28 26 24 23

GFSSGP_sfc_dewp_036.txt.gz
Dewpoint
51 37 33 28 17 21 17 18 34 42 47 52 54 53 55 58 54 49 65 68 69 69 69 70 70 71 71 72 72 72 71 70 69 69 69 68 68 67 68 68 68 67 66 66 65 65 64 64 64
38 32 29 24 17 14 20 25 40 47 51 54 53 54 56 57 62 63 64 68 68 68 69 69 70 71 72 72 72 71 70 70 69 69 68 68 67 68 68 67 67 66 65 64 63 63 64 64 64
43 32 19 19 19 14 22 37 46 49 49 49 48 50 55 59 62 63 66 68 68 69 70 70 70 70 71 71 71 71 71 70 70 69 68 68 68 67 66 66 66 65 63 62 62 63 63 62 62
33 23 18 14 12 16 27 44 47 47 46 49 49 49 54 60 61 64 67 67 67 68 69 69 69 70 70 71 71 70 70 70 70 69 68 68 66 65 66 66 65 63 62 62 61 61 61 62 62
29 21 15 17 17 23 24 44 48 45 46 47 48 47 53 62 65 66 66 66 66 66 67 67 68 69 70 70 70 70 70 69 69 69 68 66 65 66 66 65 64 63 62 61 60 60 60 61 61
22 19 14 23 32 33 42 45 47 46 47 48 50 49 55 63 64 64 65 64 65 64 64 66 68 69 69 69 69 69 69 69 68 68 67 66 66 66 64 64 63 62 61 60 59 60 60 61 61
19 17 14 29 33 33 39 43 46 46 46 46 49 51 58 61 61 61 61 61 61 61 62 63 64 66 67 67 67 67 67 67 67 67 66 66 66 65 65 64 63 61 61 61 61 61 61 61 61
22 18 16 21 31 34 33 41 48 46 46 47 51 54 57 57 58 57 57 57 58 60 60 60 61 62 62 63 65 65 65 65 65 65 64 64 64 64 63 63 62 62 61 62 62 62 62 62 61
21 17 14 18 31 34 36 37 30 45 45 46 46 52 55 56 54 53 53 55 56 58 59 59 60 60 60 61 63 64 64 64 64 64 63 62 61 61 61 62 62 63 62 62 63 63 62 62 60
22 18 16 19 25 35 36 37 42 45 46 43 45 50 54 53 52 50 50 52 54 56 58 59 59 59 59 59 61 61 62 62 61 61 61 60 59 59 61 62 62 63 62 61 61 60 60 58 56
19 17 12 13 26 19 28 32 41 45 44 44 46 49 50 50 47 47 48 49 51 54 56 58 59 58 58 58 60 60 61 60 60 60 60 60 60 59 60 59 58 57 57 55 56 55 55 52 52
15 14 7 11 16 19 32 27 43 38 40 45 48 49 48 47 45 44 45 47 49 52 54 57 58 57 58 58 59 59 60 60 60 60 60 59 59 58 57 57 56 53 52 51 51 51 51 51 51
12 10 12 9 9 17 15 22 39 23 46 44 47 46 45 44 44 43 43 46 49 52 54 56 57 57 57 57 58 58 59 60 60 60 60 59 58 55 54 53 52 52 52 52 51 50 49 48 48
10 10 11 10 8 11 14 17 18 32 46 43 45 45 45 45 46 46 47 48 50 52 54 56 57 58 57 55 56 57 58 59 59 59 57 56 55 54 53 52 51 51 50 49 49 48 46 45 46
11 7 10 12 13 15 16 14 18 42 45 43 43 43 43 43 43 44 45 47 50 53 55 56 59 59 59 57 56 56 56 56 57 56 55 54 54 52 51 49 48 48 47 47 46 45 45 44 43
15 14 8 12 15 17 12 8 16 46 45 44 45 45 46 48 50 51 50 45 51 55 58 60 60 60 59 56 56 55 51 51 52 52 51 50 49 48 46 45 45 45 46 46 45 44 44 43 43
16 12 15 17 17 16 16 16 22 44 45 41 41 45 46 46 46 47 54 53 54 59 59 59 59 60 58 55 54 54 51 47 50 48 45 45 45 45 43 43 43 43 44 44 44 43 43 42 43
12 14 16 16 18 17 16 25 33 34 40 43 44 44 45 45 45 47 51 55 56 57 59 59 60 59 56 55 53 49 46 45 45 43 43 43 43 44 43 41 41 42 41 41 42 41 42 42 43
18 15 16 18 20 24 32 34 36 40 42 43 43 43 44 44 45 47 49 51 52 54 56 58 58 58 54 53 49 47 46 43 43 42 42 42 42 40 39 39 39 40 40 41 41 42 42 42 41
21 19 20 23 24 28 32 32 36 39 41 43 42 42 42 43 44 47 48 51 51 52 52 50 46 45 45 45 45 44 43 43 42 42 41 41 40 39 38 39 40 41 41 42 42 41 41 42 40
28 23 24 22 24 26 27 27 33 37 41 42 43 42 42 43 45 48 48 47 46 43 42 42 43 43 44 45 45 45 45 44 42 41 40 40 39 39 39 40 41 42 42 42 41 40 39 38 39
25 29 26 23 19 19 23 19 29 34 38 41 42 42 42 43 45 46 44 43 42 43 43 43 43 43 44 45 43 42 41 41 42 41 40 38 38 39 41 41 41 41 41 40 40 40 39 38 36
27 29 28 26 25 22 23 24 27 36 37 38 40 42 42 44 45 44 43 42 43 43 43 43 44 45 45 45 44 43 43 43 42 39 37 37 37 39 41 41 41 40 41 40 39 39 38 38 37
29 31 31 31 28 23 27 23 24 31 35 37 39 41 42 43 43 43 43 43 43 44 43 43 44 44 45 44 44 43 43 41 38 37 37 37 37 37 39 40 40 40 40 39 39 38 37 37 36
31 29 25 25 24 24 28 27 27 30 34 38 39 40 42 42 43 43 44 43 44 43 43 43 43 43 43 43 43 43 42 40 38 37 36 35 36 36 36 37 39 40 39 39 38 37 37 36 35
30 27 26 22 23 24 28 27 29 35 35 38 39 40 41 41 42 43 45 44 43 42 42 42 43 42 41 41 41 41 40 38 37 36 37 37 36 36 36 37 39 38 38 38 38 37 37 36 35
29 25 27 28 27 23 26 29 34 36 37 37 38 38 39 40 40 40 42 41 41 40 39 41 41 42 41 39 40 40 39 38 37 37 36 37 37 37 37 37 37 38 37 38 38 37 37 36 35
25 30 26 26 18 19 22 27 29 33 35 36 36 37 38 38 39 39 39 39 40 38 38 39 40 38 39 36 35 34 35 36 37 37 36 37 37 37 36 37 37 37 38 38 38 37 36 35 35
27 27 28 28 26 21 18 23 30 34 36 36 37 39 37 38 37 36 36 36 36 35 35 37 36 34 34 33 34 34 34 36 37 37 37 37 37 36 36 36 36 36 34 36 36 35 33 33 28
27 27 25 19 17 25 23 21 30 34 36 37 36 37 37 37 36 36 36 35 35 34 34 36 36 36 34 33 33 32 32 34 35 36 36 36 35 35 35 35 34 32 32 32 30 29 28 25 24

GFSSGP_sfc_dewp_042.txt.gz
Dewpoint
47 33 24 30 23 18 17 21 40 47 50 52 52 51 52 55 52 52 65 64 64 65 66 67 70 71 71 71 72 72 71 70 69 69 69 69 69 69 69 67 67 65 64 63 63 62 61 60 60
27 25 26 26 17 13 15 19 37 49 52 52 51 51 50 53 59 63 63 65 65 65 65 66 70 71 71 71 71 71 70 70 69 69 68 68 68 68 67 67 67 64 62 61 60 60 59 60 60
32 25 24 21 19 17 15 35 48 52 53 54 49 51 49 52 62 63 65 66 64 64 65 67 70 70 71 71 71 71 70 70 70 69 68 68 67 66 66 65 66 64 61 60 59 59 59 60 61
22 22 21 18 15 17 28 45 50 47 48 49 53 51 57 61 62 65 66 66 64 64 65 69 69 70 71 71 71 71 70 70 69 69 68 66 66 66 65 64 65 61 60 60 59 58 59 60 61
25 22 12 12 15 21 33 46 46 44 45 45 44 45 54 62 63 67 67 64 64 64 66 68 68 69 70 71 71 70 70 69 69 69 67 66 66 64 64 64 63 62 60 60 60 60 61 61 61
18 20 9 8 20 30 41 45 43 43 41 44 44 47 56 63 63 66 66 65 66 66 66 67 69 70 70 70 70 69 69 69 69 68 67 66 66 64 63 62 62 61 61 61 61 61 62 62 61
18 13 12 22 27 36 44 45 42 41 41 45 50 48 59 63 65 65 66 67 67 67 66 66 66 68 69 68 68 68 68 68 67 67 67 66 65 65 64 64 62 62 62 62 61 62 62 62 61
22 17 23 28 31 39 45 39 43 39 40 51 52 48 56 61 65 66 65 65 66 66 63 61 62 62 64 65 67 67 66 66 66 66 65 64 63 63 62 63 63 62 62 62 62 62 61 60 59
24 15 22 35 36 41 44 38 40 44 43 47 48 53 58 63 64 63 63 63 63 62 61 60 59 60 60 60 64 65 65 65 64 64 64 62 58 59 58 62 63 62 62 61 61 60 59 59 58
21 15 18 31 40 38 38 39 39 40 44 44 49 58 60 61 61 60 60 59 55 54 54 57 58 59 59 55 60 60 58 58 60 59 61 59 62 60 58 61 61 60 58 58 58 58 58 55 49
20 16 20 19 39 37 37 37 40 36 40 43 45 56 59 59 59 58 53 47 46 50 51 54 59 60 58 58 57 55 57 59 61 63 62 63 62 63 61 60 58 58 56 54 54 54 52 53 50
18 18 15 20 37 33 38 38 40 40 37 43 46 57 58 56 56 49 43 42 45 50 52 55 57 60 60 56 57 58 58 60 61 62 64 64 62 64 63 59 58 58 55 56 54 53 53 51 48
20 16 16 30 32 31 36 37 39 37 44 48 54 56 53 51 45 40 39 42 48 50 53 55 57 58 59 60 59 60 62 61 63 63 64 63 64 63 60 59 57 55 53 52 51 50 48 48 47
20 12 15 22 30 29 34 38 39 39 46 51 54 51 46 44 39 39 40 43 49 51 54 57 58 59 59 59 61 60 60 61 62 64 64 62 62 60 58 57 55 52 50 49 49 48 46 45 45
13 11 13 17 25 25 28 30 22 39 45 48 48 47 42 39 38 38 39 40 47 52 57 59 60 60 60 59 58 57 57 60 60 62 62 61 60 59 57 54 51 48 48 48 46 46 44 43 42
12 13 13 17 24 19 20 17 28 42 43 44 45 44 43 41 39 42 45 44 45 52 58 60 61 61 60 59 57 57 57 58 59 59 59 57 55 53 50 48 47 48 47 45 44 43 42 41 40
12 8 10 13 16 20 18 17 30 43 41 42 43 43 43 45 46 48 51 50 50 54 58 60 61 61 60 59 59 58 56 55 52 51 50 50 49 49 47 46 47 47 44 44 41 39 38 36 35
14 7 11 10 17 15 16 25 30 42 41 41 43 44 45 45 46 52 54 55 53 58 60 61 61 59 58 59 58 55 49 47 46 46 46 46 46 47 46 46 46 42 39 36 38 39 37 37 38
15 15 11 15 22 21 21 26 30 42 43 42 44 45 46 46 50 54 57 58 58 60 61 60 60 60 60 58 53 48 46 46 46 45 46 46 45 46 47 42 40 38 37 39 39 37 36 34 37
16 17 19 23 23 26 29 30 33 38 42 43 44 45 46 49 52 55 57 58 58 59 60 60 59 60 58 54 50 48 47 46 45 45 46 45 46 44 40 40 37 38 36 39 40 39 36 33 34
23 21 23 20 26 29 27 28 33 38 42 44 45 46 47 50 53 55 56 58 59 59 59 57 56 55 52 50 48 48 48 46 44 44 43 44 43 41 40 40 39 39 38 36 39 38 38 34 33
21 26 23 23 22 16 26 13 30 36 37 41 44 46 48 50 50 50 49 52 54 55 54 50 50 50 50 50 47 47 44 43 46 47 44 43 42 39 38 39 40 41 40 40 39 35 39 37 34
26 27 25 24 23 22 22 18 26 35 35 37 43 46 48 48 46 42 42 44 44 48 49 49 48 47 48 49 48 48 47 47 46 45 45 44 42 40 37 39 41 41 40 41 42 41 40 37 35
32 30 30 29 27 22 20 22 10 24 30 38 42 46 47 46 43 40 42 43 44 49 49 49 47 47 48 49 49 49 47 44 43 42 40 38 37 37 38 38 40 41 41 40 40 41 40 39 38
30 26 22 23 24 21 28 25 19 29 34 38 42 45 46 44 42 42 42 42 44 47 48 48 47 46 48 48 48 47 45 42 39 37 35 36 34 35 37 40 40 38 39 40 40 39 39 38 37
27 24 23 12 19 22 28 22 27 34 36 37 42 44 44 42 42 42 42 43 45 46 47 46 46 45 46 45 44 43 39 38 37 38 39 38 38 39 41 41 40 38 37 38 39 39 39 39 38
29 26 30 29 31 28 20 25 30 34 35 36 42 42 41 41 42 42 44 45 46 47 48 48 46 44 43 43 43 42 42 40 39 40 41 40 40 36 34 34 33 33 35 37 39 39 38 37 37
30 30 27 29 22 12 11 17 16 30 34 36 40 40 40 41 42 43 44 46 46 46 45 47 44 42 41 40 40 38 38 38 40 41 39 35 32 30 31 32 32 32 34 35 37 36 34 34 35
30 28 27 25 28 17 14 11 30 30 33 36 39 40 40 41 43 44 44 45 44 42 42 42 41 39 38 37 37 38 37 36 37 33 30 30 31 30 30 31 33 33 33 35 37 36 34 35 34
28 27 26 23 19 29 28 13 26 33 37 37 37 39 40 42 42 42 42 41 39 38 39 39 39 38 37 36 35 32 32 31 30 28 29 32 31 32 31 31 32 33 34 37 37 37 37 33 29

GFSSGP_sfc_dewp_045.txt.gz
Dewpoint
50 38 29 20 19 15 14 18 21 41 47 50 51 47 52 53 54 53 62 62 64 64 65 66 71 71 71 72 72 71 71 70 69 69 69 69 69 69 68 67 66 64 63 62 60 59 59 60 61
30 20 15 21 16 14 14 17 21 49 51 51 50 51 51 52 60 61 62 62 64 64 65 65 70 71 72 72 71 71 70 69 69 69 68 69 68 67 66 65 66 64 61 60 59 59 60 61 61
28 20 16 15 16 12 15 27 47 50 51 48 47 49 50 53 60 62 64 65 64 63 64 67 70 71 71 71 71 70 70 70 69 69 68 67 66 66 65 64 65 62 60 59 58 59 60 61 61
20 12 16 17 17 18 17 42 46 47 47 47 49 47 53 61 57 64 65 64 64 64 67 68 69 70 71 71 70 70 70 70 70 69 67 66 66 65 64 64 64 61 60 60 59 60 61 62 62
17 16 12 10 12 14 20 46 44 44 42 46 45 49 53 58 60 62 65 64 64 66 66 67 69 70 70 70 70 70 70 69 69 68 67 66 64 64 64 63 62 61 61 60 60 61 61 62 62
13 14 15 12 12 21 30 44 44 43 41 40 41 47 52 59 58 62 64 66 66 66 66 67 69 69 69 70 70 69 69 69 68 68 67 65 64 64 62 62 61 61 61 61 61 62 62 61 61
16 17 16 15 17 29 44 46 44 46 43 39 42 46 57 59 60 65 66 66 65 66 66 66 67 69 69 68 68 68 68 68 67 67 66 66 65 65 64 63 62 62 61 61 62 62 61 60 59
17 18 17 18 20 29 39 42 40 39 41 44 47 46 54 60 64 59 66 65 67 66 64 60 62 62 65 66 67 67 67 66 66 66 64 64 63 63 63 64 63 62 62 62 62 61 59 58 59
19 18 16 22 28 48 43 37 38 39 37 41 47 49 54 62 64 62 63 64 65 59 58 58 57 59 60 62 65 66 66 65 65 63 64 61 56 57 59 63 63 61 60 60 60 59 58 58 59
17 18 17 41 46 40 41 41 34 37 36 41 48 57 61 62 61 60 60 61 58 55 54 56 58 58 57 53 59 58 57 57 58 59 60 58 59 60 58 61 62 59 58 59 59 57 58 58 49
20 19 21 42 48 38 31 32 36 36 33 34 41 55 59 59 59 58 57 56 49 50 51 54 57 58 55 56 55 54 56 59 60 61 60 62 59 60 59 59 58 58 57 54 54 53 51 53 51
18 18 17 19 34 31 31 35 33 34 32 40 46 55 55 55 56 55 50 41 45 48 50 54 57 58 58 55 53 56 55 58 58 62 62 62 62 63 60 57 56 56 54 56 54 52 53 52 51
16 20 18 29 30 30 35 44 46 31 34 36 52 53 53 53 52 43 38 42 47 48 50 52 55 58 59 59 59 59 60 60 63 64 65 64 65 62 61 59 55 55 53 51 52 51 50 50 49
19 24 27 32 33 32 33 39 31 36 39 45 50 49 47 45 38 37 40 45 48 50 53 54 56 58 59 61 62 61 61 61 64 64 64 63 63 62 59 58 55 53 52 50 50 49 47 48 47
18 27 27 27 30 30 32 29 28 37 39 44 45 43 39 35 35 37 41 46 49 52 55 57 59 59 60 58 57 57 57 58 60 61 62 61 61 60 59 55 53 50 49 50 48 50 48 44 42
18 15 21 23 27 28 29 21 27 37 38 38 38 35 33 33 35 37 39 44 50 54 57 58 58 61 60 59 57 57 58 58 59 59 59 58 56 55 53 50 49 49 48 48 46 42 39 38 36
14 12 16 19 23 21 24 16 28 35 37 38 37 37 35 36 35 40 43 43 47 55 58 59 61 61 60 59 59 59 58 57 57 53 53 52 51 51 49 48 49 48 44 42 40 39 39 37 35
12 13 14 16 19 17 13 19 29 35 34 38 39 38 38 40 41 46 48 48 48 56 59 60 60 61 60 61 60 58 57 52 50 48 47 48 48 49 48 47 46 43 40 41 40 41 37 36 34
15 9 9 9 11 11 12 18 26 33 33 36 39 40 41 43 46 51 52 53 51 57 59 60 60 60 60 59 56 55 51 48 47 46 47 47 47 47 48 43 42 41 39 39 41 39 39 36 36
12 16 12 14 14 21 15 18 25 33 34 34 37 41 43 45 48 51 54 56 57 59 60 59 58 59 59 56 53 51 48 46 46 46 48 47 47 45 42 43 40 41 38 39 40 41 37 36 37
16 16 24 17 20 18 20 20 28 31 34 37 38 40 42 45 49 53 55 57 57 57 59 58 58 56 53 50 48 48 47 47 45 46 45 46 45 42 42 41 41 41 39 37 40 40 38 34 35
19 23 19 19 21 16 22 13 24 31 34 39 41 43 44 47 50 53 55 57 59 59 58 56 52 49 48 48 46 47 43 43 47 46 45 44 43 41 39 39 40 41 40 40 39 36 39 39 34
26 24 22 20 17 19 20 13 24 30 30 35 40 43 46 49 50 50 51 52 52 54 51 49 48 47 48 48 47 47 46 47 46 46 46 45 44 40 37 39 40 40 39 40 41 41 41 39 38
28 26 24 23 21 22 17 18 14 24 26 32 38 43 46 47 47 44 46 46 47 51 50 49 47 46 48 49 49 48 48 44 43 43 42 39 37 35 36 36 39 40 39 38 38 40 39 40 39
26 25 26 24 21 21 23 20 16 22 30 29 38 43 46 46 44 41 41 40 44 47 49 48 46 46 48 49 49 48 46 43 40 39 37 35 34 34 37 39 39 37 37 36 37 37 39 39 38
24 23 23 15 17 17 23 12 23 31 34 34 39 43 46 46 43 41 41 41 44 47 48 48 46 46 48 48 46 45 42 39 38 36 37 37 37 37 39 39 37 34 33 33 36 36 37 39 41
26 22 27 24 34 26 14 17 31 32 33 35 39 42 45 44 42 40 42 43 44 46 48 49 46 46 46 45 44 42 41 38 37 38 39 38 39 35 33 33 32 32 32 33 34 35 36 38 38
27 28 24 24 20 14 8 10 17 26 28 33 38 42 44 42 41 41 42 44 45 46 48 50 47 45 43 42 41 39 37 37 38 39 38 36 33 31 30 31 31 31 32 33 33 33 34 37 35
28 26 23 23 25 21 14 14 21 23 27 32 36 41 42 42 41 42 42 45 46 47 47 48 45 43 40 39 39 40 38 36 37 35 31 30 31 30 30 30 30 30 31 31 33 35 34 36 33
26 24 25 26 20 25 29 15 22 26 28 31 34 39 40 41 41 42 43 45 46 45 44 44 42 39 38 38 40 37 36 34 32 29 28 31 31 32 31 30 30 30 30 31 34 35 33 34 33

GFSSGP_sfc_dewp_048.txt.gz
Dewpoint
51 44 37 28 18 19 15 15 17 41 41 51 51 51 54 56 55 54 63 63 63 63 66 68 71 71 72 72 72 71 71 70 70 70 70 70 69 69 67 67 66 64 61 60 60 61 61 61 62
35 31 25 15 15 12 12 33 41 52 54 53 50 51 52 57 60 61 63 64 63 64 63 66 71 71 72 71 71 71 70 70 70 70 69 68 68 67 65 66 65 64 60 59 61 61 61 61 62
35 23 16 12 13 15 13 43 41 49 50 49 49 49 52 55 58 62 65 66 63 63 64 69 70 70 71 71 71 71 71 70 70 69 68 67 66 64 64 65 64 63 60 59 61 61 61 62 62
25 19 12 11 15 14 23 40 46 47 46 47 48 48 52 58 58 64 66 66 64 65 67 69 69 70 70 70 71 70 70 70 69 68 67 66 64 64 64 65 64 62 61 61 61 61 62 63 63
20 16 10 12 12 13 15 41 43 42 44 46 47 49 48 58 64 66 67 66 66 67 67 69 68 69 70 70 70 70 70 69 68 68 67 66 64 63 64 64 64 63 62 61 61 62 62 62 63
18 13 13 15 14 10 46 51 49 47 45 42 44 43 49 58 61 64 66 67 68 65 68 67 69 69 69 70 69 69 69 68 68 67 66 65 65 64 64 64 64 63 63 62 62 62 62 61 61
16 17 14 16 17 18 43 49 50 53 45 47 49 45 53 58 58 64 66 67 67 67 67 67 67 69 68 68 68 68 67 67 67 67 66 65 65 65 64 64 64 63 63 62 62 62 61 60 59
15 16 16 16 16 43 47 47 52 48 45 51 55 47 52 59 63 63 64 66 66 67 65 67 67 67 67 67 67 66 66 66 66 65 64 63 63 63 64 64 63 63 62 62 61 61 61 60 59
16 15 16 19 39 45 46 47 53 42 40 45 43 55 54 61 62 59 61 63 64 65 65 63 62 65 65 66 66 65 66 65 64 63 63 61 58 60 61 62 63 62 61 61 60 60 59 60 60
16 17 18 36 43 45 46 48 50 36 38 37 52 58 61 61 57 61 60 61 62 60 57 60 61 62 63 60 63 62 61 61 60 60 61 61 63 61 58 61 63 62 61 61 61 59 59 59 53
16 18 21 39 42 45 46 44 46 36 39 40 52 57 60 60 59 60 61 60 58 54 56 57 61 61 59 57 60 57 59 62 63 63 63 63 62 61 61 63 62 61 60 59 57 57 55 54 54
15 21 19 38 43 45 45 48 46 42 41 48 51 57 57 57 58 57 57 51 49 52 54 57 60 62 61 58 58 58 59 62 62 64 63 65 65 63 62 63 61 60 57 56 56 56 55 54 52
18 20 22 20 38 32 40 42 43 44 36 48 52 51 52 54 58 60 45 46 49 50 54 56 59 60 60 62 63 63 64 64 64 65 65 65 65 63 63 60 60 58 56 53 53 52 51 50 49
18 23 27 31 30 29 39 39 40 36 48 49 47 47 48 52 50 41 42 47 48 50 53 56 58 61 63 62 62 61 61 63 65 64 64 64 63 62 62 61 56 52 52 52 51 49 49 49 48
25 26 27 29 31 31 43 43 39 36 44 45 43 44 46 40 36 39 44 47 49 52 54 56 59 62 61 59 58 58 58 60 61 62 62 60 60 60 59 57 53 52 51 51 50 49 45 43 41
20 24 24 23 29 31 33 37 34 36 39 40 40 40 37 34 34 40 46 49 51 53 55 58 59 61 59 58 57 57 57 58 60 59 58 57 57 56 54 52 52 51 50 50 47 45 42 41 40
22 17 19 21 22 26 30 26 29 34 35 36 36 36 33 34 36 40 44 50 53 56 57 59 61 60 61 60 60 59 59 58 58 56 54 53 53 53 52 52 51 50 47 47 44 43 43 40 39
18 15 16 17 19 21 24 19 25 31 34 35 34 32 32 33 35 40 43 47 54 59 60 61 61 61 60 61 61 59 57 54 52 51 51 51 51 51 52 51 48 45 45 44 43 43 43 42 40
18 17 18 16 17 15 14 20 19 27 32 37 36 36 36 36 42 48 50 51 53 60 60 61 60 60 60 60 57 55 54 51 51 50 51 52 50 50 48 48 45 45 44 43 42 42 41 41 40
15 19 18 11 11 13 13 13 22 24 29 35 38 38 39 42 45 50 52 54 56 59 60 60 60 59 59 60 56 55 52 50 50 51 51 51 50 47 47 45 45 45 43 43 43 42 42 40 41
16 24 27 23 19 13 17 13 22 26 27 30 36 40 41 43 47 50 52 55 60 60 60 60 59 59 59 57 54 53 52 51 49 50 50 49 48 46 44 44 45 44 43 42 43 42 41 38 39
26 30 24 26 29 14 26 21 28 25 28 31 33 38 41 43 47 50 53 57 58 59 59 59 59 58 55 53 51 50 47 46 48 48 48 48 47 44 43 42 42 43 44 43 42 39 42 40 38
29 32 29 20 18 22 25 25 29 31 28 30 37 39 41 44 47 51 55 57 57 59 60 59 57 52 51 52 51 51 51 49 50 49 50 49 49 47 42 41 42 42 43 43 42 41 40 40 38
31 29 24 23 26 24 29 27 26 28 32 33 36 40 43 45 50 50 55 56 57 59 58 54 50 48 51 51 52 52 51 49 48 47 48 47 47 43 42 41 43 43 42 41 40 40 39 39 39
23 23 27 32 32 26 15 19 20 33 31 36 36 42 45 49 49 49 50 50 51 51 52 52 49 48 50 52 52 52 50 47 45 43 43 41 41 41 42 43 42 41 39 38 38 38 38 39 38
31 24 33 26 29 26 27 16 25 30 30 34 38 41 46 47 47 45 46 46 48 50 50 50 48 48 50 52 51 50 49 46 43 41 42 42 41 42 42 40 38 37 37 37 37 37 38 37 39
29 24 26 23 38 35 17 10 30 30 31 33 37 41 45 46 45 42 43 45 46 49 51 52 49 48 50 50 50 47 45 42 41 41 42 42 42 36 38 36 36 36 36 37 37 36 37 38 38
23 24 26 26 25 21 12 14 27 26 28 31 37 42 45 46 45 42 42 45 46 48 49 52 51 47 48 47 47 44 43 41 43 41 41 39 36 35 35 35 35 35 35 35 36 36 37 36 37
26 25 20 18 28 29 27 18 23 23 27 30 33 41 45 45 44 43 42 44 46 48 49 51 50 46 45 45 44 43 40 42 39 40 36 33 33 34 34 34 34 34 34 34 34 36 35 34 34
24 24 23 35 25 31 35 25 24 27 29 31 32 39 43 45 43 42 43 45 45 48 48 50 50 45 43 43 42 41 42 41 38 36 32 33 33 35 34 34 34 34 34 35 36 35 35 35 35

GFSSGP_sfc_dewp_051.txt.gz
Dewpoint
56 50 46 33 20 21 17 17 25 49 51 53 55 56 58 58 56 52 66 65 65 68 70 70 71 71 71 71 71 71 71 71 70 71 70 69 68 67 67 65 65 63 61 62 62 61 61 61 61
40 37 37 27 13 13 14 34 49 49 55 52 51 55 56 58 60 63 63 65 66 68 69 70 70 71 71 71 71 70 70 70 70 69 69 68 66 66 64 64 64 63 61 62 61 61 61 61 61
44 32 22 14 11 11 18 41 51 52 52 50 50 51 55 57 61 63 65 65 65 65 68 70 70 70 70 70 70 70 70 70 69 68 68 67 66 63 63 65 64 63 62 61 61 61 61 61 63
29 22 18 9 8 11 13 40 47 46 47 49 49 50 55 59 60 65 67 67 64 66 69 69 69 70 70 71 70 70 70 69 68 68 67 65 64 63 64 65 64 63 62 61 61 61 61 63 62
24 20 13 14 8 12 47 45 48 46 46 46 49 48 52 59 66 66 67 67 67 67 67 67 68 69 70 70 70 69 69 68 68 67 66 65 63 63 64 65 64 63 62 62 62 61 61 62 61
24 16 10 10 12 45 48 50 49 46 45 47 48 47 52 60 63 65 66 65 66 65 66 67 68 69 69 69 69 68 68 68 67 66 66 65 65 65 65 64 64 63 63 63 62 62 61 60 60
19 16 15 13 14 44 46 51 50 49 45 45 50 50 55 57 63 65 64 64 65 67 66 67 68 68 68 67 67 67 67 67 66 65 65 64 64 64 64 64 64 64 64 63 62 61 60 59 59
18 15 13 13 31 43 48 50 52 49 45 51 52 50 54 57 64 65 64 63 64 66 66 66 66 67 67 66 66 65 65 65 64 64 63 63 63 63 63 63 63 63 63 62 62 61 61 60 59
19 14 12 22 41 44 47 46 52 48 49 49 50 49 58 61 61 61 62 62 63 64 65 66 66 66 66 65 65 65 65 64 63 63 63 61 60 60 61 62 63 63 62 61 61 61 60 59 58
15 15 17 39 45 45 46 46 47 46 44 48 55 59 61 57 58 59 60 59 61 63 64 64 65 65 64 63 63 63 63 61 60 60 60 59 58 59 60 61 62 62 62 61 61 61 59 57 52
14 15 27 40 43 45 44 47 50 48 42 43 53 58 59 58 56 59 56 58 58 61 60 62 63 63 60 61 61 60 60 60 60 59 59 60 61 60 61 61 62 60 60 57 57 56 54 52 52
14 16 26 40 46 45 46 43 45 49 43 47 58 59 56 56 58 58 57 57 59 57 56 57 59 60 57 60 58 57 59 61 61 63 63 63 63 62 62 61 60 60 57 54 52 51 50 49 48
16 17 23 40 44 44 47 43 42 45 46 49 58 59 57 56 58 60 60 58 54 55 55 56 57 56 56 60 62 62 63 63 63 64 63 63 63 61 61 59 56 54 51 49 48 47 48 47 46
28 28 29 34 38 38 44 45 38 48 45 48 54 56 55 54 58 59 56 50 52 54 55 56 57 59 61 60 59 60 62 63 63 62 62 61 61 60 57 56 53 50 49 49 48 46 44 42 42
29 25 27 29 39 40 37 36 38 44 49 51 51 53 52 47 53 55 47 49 51 53 55 56 59 60 58 57 58 58 59 60 61 59 59 58 58 56 55 53 51 50 48 48 45 42 41 40 39
25 25 24 29 38 40 38 36 38 41 45 44 45 48 52 46 49 45 47 48 51 52 54 56 60 57 56 56 57 57 57 59 58 57 55 54 54 52 51 50 49 49 47 44 43 42 40 39 39
23 20 20 24 37 40 34 34 36 39 41 40 39 36 35 37 41 45 48 50 51 53 55 59 57 57 58 57 57 57 56 56 56 54 51 51 51 51 50 49 46 45 45 43 41 41 41 39 39
22 22 20 18 23 32 30 28 32 37 38 37 35 33 33 35 38 44 49 51 54 55 59 58 59 59 58 58 58 57 56 54 51 50 49 49 49 50 50 48 43 44 42 42 42 40 40 39 39
21 21 19 18 21 21 29 27 30 33 35 35 34 32 33 35 38 40 46 54 56 59 60 60 59 58 58 58 57 55 53 50 49 48 48 49 49 47 46 45 44 43 41 41 42 40 39 39 39
22 20 23 24 20 18 16 19 25 29 35 36 33 34 33 39 44 47 49 56 58 58 60 59 58 58 58 60 57 54 51 49 48 48 49 49 47 46 43 43 42 41 40 40 40 40 40 39 39
30 28 26 26 28 22 21 19 23 25 29 37 37 36 37 43 47 49 51 55 58 60 59 59 58 58 58 60 55 53 50 49 48 48 48 47 46 44 44 43 42 41 41 40 40 39 38 38 38
29 29 30 26 24 21 25 21 27 28 26 29 37 40 42 43 48 49 52 58 59 59 60 60 59 58 58 58 53 50 46 45 47 48 48 46 45 43 42 41 41 41 41 39 40 40 39 38 36
29 32 28 30 29 25 26 24 28 27 28 30 31 38 42 44 48 50 54 58 59 59 59 59 58 58 58 51 50 48 47 47 48 49 47 46 45 43 41 40 40 41 41 41 39 37 37 38 36
30 30 32 34 32 25 26 26 27 26 26 33 35 39 41 44 48 52 56 57 57 58 58 58 58 56 49 49 49 48 47 48 47 47 47 47 46 44 42 41 40 40 39 36 36 35 35 35 37
31 29 27 27 27 26 27 29 30 32 31 31 31 36 43 49 52 55 56 56 56 57 58 58 53 48 48 49 50 49 46 45 44 43 42 39 39 41 40 39 38 36 35 35 35 34 34 35 36
32 32 28 23 27 27 29 27 30 32 33 36 38 40 46 49 49 53 55 55 56 53 50 49 47 48 49 49 49 47 44 43 41 40 41 41 41 41 36 34 34 34 34 35 34 35 35 35 37
34 32 34 29 33 27 24 24 32 32 33 39 40 43 46 47 45 47 47 49 48 48 48 47 47 48 50 50 47 44 40 39 39 40 41 42 38 34 34 33 32 33 34 34 34 35 34 35 35
30 30 28 28 17 17 20 21 29 31 33 35 39 44 45 45 44 44 44 46 47 48 49 49 48 49 49 47 43 42 40 39 40 41 40 37 35 33 33 33 33 33 33 33 33 34 35 33 34
27 26 26 25 30 23 23 21 26 29 31 31 38 44 45 45 43 42 42 45 47 48 49 48 49 47 45 43 43 40 39 41 40 38 37 33 33 33 33 33 33 33 33 34 35 34 34 34 34
25 28 30 26 22 28 27 24 26 28 31 31 31 42 45 45 44 42 42 44 46 47 48 49 48 45 43 40 41 44 42 40 40 39 32 34 33 34 33 33 33 34 34 35 34 33 34 33 34

GFSSGP_sfc_dewp_054.txt.gz
Dewpoint
56 51 44 32 19 20 18 18 20 32 50 52 56 57 57 58 55 49 64 65 68 69 70 70 71 71 71 71 71 71 71 70 69 69 69 68 67 66 65 65 65 64 62 61 61 60 60 60 61
45 41 36 25 14 11 12 23 47 49 53 52 53 56 57 58 62 63 62 66 68 68 70 70 70 71 71 71 70 70 70 70 69 68 67 67 65 65 62 63 64 64 61 61 60 60 60 60 62
43 33 24 20 11 8 11 38 49 51 52 50 49 54 57 57 60 63 64 65 68 68 69 70 70 70 70 70 70 70 70 69 69 67 67 66 64 63 63 64 65 64 61 60 60 60 60 61 63
29 23 19 10 9 10 20 46 50 48 48 49 51 52 57 62 64 66 65 66 67 69 69 69 69 69 70 70 70 70 69 68 67 67 66 65 63 63 63 65 64 63 61 60 60 60 60 62 62
25 20 14 9 10 25 47 49 50 47 47 48 48 48 54 63 66 65 66 66 67 67 68 68 68 69 69 70 70 69 68 68 67 66 65 65 64 63 64 65 64 64 61 61 60 60 61 61 61
24 17 11 9 16 45 48 51 51 49 49 47 48 49 53 64 64 65 65 66 65 65 65 65 67 67 68 69 69 68 68 67 66 66 65 65 65 64 64 64 64 64 63 63 61 61 61 61 61
23 18 14 15 16 37 47 51 49 49 49 46 48 51 55 61 63 64 65 65 65 66 66 66 65 66 67 67 67 67 67 66 65 65 65 65 64 64 64 64 64 64 63 63 62 61 60 60 61
20 16 14 13 35 41 48 51 51 47 43 51 51 52 51 60 63 63 63 64 64 63 64 65 66 66 66 65 66 66 65 65 64 64 63 63 63 63 63 63 64 63 62 61 61 60 59 59 59
18 15 13 13 41 43 48 45 49 50 48 48 52 56 58 62 62 60 60 62 62 63 63 65 65 65 66 64 64 65 65 63 63 63 63 61 60 60 61 61 62 62 61 60 60 59 58 58 59
14 13 13 22 45 45 46 47 48 47 45 54 56 60 61 61 60 59 59 60 61 61 63 65 64 65 64 62 63 62 61 60 60 59 59 58 58 59 60 61 61 61 60 60 60 60 58 55 51
15 13 27 43 45 45 45 47 48 45 41 50 55 57 59 59 58 58 58 59 60 62 61 63 64 64 63 61 61 61 60 59 58 58 58 58 59 60 60 60 60 58 59 56 54 51 50 48 48
14 15 29 43 45 43 44 46 45 46 43 54 58 58 56 58 56 55 56 56 58 60 60 63 63 62 60 60 59 59 58 60 60 59 60 61 61 60 60 60 58 55 52 49 49 49 47 45 43
18 18 35 44 45 44 45 43 43 43 47 56 54 57 56 55 54 57 56 56 57 60 58 61 62 58 59 59 59 60 62 62 63 62 63 62 61 60 56 54 53 51 49 48 46 43 41 41 39
26 41 42 43 43 45 43 43 40 43 47 54 56 56 56 56 54 56 56 55 58 56 56 58 59 58 61 60 61 62 62 62 61 61 61 61 58 55 54 53 50 48 48 45 43 41 40 39 38
29 27 36 38 38 37 40 37 38 44 47 53 55 55 56 56 56 57 57 55 56 54 55 56 60 60 58 59 60 60 60 60 59 58 57 57 56 55 53 52 50 48 46 43 41 40 40 39 38
22 23 24 38 39 38 33 31 36 40 48 52 54 54 56 55 54 57 58 55 54 54 55 59 59 58 57 57 57 58 59 58 57 56 55 55 54 51 49 49 48 46 43 42 41 40 39 39 38
23 20 20 30 35 36 33 30 36 40 42 48 52 51 51 54 55 56 53 52 53 54 55 58 57 56 57 56 56 56 56 55 54 52 51 51 51 50 48 46 45 44 43 42 41 41 39 38 38
23 21 21 22 35 36 35 31 31 37 43 44 48 49 43 47 50 49 48 51 53 54 58 56 57 57 56 56 56 55 54 53 51 50 49 49 50 50 48 44 43 42 41 42 41 38 39 38 38
25 24 21 21 26 33 32 29 30 37 40 36 36 44 43 45 45 47 49 51 52 57 58 57 57 56 56 56 56 55 52 51 49 48 49 49 49 49 46 44 42 41 42 41 40 39 39 38 39
30 27 23 25 24 31 27 28 31 35 38 35 33 35 36 38 42 48 50 51 53 58 57 57 56 56 55 57 56 54 52 49 48 48 49 49 47 45 43 42 41 40 40 40 39 39 39 38 38
30 30 27 25 25 22 21 23 23 29 37 37 37 33 34 37 41 48 52 53 56 58 58 57 57 56 56 58 56 52 49 48 48 48 48 46 45 45 43 42 42 40 40 39 39 38 37 37 37
28 31 30 28 21 15 24 20 28 24 31 36 36 36 35 40 42 50 53 56 57 58 59 58 58 57 57 59 56 50 47 46 47 47 48 46 45 44 43 42 41 41 41 40 40 39 38 36 34
30 33 32 29 27 25 26 21 23 28 27 30 36 37 36 43 43 51 55 57 58 59 59 59 58 58 58 58 55 50 47 47 47 48 47 46 44 43 41 41 41 40 41 38 35 34 34 36 35
31 30 33 33 31 24 26 23 22 25 26 27 33 37 39 45 46 50 57 58 59 59 59 59 58 58 58 57 52 50 47 47 47 48 46 46 46 43 42 40 40 39 36 34 34 34 33 33 34
30 28 24 23 25 23 28 26 24 30 30 30 31 39 41 47 49 54 57 58 58 58 58 58 58 57 53 51 50 49 47 47 47 47 46 44 41 41 40 39 38 36 35 35 34 33 32 32 33
32 28 25 18 24 24 28 25 27 32 33 33 33 37 46 48 51 54 56 57 57 57 57 58 57 52 49 49 48 47 45 45 44 43 42 42 42 39 36 35 35 34 35 34 33 33 34 35 35
32 29 31 28 30 27 25 22 30 33 36 38 39 41 47 50 54 55 55 56 56 56 56 55 51 48 49 49 46 44 42 41 42 43 41 40 39 35 36 34 34 34 33 33 33 34 34 34 33
27 31 29 29 17 17 19 21 28 31 34 39 39 41 47 47 49 52 53 54 53 52 49 48 49 48 49 46 43 41 41 41 43 44 43 39 39 36 36 34 33 33 33 34 36 35 34 33 34
27 25 27 27 27 21 21 20 24 32 33 38 40 44 46 46 46 48 50 51 50 48 48 47 47 48 48 44 41 41 42 42 42 42 39 36 37 35 34 34 32 33 33 36 34 33 34 34 34
33 29 30 25 19 26 25 21 27 31 33 34 36 44 46 45 44 45 47 48 47 47 47 48 47 48 44 40 41 43 42 44 43 40 38 38 35 36 35 33 32 33 33 35 33 32 32 33 33

GFSSGP_sfc_dewp_057.txt.gz
Dewpoint
55 48 42 31 21 20 18 18 20 19 48 55 57 56 56 58 53 47 63 64 68 69 70 70 70 71 71 71 71 71 70 69 67 67 67 67 66 65 65 65 65 64 60 60 60 60 62 65 66
46 43 32 21 14 11 11 16 46 46 52 56 54 56 57 57 62 62 62 67 68 69 70 70 70 70 70 70 70 70 70 68 67 66 66 65 64 64 64 64 65 64 61 60 60 60 60 62 64
41 30 25 21 11 8 9 29 42 50 53 52 51 56 56 57 62 62 65 67 68 69 69 70 69 70 70 70 70 70 70 68 67 66 65 64 64 63 63 65 64 63 60 59 59 59 60 62 63
28 22 18 12 10 10 17 46 48 48 48 50 51 51 57 63 64 64 67 67 67 69 69 69 68 69 69 70 70 70 69 67 67 66 65 64 63 63 64 65 64 63 60 60 60 60 61 62 63
25 19 15 10 9 21 47 48 49 47 47 49 49 50 55 63 65 64 66 67 68 68 69 68 67 68 69 70 70 69 68 67 66 66 65 65 65 64 65 65 64 64 62 60 60 62 62 61 61
24 17 11 10 12 40 47 49 50 48 48 50 48 50 56 64 64 65 66 65 66 66 67 67 68 67 68 68 68 68 67 67 66 65 65 65 65 65 65 65 64 64 63 62 61 62 62 62 61
22 19 15 14 14 27 46 51 48 48 47 46 50 51 56 61 63 64 64 64 65 65 65 66 66 65 65 66 67 67 66 66 66 65 65 65 64 64 64 64 64 64 63 63 62 62 62 62 61
23 17 15 13 17 33 48 50 51 46 44 50 52 51 53 60 63 64 64 64 64 65 65 64 64 65 66 65 66 65 65 65 65 65 64 64 64 64 64 64 64 63 63 62 62 61 61 62 61
19 15 13 13 34 39 48 44 49 49 47 56 58 56 59 62 61 60 60 61 61 63 62 63 64 65 64 64 65 65 65 64 63 63 63 61 60 60 59 62 62 62 62 62 62 61 59 57 57
15 13 12 15 39 45 46 45 46 46 47 53 56 60 61 60 59 59 58 58 59 59 60 62 63 64 64 63 63 62 61 60 60 60 59 58 58 59 59 61 62 62 61 61 59 57 55 50 46
16 14 15 39 45 46 46 46 47 44 42 53 55 57 58 58 58 58 59 59 58 60 62 63 63 64 63 62 62 61 60 59 58 58 58 58 58 60 59 59 59 57 56 50 49 46 45 42 42
15 16 29 42 46 44 45 45 44 45 44 55 57 58 58 58 58 58 58 58 59 60 61 62 63 63 62 60 60 59 58 58 58 57 58 59 59 59 59 58 56 51 49 47 46 45 42 40 39
18 27 30 44 44 43 43 41 42 44 55 57 57 58 57 56 56 57 58 58 59 59 60 61 63 61 60 59 58 58 59 59 61 62 62 61 60 58 56 53 51 49 46 44 42 40 39 38 37
39 42 43 43 44 45 40 42 40 43 53 57 56 56 56 55 53 55 55 55 57 59 59 62 62 58 59 59 59 60 61 62 61 61 61 60 57 55 53 51 49 47 44 42 41 39 38 38 37
33 36 37 38 41 41 43 37 39 45 54 55 55 55 54 54 53 55 55 54 56 58 57 60 58 59 60 60 60 60 61 60 59 59 59 56 55 53 51 50 48 45 42 41 40 39 39 38 37
26 29 31 36 39 38 35 31 40 48 54 54 55 55 53 52 53 55 56 53 56 55 56 58 59 59 59 59 59 60 59 58 57 56 56 55 53 51 50 49 47 44 43 41 40 39 38 38 37
23 20 27 29 38 37 34 30 34 44 51 54 54 54 54 54 55 55 58 54 56 54 57 58 58 57 57 57 57 57 56 56 55 53 53 52 50 49 47 46 44 43 42 42 41 40 38 37 37
24 21 22 21 31 35 34 32 33 41 48 52 54 54 55 55 54 54 57 56 54 55 58 58 57 56 56 56 55 54 54 53 51 50 50 50 49 47 45 44 43 42 42 41 39 37 39 38 37
30 27 24 23 23 31 31 31 30 37 43 46 52 51 53 55 55 55 56 52 53 56 57 56 56 55 55 55 53 52 51 50 49 49 49 49 49 47 43 43 41 41 40 39 38 39 38 37 38
31 30 28 26 26 31 30 30 30 37 41 44 48 50 47 50 51 52 51 51 53 56 57 56 56 55 55 54 55 54 51 50 48 48 49 49 49 46 43 42 40 41 41 39 39 38 38 37 38
28 29 29 27 26 29 24 24 25 33 39 39 43 49 44 45 46 48 48 50 53 56 56 56 56 55 54 56 54 51 49 48 47 47 47 48 46 44 43 42 41 40 40 39 38 38 36 35 36
26 30 31 30 22 16 22 17 26 29 36 37 37 41 41 42 43 46 48 50 52 56 57 57 56 56 56 57 54 51 48 46 47 47 47 46 46 44 43 42 41 40 40 40 39 38 37 35 32
27 33 31 31 27 24 25 20 20 26 31 35 36 35 36 38 41 46 48 50 53 56 57 57 57 56 57 57 56 52 48 47 47 47 47 46 44 44 42 42 41 40 41 37 35 34 34 35 34
32 31 30 31 29 23 25 22 21 24 26 31 36 36 34 36 40 46 50 52 55 58 58 57 57 57 57 58 55 52 49 47 47 47 46 46 44 42 41 41 40 38 35 34 34 33 32 32 33
29 26 22 22 23 22 27 25 25 26 28 28 32 37 37 40 44 50 54 55 57 57 58 58 57 57 57 57 55 52 49 47 47 47 46 44 41 41 40 39 39 40 35 35 35 33 32 32 32
32 26 24 16 22 22 28 25 25 31 35 33 33 37 39 43 47 54 55 56 57 58 58 58 58 57 57 56 54 51 49 48 47 47 45 42 41 38 39 42 38 37 36 34 34 33 33 35 34
31 29 29 28 29 27 25 23 29 31 34 37 35 41 43 45 49 54 56 57 57 58 58 58 57 57 53 52 50 47 48 45 43 43 42 40 41 43 43 37 37 36 34 34 34 34 34 34 33
29 31 26 28 18 18 18 21 24 29 30 36 38 39 46 49 51 54 55 56 57 57 57 57 56 54 50 49 47 44 43 42 42 42 41 42 42 42 39 37 38 34 34 34 35 35 34 33 33
28 26 26 28 25 21 20 22 23 30 31 34 35 40 46 49 52 54 55 56 56 56 54 55 52 50 48 45 42 41 42 42 42 40 42 43 42 40 40 40 38 35 33 35 34 33 33 32 33
28 27 28 25 21 26 25 20 24 29 33 35 38 40 46 48 50 52 54 54 53 52 51 51 51 49 47 41 41 42 42 43 44 43 41 42 42 42 39 38 34 33 33 35 33 32 31 32 32

GFSSGP_sfc_dewp_060.txt.gz
Dewpoint
54 44 40 28 21 20 19 16 21 31 37 57 57 56 54 59 53 46 62 64 69 69 69 70 70 70 70 71 70 70 70 69 67 66 66 66 66 66 66 65 64 64 62 62 65 66 67 66 65
46 41 31 21 14 12 11 15 31 48 52 55 54 55 56 57 61 61 60 67 69 69 69 69 70 70 70 70 70 69 69 68 67 66 65 65 66 66 65 65 64 64 64 62 64 64 66 66 67
39 28 25 18 12 7 7 14 38 47 53 52 53 56 57 57 61 61 65 68 69 69 69 69 69 69 70 70 70 69 68 67 66 66 65 65 66 65 64 64 64 63 63 60 61 62 63 64 64
27 19 17 14 12 10 10 26 48 48 49 51 52 51 58 62 64 64 66 68 68 68 69 68 68 69 69 70 70 69 68 67 66 66 65 65 65 64 65 65 64 64 63 60 61 61 62 63 62
23 19 15 10 9 9 44 47 49 47 48 49 50 51 55 63 64 66 66 67 67 68 68 68 67 68 70 70 69 68 67 67 66 66 65 65 66 65 65 65 64 64 64 62 61 62 63 63 62
23 17 11 12 11 17 47 48 50 49 49 49 50 51 57 64 63 66 66 66 67 67 67 67 67 67 68 67 68 68 67 67 66 66 66 66 66 65 65 65 64 64 63 63 63 62 61 61 62
22 18 17 15 14 20 43 50 48 48 47 47 51 51 57 62 64 64 64 65 65 66 66 66 66 66 66 66 67 66 66 66 66 66 66 66 65 65 64 64 64 63 63 63 63 63 62 61 60
23 18 14 14 14 23 47 50 50 46 45 50 55 51 54 61 64 64 64 64 64 64 64 64 65 64 64 65 65 65 65 65 65 65 64 64 64 64 64 64 64 63 63 63 61 62 61 61 60
19 15 14 14 19 28 48 44 48 49 50 55 57 55 59 62 62 61 61 62 62 63 62 63 63 64 64 63 65 65 65 64 64 64 63 61 60 60 59 62 63 63 63 61 59 57 55 54 55
16 14 13 15 26 41 47 44 45 46 50 53 57 60 61 60 60 59 59 58 59 58 59 60 62 62 63 63 64 62 62 61 60 60 58 58 58 58 60 61 62 62 60 58 56 52 50 45 41
15 16 15 23 42 45 46 46 47 44 43 52 54 55 59 59 59 58 58 58 57 58 59 60 62 63 63 62 62 60 59 59 59 58 57 58 60 59 59 58 58 54 52 46 44 42 41 40 40
16 16 17 39 46 45 44 45 44 45 43 54 56 58 59 58 58 58 57 57 58 58 58 59 61 63 62 61 60 59 58 57 57 57 58 59 59 58 58 57 51 49 47 44 43 41 40 39 40
18 32 40 44 45 43 43 41 41 49 55 57 58 57 57 57 58 59 58 58 58 59 58 60 62 62 60 60 59 58 58 58 58 58 59 60 59 58 55 51 49 46 43 41 41 40 38 38 38
41 40 42 42 44 45 39 41 42 50 56 56 56 56 57 57 57 57 57 57 58 58 59 60 62 61 60 58 57 58 59 60 60 61 60 60 58 55 53 50 46 43 42 41 40 39 38 37 37
37 36 36 39 44 40 41 35 39 52 56 55 54 55 56 55 54 55 55 56 57 58 59 61 61 59 59 58 58 59 60 61 60 60 59 57 55 54 51 50 44 42 41 41 40 39 39 38 37
32 28 29 35 39 39 35 30 41 52 55 53 54 54 55 54 53 54 54 55 56 58 58 60 60 59 59 58 59 59 59 59 58 58 57 55 54 52 49 46 44 43 42 41 40 39 38 38 37
23 21 27 25 38 36 35 29 41 53 53 53 54 54 53 53 53 55 56 54 55 56 56 58 59 58 58 57 57 58 57 57 56 56 56 52 51 50 48 46 44 43 42 41 40 39 38 37 37
22 21 22 23 30 36 34 32 36 49 53 53 53 54 53 52 52 55 57 55 56 55 57 58 57 56 55 55 55 55 54 54 54 54 52 50 49 48 46 44 43 42 41 40 39 38 39 38 38
28 27 26 26 28 27 26 31 32 41 50 52 52 53 54 53 53 54 57 56 55 55 57 57 56 55 56 55 53 52 52 51 51 51 50 49 48 45 44 43 41 42 40 39 38 39 38 37 38
30 29 27 28 27 27 28 28 31 38 44 50 52 52 53 55 55 54 55 55 54 55 57 56 56 55 56 56 53 53 51 50 49 49 49 49 47 44 43 41 41 41 40 39 39 39 38 37 37
28 27 27 27 28 29 27 23 28 31 40 43 49 52 52 53 54 54 54 53 53 55 56 56 56 56 56 55 54 50 49 49 47 47 48 48 48 44 42 41 41 41 40 39 38 37 36 34 35
25 29 30 30 25 19 22 15 23 28 35 39 43 49 51 49 51 52 52 51 51 54 56 56 56 56 55 55 53 50 50 48 47 48 47 47 46 44 42 41 41 40 41 39 38 37 37 33 31
27 32 31 31 28 24 24 20 20 29 33 37 39 42 48 47 47 48 50 50 51 54 55 56 56 56 55 55 54 52 50 50 49 47 47 46 45 44 42 41 41 41 40 38 37 36 36 35 33
32 32 29 29 27 23 25 22 21 25 29 33 38 37 41 44 43 44 47 48 51 55 55 56 56 56 56 56 55 53 53 50 48 47 47 45 43 42 41 41 40 37 37 37 36 34 34 33 33
29 25 21 21 23 21 26 25 25 27 27 30 35 38 37 39 39 41 46 49 53 55 56 56 56 56 56 56 56 55 53 51 48 46 46 44 41 41 40 37 40 41 40 39 36 34 33 33 33
30 25 23 15 20 21 26 23 23 29 33 35 32 34 38 36 38 41 46 50 54 55 56 57 57 57 57 57 57 56 54 49 47 47 47 43 41 39 40 43 42 41 40 37 36 36 34 35 34
30 26 27 26 28 26 24 24 22 30 32 37 35 38 38 37 40 43 48 53 55 56 56 57 57 57 57 57 56 54 52 50 47 45 43 41 40 42 43 40 40 41 38 37 38 34 33 34 33
29 31 25 26 20 18 18 19 20 23 27 33 36 36 42 43 46 49 52 55 56 56 57 58 57 57 57 56 54 53 50 47 45 44 42 40 43 43 41 42 41 39 38 37 35 34 34 33 33
29 28 26 27 24 20 19 20 24 23 29 31 33 38 39 47 48 51 53 55 56 56 57 57 57 57 53 52 50 47 44 43 43 42 42 43 43 42 43 40 41 38 37 34 35 34 34 33 33
28 29 27 25 21 25 24 21 23 23 27 33 33 38 41 47 50 51 53 54 55 55 55 55 55 54 51 44 43 43 42 42 43 43 44 44 42 44 41 42 39 37 35 34 34 33 32 32 31

GFSSGP_sfc_dewp_063.txt.gz
Dewpoint
54 41 39 29 21 22 15 15 22 28 41 55 57 55 52 54 51 48 63 64 68 67 66 68 70 70 70 70 70 70 70 69 67 67 67 67 67 66 66 65 65 66 66 67 67 66 64 67 67
44 39 32 25 17 12 8 16 16 42 48 55 55 56 55 57 60 60 61 65 68 67 66 67 69 70 70 70 70 70 69 68 67 67 67 67 67 66 65 65 65 67 68 68 67 66 66 67 66
36 27 29 21 16 8 7 12 31 43 53 53 53 56 57 56 60 60 64 67 68 68 67 67 69 69 70 69 69 68 68 67 66 66 67 67 66 65 65 65 64 65 66 66 67 67 67 66 65
26 21 20 18 14 13 11 16 47 48 49 51 53 53 58 63 64 64 65 68 68 68 67 68 68 69 69 69 69 68 67 66 66 66 66 66 66 66 65 64 64 64 64 63 65 65 63 64 64
24 22 19 15 13 11 22 44 49 48 48 49 50 52 55 62 65 66 66 67 68 68 68 68 67 68 70 69 68 67 67 66 66 66 66 66 66 66 65 65 64 64 64 63 63 62 63 63 63
25 20 17 12 13 14 33 48 49 48 48 50 52 53 56 63 65 66 67 67 67 68 67 67 67 68 67 68 68 67 66 66 66 66 66 66 66 66 65 64 64 64 63 63 63 63 63 62 62
24 22 18 16 16 17 35 50 47 48 46 48 52 51 58 62 64 65 66 66 67 66 66 66 66 66 66 67 66 66 66 66 66 66 66 66 65 65 64 64 64 64 64 63 62 62 62 62 61
24 21 16 16 15 17 42 49 49 45 46 54 56 51 55 61 64 64 65 65 65 65 65 65 64 62 64 65 65 65 65 65 65 65 64 64 64 64 64 63 63 64 64 64 62 62 61 59 59
20 19 16 16 16 21 47 44 48 49 52 55 56 54 59 63 63 63 62 62 62 63 64 64 61 63 63 62 65 65 65 65 64 64 63 62 60 59 58 62 63 63 62 60 57 56 56 56 55
19 18 16 17 17 36 46 43 44 46 52 52 55 59 62 62 61 61 60 58 59 59 61 62 61 61 61 63 64 64 62 61 62 61 61 59 60 60 58 61 62 61 59 57 54 51 50 46 39
18 19 19 16 18 44 46 44 46 44 44 51 53 57 60 59 59 59 58 58 58 57 58 58 59 62 61 61 62 61 60 60 60 60 59 60 60 61 60 59 57 53 51 44 44 43 41 43 41
20 18 18 23 44 45 44 45 43 45 43 52 55 58 57 57 58 58 57 56 56 57 58 57 57 56 63 62 61 60 58 59 59 58 60 61 60 61 61 59 53 50 46 46 44 43 45 43 42
19 27 41 41 44 43 43 40 41 50 55 56 56 58 57 57 58 59 57 57 56 56 57 56 57 63 63 62 61 59 59 58 61 61 61 62 61 61 58 54 50 46 44 43 43 41 40 41 40
39 40 42 43 43 43 39 41 40 51 57 56 56 55 56 57 57 58 57 56 55 55 57 57 59 62 62 61 61 59 59 59 60 60 60 62 61 59 55 51 46 44 43 42 41 40 39 39 39
37 36 35 40 43 39 40 36 38 50 55 53 55 56 56 56 57 55 56 55 54 55 55 57 61 63 62 60 59 58 58 59 58 59 62 62 61 57 55 53 47 43 44 45 43 42 41 39 37
33 28 26 34 39 38 37 32 41 54 54 53 53 54 56 55 55 56 56 56 55 56 57 58 59 62 61 59 59 58 59 61 62 63 62 61 59 56 53 47 46 45 44 43 42 41 39 39 38
25 23 26 24 37 36 36 29 46 54 53 52 53 53 55 54 54 55 56 57 57 57 58 59 61 62 62 60 60 61 62 62 62 62 61 59 57 55 51 47 46 46 44 44 41 41 41 39 38
23 21 23 23 29 37 35 33 47 52 51 51 53 53 54 54 52 53 55 56 57 59 59 60 61 62 61 61 60 61 61 61 61 61 59 57 54 52 49 46 47 45 43 43 42 43 42 41 40
25 25 25 25 29 29 30 30 34 51 51 52 52 53 53 53 53 54 55 56 55 58 59 60 60 60 59 58 58 58 59 59 58 58 56 54 51 51 49 46 45 45 43 43 44 43 42 40 42
29 27 26 27 28 28 28 27 31 47 49 51 51 52 53 53 53 54 55 57 56 56 58 59 59 58 58 58 58 58 58 56 56 55 55 53 51 49 48 46 44 45 43 44 44 44 41 41 41
29 28 27 25 29 29 26 22 30 34 44 48 52 52 52 53 53 54 54 56 56 56 57 58 58 58 58 58 57 54 53 53 53 54 52 50 49 47 46 46 45 45 44 43 44 43 41 38 39
28 29 28 28 28 22 23 16 22 28 34 42 46 51 52 53 54 54 54 55 56 56 58 58 58 58 58 58 57 56 55 53 54 53 50 49 49 46 45 45 46 45 44 44 43 41 41 38 32
28 31 30 30 28 26 24 21 23 28 27 32 39 45 51 52 53 53 54 55 56 57 58 59 58 58 58 58 58 57 56 56 54 52 50 49 49 47 44 45 45 45 44 44 43 41 40 39 38
32 32 28 29 28 25 25 23 22 23 27 31 34 40 45 51 51 52 53 54 54 57 58 59 58 57 57 57 57 56 55 53 52 52 49 48 48 46 45 43 44 45 43 41 40 40 39 39 37
29 27 24 25 25 23 26 25 26 27 28 30 32 38 43 46 50 49 49 51 52 54 57 58 57 57 57 57 57 56 55 54 53 52 50 48 46 45 44 44 43 42 42 42 41 39 37 38 36
29 28 29 16 20 21 25 24 23 29 31 34 37 35 38 42 46 47 47 49 52 54 55 57 57 57 57 57 57 57 55 55 53 50 50 49 46 44 44 43 42 43 43 41 41 38 39 38 38
31 27 28 28 29 28 24 24 22 27 28 34 37 37 38 40 41 43 45 49 51 53 55 57 57 56 57 57 58 58 57 56 53 51 51 49 47 44 43 43 44 43 43 41 40 39 38 38 39
30 31 28 29 22 19 19 20 19 25 25 32 32 37 40 42 41 41 43 48 51 53 54 57 57 56 57 57 58 58 57 56 54 52 50 48 45 43 44 43 43 44 41 41 40 37 37 37 37
30 30 28 27 26 22 21 20 29 26 25 32 33 37 40 43 45 45 47 50 53 55 55 57 57 57 57 58 58 57 57 55 52 51 49 46 45 44 42 44 44 41 41 39 38 37 37 36 36
30 31 30 30 24 27 26 23 27 29 28 30 34 36 41 43 46 48 51 54 55 56 56 57 57 57 58 58 57 56 53 50 49 47 45 46 44 45 45 42 41 41 39 39 37 36 35 36 35

GFSSGP_sfc_dewp_066.txt.gz
Dewpoint
53 36 31 29 17 12 10 11 13 14 38 40 42 43 47 54 49 47 62 63 65 65 64 68 70 71 71 71 71 71 70 70 68 67 67 67 67 67 66 67 67 67 66 66 66 67 67 65 65
34 33 33 25 13 9 8 12 17 30 39 52 52 51 46 48 57 59 62 63 66 64 62 64 70 70 70 70 70 70 69 68 68 67 67 67 67 66 67 67 68 69 68 66 66 68 66 64 65
33 31 25 19 13 8 9 15 23 37 48 50 50 54 52 54 59 59 62 65 66 64 61 64 69 70 70 70 69 69 68 67 67 67 67 66 66 67 67 68 68 69 69 68 67 67 64 65 66
27 21 22 13 12 10 14 18 33 44 48 50 51 48 58 61 61 61 63 67 67 65 62 68 68 69 70 69 69 68 67 66 67 67 67 66 66 66 66 66 66 68 69 68 67 65 64 65 65
24 20 14 12 10 12 17 35 44 46 46 47 48 50 54 62 64 64 64 67 68 67 67 68 68 68 69 69 68 67 66 66 66 66 66 66 66 66 66 65 66 66 67 66 64 63 64 64 64
20 20 13 10 10 18 20 42 44 47 47 48 49 50 55 62 64 65 66 66 68 68 67 68 68 68 68 68 67 66 66 66 66 66 66 66 66 66 66 65 65 65 65 64 64 63 63 63 62
19 19 13 11 16 19 28 48 46 46 45 46 50 48 55 62 65 66 67 66 67 67 67 67 66 67 67 66 66 66 66 66 66 66 66 65 65 65 65 64 64 64 64 64 64 63 63 62 61
19 18 14 12 15 18 36 44 46 45 44 52 52 47 52 61 64 66 66 66 66 66 66 64 63 63 61 61 64 65 65 66 65 65 64 64 64 64 64 64 64 64 63 63 61 61 61 59 59
22 17 14 13 16 18 39 40 47 47 48 50 53 52 56 63 64 63 63 63 64 64 62 61 62 61 61 61 64 65 65 65 64 63 63 59 55 55 56 62 64 64 62 61 59 59 57 56 53
20 17 14 15 16 18 34 39 43 45 47 47 52 57 61 63 62 60 61 60 61 61 60 61 61 61 60 59 59 62 62 59 58 56 57 53 57 55 56 61 62 61 59 57 54 53 53 52 44
22 18 20 20 19 20 31 40 43 40 39 43 49 56 60 61 61 60 59 59 59 60 61 61 61 59 59 59 62 62 59 60 58 57 54 57 58 58 57 57 54 53 54 45 46 47 46 47 45
23 23 23 22 34 33 33 42 39 41 43 50 52 56 58 57 59 59 59 57 58 58 58 59 59 59 59 60 62 63 58 58 57 55 58 58 57 59 58 56 55 53 49 50 49 47 48 46 44
25 29 36 35 39 40 42 38 38 45 52 53 55 56 56 57 58 58 57 57 57 57 57 58 59 59 59 60 60 57 57 56 55 56 57 56 57 58 57 56 53 51 50 48 48 46 43 43 40
36 37 36 37 39 40 37 38 39 48 54 53 54 55 56 57 57 57 57 57 57 57 56 56 57 57 58 61 59 56 55 56 56 56 58 60 58 59 57 56 52 49 48 47 45 43 41 39 38
37 34 37 39 39 35 38 34 34 44 53 52 53 55 54 55 57 56 57 55 55 54 55 53 56 60 59 61 58 54 53 53 53 53 60 61 61 61 58 54 50 49 49 49 45 43 41 37 35
29 28 21 32 37 37 39 27 34 47 51 51 51 52 52 52 55 54 55 54 54 51 51 53 55 60 62 60 57 53 54 55 55 58 61 63 63 61 59 55 52 49 48 45 43 42 38 37 36
24 18 21 23 32 32 34 27 37 48 49 50 51 50 52 52 52 53 54 52 52 52 51 54 59 61 63 62 59 58 58 56 58 62 62 63 62 61 58 53 51 50 46 46 43 41 40 39 37
19 19 21 22 27 32 29 28 30 45 48 48 50 49 50 51 52 53 54 53 52 55 55 57 58 61 62 63 60 56 56 56 60 62 63 62 61 59 56 52 51 48 47 46 43 43 41 41 42
21 21 20 22 26 27 26 26 26 41 47 46 49 49 50 52 50 53 54 55 53 55 55 57 58 60 61 60 56 54 55 58 60 62 62 61 59 58 56 51 50 49 47 45 47 44 44 42 43
25 23 23 24 26 28 26 24 28 37 45 44 46 48 50 50 51 50 52 54 56 56 57 57 58 60 61 58 56 54 55 56 59 61 61 60 58 56 53 52 50 49 46 47 46 45 42 42 42
26 25 24 23 25 28 27 23 25 30 41 45 45 46 48 49 50 52 51 53 55 55 57 57 58 59 60 58 55 55 57 58 58 60 60 59 56 54 52 51 50 49 46 45 46 46 44 41 41
24 26 26 25 26 20 26 14 19 25 31 39 44 47 47 49 50 50 52 53 55 55 55 57 58 59 60 59 56 55 54 54 56 59 58 55 54 52 49 50 50 49 46 46 46 44 44 41 39
25 30 28 28 28 26 24 18 19 25 23 27 36 43 47 48 50 49 50 52 53 55 56 56 57 58 60 60 59 57 57 56 58 58 57 55 53 51 48 49 49 48 47 48 46 46 43 41 39
32 31 30 30 28 23 23 22 16 17 21 25 28 32 41 48 49 49 50 51 52 57 58 58 57 57 59 61 61 60 59 59 58 57 56 54 53 48 48 46 48 48 47 47 45 44 42 43 38
30 29 25 26 24 22 25 21 19 21 26 28 30 35 37 40 48 50 49 51 51 54 58 58 58 56 59 60 60 61 60 60 58 57 55 53 52 50 49 49 48 47 47 46 43 43 42 41 39
29 28 26 17 19 19 24 17 17 25 26 30 35 37 37 40 42 47 50 51 52 53 56 58 57 57 58 59 60 60 60 59 59 56 55 53 51 52 51 49 48 47 45 44 43 43 41 41 40
30 27 28 27 31 28 19 19 21 22 25 30 26 33 37 37 41 44 47 51 52 54 55 57 56 56 57 59 60 59 59 58 57 57 55 53 53 51 50 49 47 46 45 44 44 43 40 40 40
30 29 27 29 21 18 17 19 16 19 20 24 24 28 36 42 40 40 42 47 50 52 54 57 56 55 55 58 59 59 59 59 58 57 54 53 54 51 49 48 46 44 45 44 41 41 40 40 39
30 28 28 26 26 22 19 18 22 20 21 25 26 30 33 38 42 43 42 43 47 50 53 54 55 54 55 56 58 59 58 58 58 57 55 54 53 49 47 46 45 46 43 43 42 39 39 37 36
28 27 29 26 23 28 29 22 23 25 28 28 29 34 34 39 42 45 46 47 48 50 51 52 54 54 55 56 57 58 58 57 54 53 51 50 48 46 45 46 44 44 41 41 41 41 37 36 34

GFSSGP_sfc_dewp_069.txt.gz
Dewpoint
55 45 29 24 19 15 9 8 11 11 16 44 31 28 25 35 51 48 62 63 63 63 64 69 71 71 71 71 71 71 71 70 69 68 68 68 67 68 68 68 68 69 69 68 67 64 64 64 64
38 26 26 23 16 8 8 12 11 16 28 51 46 43 33 33 57 60 62 62 64 62 63 68 70 71 71 71 71 70 70 69 68 68 68 67 67 68 68 68 68 68 69 67 66 64 64 64 65
35 26 25 21 15 10 9 15 15 20 38 40 44 47 40 41 56 57 61 64 65 63 62 68 70 70 70 70 70 69 68 68 67 67 68 67 68 68 69 70 69 68 68 68 65 64 64 65 66
26 22 19 13 10 11 12 19 28 32 41 43 45 45 55 59 60 60 62 65 66 64 64 68 69 70 70 70 69 68 67 67 67 67 67 68 68 69 69 69 69 68 68 67 63 64 64 65 65
23 20 14 12 10 10 20 26 37 38 39 42 44 44 52 58 62 63 63 67 66 65 66 68 68 69 69 70 68 67 67 67 67 66 67 67 67 67 67 68 68 68 68 66 64 64 64 64 64
20 19 13 10 11 15 24 32 36 39 41 44 43 45 52 61 63 64 64 67 67 67 67 68 69 69 68 68 67 66 67 67 66 66 66 66 66 66 66 67 67 67 66 65 65 64 63 63 61
19 17 14 11 10 15 25 39 37 38 39 41 44 42 52 59 64 65 65 67 66 66 67 67 68 67 66 66 66 66 66 66 66 66 66 66 65 65 65 65 66 65 64 64 64 63 62 61 60
16 16 13 11 10 17 28 29 42 41 40 48 48 42 46 61 65 66 67 66 62 66 66 65 63 65 64 64 65 65 66 66 66 65 65 64 64 64 64 64 64 64 64 63 62 62 61 59 58
18 15 12 14 12 20 25 27 40 45 43 46 49 50 57 63 64 63 64 64 63 63 63 60 60 61 62 62 63 65 65 65 64 63 63 60 54 55 56 63 63 63 63 62 61 60 58 57 54
18 16 16 14 15 16 20 27 35 38 38 39 48 55 60 62 62 61 61 61 60 60 60 59 58 58 58 59 61 63 63 60 59 58 58 54 58 55 56 61 62 62 61 59 59 58 57 55 44
19 15 16 16 19 22 19 26 37 35 33 43 44 54 57 59 60 59 60 60 59 60 59 59 58 57 57 60 62 61 62 58 59 59 57 58 58 59 58 57 55 55 56 49 48 48 48 50 48
19 20 21 21 22 30 26 36 36 36 41 46 51 54 56 58 59 59 57 58 59 59 59 59 59 59 59 61 60 61 59 57 57 58 61 61 59 58 57 54 55 53 51 51 51 50 51 49 45
22 25 28 29 31 31 34 34 36 35 45 50 51 54 54 56 57 59 58 58 58 58 58 58 58 58 57 58 58 57 57 57 59 58 61 59 58 60 56 56 54 52 52 52 52 50 46 46 43
31 30 30 31 30 32 33 32 35 44 46 49 49 52 53 56 57 57 57 57 56 57 57 57 58 59 58 57 53 52 57 54 57 58 58 61 59 61 57 57 54 53 52 51 50 48 46 43 41
28 27 34 37 30 29 30 31 32 44 46 48 49 51 50 54 56 55 56 56 56 57 57 57 57 57 56 56 57 56 56 55 53 53 60 59 58 59 58 56 54 52 52 53 50 48 45 42 37
23 25 21 39 35 30 29 36 43 43 46 46 48 48 48 48 53 55 56 56 57 55 55 55 54 55 57 58 57 56 53 55 53 53 56 59 60 61 59 56 55 54 52 51 48 47 44 40 38
21 17 24 25 27 26 28 28 35 40 44 44 46 47 46 48 49 53 53 53 52 54 53 53 54 56 60 60 57 56 58 53 51 55 59 62 63 62 60 57 56 54 51 50 48 46 44 40 38
17 18 17 19 26 26 25 27 30 36 41 44 44 45 45 47 48 50 51 51 48 52 52 53 57 60 61 62 59 55 54 53 54 57 59 62 62 61 60 57 55 53 50 50 48 47 43 42 41
20 19 19 21 23 23 25 26 25 36 40 43 45 45 47 47 48 51 51 51 49 52 51 53 56 59 60 58 55 52 50 51 53 58 61 62 61 61 60 56 54 53 51 51 49 46 46 43 44
21 21 22 23 23 24 23 21 21 33 40 41 43 46 46 48 48 51 52 51 52 53 54 53 53 56 57 55 53 50 50 50 52 60 62 62 61 60 58 56 54 53 51 51 50 47 44 45 44
24 24 25 22 24 23 21 19 21 28 37 38 39 42 45 48 45 48 50 53 52 52 54 53 54 54 56 55 53 52 52 52 53 58 60 60 60 59 58 56 54 54 52 50 49 48 47 44 44
23 24 24 24 23 26 26 19 23 21 28 37 37 41 43 46 46 47 48 50 53 54 55 55 55 54 56 58 54 54 50 50 52 56 59 58 59 58 56 55 54 55 53 51 49 47 48 47 44
24 27 25 26 26 24 20 14 20 17 18 26 35 39 41 44 45 46 48 48 50 53 55 56 55 55 55 59 57 54 54 53 54 57 59 60 58 57 56 54 54 55 52 52 52 50 48 45 44
26 26 28 28 27 24 22 19 20 20 17 21 26 34 39 41 43 43 45 48 49 56 57 55 55 55 56 58 59 58 57 56 53 59 58 58 57 56 55 54 54 54 51 51 50 49 48 46 44
28 28 26 26 25 23 22 19 18 19 22 23 25 30 33 39 43 45 43 44 47 51 55 56 55 54 56 58 59 60 59 58 58 59 57 58 56 55 55 54 53 53 51 51 49 49 46 45 44
26 26 27 23 24 22 20 13 16 19 19 21 25 30 35 37 38 44 45 46 46 49 53 56 55 55 54 57 60 61 60 59 61 60 59 58 56 56 54 53 53 53 52 51 50 45 46 44 44
26 26 26 26 26 27 20 18 19 17 18 23 21 25 31 36 38 38 44 47 49 50 53 58 56 55 55 57 60 60 61 60 60 61 59 58 57 55 55 53 52 52 50 48 46 45 44 44 44
27 28 26 26 22 23 17 17 16 18 20 20 21 23 29 38 37 40 40 45 48 50 52 57 56 54 54 57 59 59 60 60 60 59 58 57 56 54 54 54 53 50 46 46 45 44 44 42 43
25 28 27 25 25 25 21 17 23 19 19 20 23 24 26 30 39 39 40 43 47 50 52 55 56 55 53 55 59 60 59 59 59 59 58 57 56 55 53 50 47 45 45 44 44 42 41 41 41
25 26 26 27 23 26 27 23 23 23 23 25 24 26 27 30 34 40 42 42 44 47 50 53 55 55 54 54 56 59 59 59 59 58 54 52 47 47 46 46 45 44 44 43 41 41 42 41 41

GFSSGP_sfc_dewp_072.txt.gz
Dewpoint
53 44 41 32 20 19 15 11 10 12 17 39 32 36 37 32 43 46 59 62 62 62 69 70 71 71 71 71 71 71 71 70 69 69 69 68 69 69 69 70 69 69 68 65 64 64 63 63 63
42 42 33 22 19 16 11 16 14 13 38 38 33 29 31 40 52 54 59 61 61 67 68 70 70 71 71 71 71 71 70 69 69 69 68 68 69 69 69 69 69 69 68 64 64 64 64 63 64
48 37 24 23 21 15 13 16 20 22 40 41 38 37 44 49 54 55 60 64 67 65 66 70 70 70 70 70 70 70 69 68 68 68 68 68 68 69 69 68 69 68 67 64 64 64 64 64 65
30 26 21 17 10 9 13 19 34 34 42 42 45 49 52 58 56 60 64 65 66 65 67 69 69 69 70 70 70 69 68 67 67 67 68 68 69 70 70 69 68 69 66 64 64 64 64 64 63
29 22 17 14 12 15 13 24 42 42 44 47 47 51 52 52 57 62 65 66 66 66 68 69 68 69 69 69 69 68 67 67 67 67 68 69 69 70 69 69 68 67 66 65 64 63 63 63 62
23 20 15 11 15 16 20 28 30 31 37 47 51 50 47 50 62 64 66 67 67 66 66 68 68 68 68 68 67 67 67 67 67 67 67 68 68 68 69 69 68 66 66 66 65 64 63 62 61
20 18 14 12 10 16 31 38 36 32 39 49 50 46 56 58 64 66 66 67 66 66 63 63 65 67 67 66 66 66 66 66 66 66 66 66 66 67 67 67 66 66 65 65 64 63 62 61 59
18 14 12 13 18 13 32 35 37 39 40 43 46 48 52 56 64 66 66 63 65 66 65 63 65 64 65 65 66 66 66 66 65 65 65 64 64 65 65 65 65 64 64 63 62 62 61 59 57
14 14 13 19 18 18 21 21 44 41 37 40 46 57 61 62 64 64 62 62 62 61 63 64 63 63 63 63 65 65 65 65 64 63 62 61 60 61 60 63 64 64 63 63 61 60 59 56 55
16 15 17 21 15 14 17 16 42 42 44 47 48 57 60 62 62 60 60 59 59 58 59 61 60 60 60 62 63 64 63 61 60 59 59 56 58 59 60 62 63 63 62 62 61 60 58 55 46
19 16 16 14 17 18 20 21 34 35 42 45 45 54 58 60 59 59 59 58 58 58 58 59 58 58 58 57 58 59 62 60 60 60 57 60 59 59 59 58 57 57 57 52 55 54 51 52 50
18 16 18 21 22 21 20 25 31 31 43 47 51 55 57 58 58 58 58 58 57 57 57 57 58 59 59 58 60 61 60 58 58 59 59 61 60 59 58 56 56 55 54 52 51 55 53 48 46
19 20 23 22 23 24 22 25 27 30 44 48 51 52 54 57 58 58 58 59 58 57 57 57 58 59 59 59 59 60 60 58 58 59 60 61 60 59 58 57 56 54 54 54 55 52 49 48 45
22 27 25 33 34 32 28 26 35 41 43 47 49 50 55 56 57 57 56 56 57 56 56 57 57 57 56 56 56 57 57 58 60 60 60 61 61 61 60 59 57 56 55 55 54 52 49 48 44
23 22 26 38 34 30 34 26 40 46 49 46 47 50 53 55 56 56 56 55 55 55 55 55 55 56 55 54 55 56 55 54 56 58 59 60 60 60 60 60 58 56 56 56 54 52 50 46 42
24 21 21 33 36 34 34 28 44 48 46 47 46 48 48 51 54 55 56 56 56 55 55 56 54 53 54 54 54 54 53 54 55 58 59 60 61 60 60 59 57 57 56 54 52 51 48 47 43
20 19 20 27 35 31 27 25 41 46 45 44 46 47 44 50 53 54 55 55 56 56 55 55 55 54 54 55 54 55 57 56 56 57 58 60 61 61 60 58 57 56 55 54 52 51 49 45 43
22 20 23 20 26 27 25 24 33 41 47 40 46 47 46 46 50 54 54 54 54 55 55 55 54 55 56 56 59 58 56 55 55 59 60 62 62 62 61 58 58 56 55 53 51 50 48 46 45
21 19 17 26 26 24 22 25 29 32 34 39 42 42 43 45 50 50 51 55 54 55 54 53 53 55 58 58 57 55 55 55 56 57 60 62 62 62 61 60 58 56 54 52 53 50 47 45 45
18 19 18 22 24 22 21 26 25 29 36 38 42 42 45 45 47 49 49 51 52 53 52 53 54 58 59 59 57 55 53 54 53 57 61 62 62 62 61 60 56 55 54 55 51 49 47 48 48
21 22 22 23 23 25 26 23 20 26 33 36 42 44 47 46 47 49 50 49 51 52 52 52 55 58 58 58 55 54 53 54 53 60 61 62 62 61 60 60 57 56 56 54 52 51 49 47 47
23 23 23 21 22 22 29 23 23 23 27 34 39 45 42 44 48 49 50 51 51 51 53 54 54 56 57 57 54 53 51 50 53 59 60 61 61 60 59 59 58 57 56 54 52 51 49 49 46
23 24 26 25 24 24 27 26 20 23 23 30 35 42 44 46 47 49 49 51 52 53 55 56 55 54 54 56 57 55 54 53 54 55 60 60 60 60 58 58 57 57 56 55 52 50 50 50 44
24 25 26 26 26 25 23 22 22 25 21 23 31 37 42 47 47 46 48 50 52 55 56 57 56 55 56 58 57 59 56 56 55 60 59 59 59 59 59 57 57 56 55 53 53 51 51 45 44
25 26 26 28 27 26 28 23 21 30 26 22 26 34 40 43 46 47 47 47 48 52 55 57 56 55 56 59 58 59 59 57 57 59 58 59 58 57 57 56 56 56 55 53 53 52 49 44 42
25 26 30 29 29 26 28 18 11 21 21 22 24 29 36 38 44 44 44 49 49 51 55 56 55 55 56 58 59 60 59 59 58 59 59 58 58 56 56 56 55 54 54 53 53 49 47 45 45
26 25 27 29 32 32 24 22 19 19 19 19 22 27 34 38 40 42 45 46 49 51 54 56 55 55 55 57 59 60 60 60 60 61 61 60 58 57 56 55 54 53 53 50 48 47 45 45 44
24 26 26 27 27 24 18 19 26 23 20 22 21 27 33 40 41 41 42 48 47 49 53 57 56 55 55 56 58 59 60 61 61 62 60 59 58 56 56 53 53 49 48 47 46 45 44 44 44
22 24 30 26 26 26 27 23 28 25 21 23 24 28 32 37 40 41 43 45 49 50 52 55 57 56 56 56 58 60 61 61 60 59 59 58 57 55 53 49 47 46 45 44 44 43 43 42 42
23 25 28 29 24 30 34 27 28 29 30 28 28 28 31 33 36 41 43 44 45 51 53 54 56 56 56 56 59 60 60 59 59 58 56 54 53 50 48 46 45 44 44 44 43 42 42 41 41

GFSSGP_sfc_dewp_075.txt.gz
Dewpoint
55 52 46 38 26 21 18 17 16 17 33 40 36 32 38 45 45 41 59 63 64 63 62 67 70 71 71 71 71 71 70 70 70 70 69 69 70 70 70 70 69 67 66 64 63 63 63 63 64
48 42 41 34 19 18 18 17 17 38 41 43 43 46 46 46 52 54 58 61 61 61 63 66 69 70 71 71 71 70 70 70 69 69 69 69 70 70 70 69 67 67 66 63 62 62 63 63 64
52 46 33 23 22 20 18 21 31 38 43 42 43 48 49 54 56 55 59 60 61 59 61 63 69 70 70 70 70 69 69 69 68 68 69 69 70 70 70 68 66 66 66 63 62 62 63 63 63
33 30 27 17 16 17 17 31 35 34 45 50 46 47 49 54 52 60 63 63 60 62 67 66 68 69 70 70 70 69 69 68 67 68 69 69 69 69 69 68 66 66 66 63 62 62 62 63 62
35 29 20 18 17 17 20 34 40 42 47 49 45 46 47 53 53 62 64 67 66 66 67 69 68 69 70 70 69 68 68 67 67 68 68 69 69 69 69 67 66 66 66 64 62 61 62 62 61
26 24 19 17 16 16 30 33 31 44 47 48 46 48 50 55 52 58 66 66 65 65 66 66 68 68 68 69 68 67 67 67 67 68 69 69 69 68 69 67 66 66 66 65 64 63 62 61 60
24 21 17 14 12 24 29 34 35 39 46 47 49 49 54 51 57 64 66 65 64 64 65 65 63 65 67 67 67 66 67 67 67 67 68 68 68 68 67 66 66 66 65 64 63 62 61 60 59
24 18 12 11 19 19 31 34 39 38 38 49 52 49 50 52 58 64 64 64 64 63 62 64 65 64 65 66 66 66 66 66 66 66 66 66 66 66 66 65 65 65 64 63 62 61 60 58 56
24 12 11 16 19 17 31 24 43 41 38 48 51 50 54 62 63 61 61 61 61 63 63 63 63 63 63 64 65 65 65 65 64 64 64 63 63 62 62 64 64 64 63 63 62 60 58 57 54
19 15 15 18 21 20 22 21 40 41 43 45 49 51 60 62 61 60 59 59 60 60 61 62 62 62 62 63 64 63 62 60 60 59 58 59 60 61 62 63 63 63 63 62 61 60 58 51 44
21 17 18 16 23 22 21 20 37 39 42 47 45 52 60 59 59 58 59 58 58 59 59 59 60 60 61 61 61 62 62 58 58 58 57 59 60 60 60 59 59 59 60 57 57 54 50 49 46
20 19 17 18 31 31 28 23 27 49 48 50 54 59 59 58 58 58 57 57 56 56 58 57 57 58 58 59 59 60 60 58 58 57 59 58 58 56 56 55 54 53 52 51 50 52 48 44 42
23 23 23 32 31 31 33 25 30 47 49 53 56 57 58 58 58 58 58 57 56 55 57 57 57 56 56 56 57 56 60 58 58 60 61 60 58 56 56 55 55 53 51 51 52 49 47 44 42
23 24 26 33 31 33 32 33 36 42 47 52 56 55 57 56 56 57 57 57 56 56 56 57 57 58 58 58 57 58 57 58 60 60 60 60 59 58 57 56 54 53 51 53 51 49 47 45 40
27 25 25 34 33 31 32 31 36 44 46 48 49 55 55 56 55 55 56 55 56 56 56 55 56 57 57 56 55 55 53 55 56 58 58 59 60 58 59 57 56 55 53 54 51 49 48 44 42
25 24 22 23 34 33 33 30 40 47 44 49 52 53 53 52 55 55 55 55 55 54 54 55 55 54 55 53 52 51 49 52 52 55 56 58 59 59 59 57 57 55 55 53 52 50 47 45 39
26 22 20 21 33 34 33 31 40 47 46 47 48 49 51 53 53 55 54 54 54 55 55 54 53 52 52 52 50 50 50 53 51 54 57 58 59 59 58 58 56 55 53 52 51 49 47 43 42
24 23 23 23 32 34 31 32 40 45 45 47 48 47 51 52 53 54 54 54 54 54 54 52 51 52 53 53 53 53 54 53 52 55 56 59 59 60 59 57 55 54 53 52 51 49 48 44 42
26 24 19 21 26 27 26 25 34 43 46 47 47 47 50 51 53 54 54 54 55 54 54 53 51 52 54 54 53 54 55 55 54 55 57 60 61 61 60 58 56 56 53 52 50 50 46 44 44
25 19 20 20 28 27 21 22 27 34 44 44 47 46 48 51 53 53 53 53 54 54 53 53 52 52 53 53 53 54 55 54 54 56 60 60 61 61 60 59 58 55 54 51 51 47 45 44 45
22 21 22 24 24 26 26 25 25 31 37 41 43 44 47 48 51 52 53 52 53 53 52 51 51 52 53 54 56 55 53 53 53 54 58 60 61 61 60 60 57 55 54 53 51 47 45 44 46
22 25 25 26 23 22 27 24 27 27 33 37 42 44 45 48 48 51 52 52 52 52 52 51 51 52 53 57 57 55 52 51 51 55 57 60 61 61 61 60 58 55 54 54 51 49 48 46 45
24 29 30 29 26 25 28 28 28 26 29 34 43 45 46 46 48 47 49 50 48 49 50 51 51 52 57 58 57 55 52 51 52 58 59 59 60 60 60 60 58 56 55 55 53 50 49 50 47
27 27 27 29 26 25 26 29 25 23 24 30 40 44 46 45 48 49 48 49 47 49 50 51 51 53 57 57 57 55 53 51 51 56 59 59 60 60 59 59 58 57 56 56 55 53 51 49 47
25 26 26 27 25 25 29 28 27 29 30 29 34 44 43 44 47 48 49 49 49 49 49 50 52 53 56 56 56 55 55 54 51 55 58 58 58 58 58 57 56 55 55 55 54 53 51 46 46
24 26 30 26 27 29 32 26 21 30 30 25 25 40 44 45 45 48 49 50 50 50 51 52 53 53 54 56 55 58 54 54 55 57 58 58 58 58 57 56 55 54 54 54 53 50 48 47 46
28 26 29 33 33 31 30 26 26 24 20 23 23 26 39 46 47 45 48 49 50 51 51 52 55 54 54 57 57 57 58 56 55 56 58 59 58 57 56 56 54 53 53 51 49 47 47 46 45
24 29 26 29 27 26 25 25 26 25 27 23 20 29 31 34 39 45 46 48 48 50 52 54 54 55 55 54 58 58 57 58 59 58 58 58 58 56 55 55 53 51 49 48 47 46 45 44 44
25 24 27 30 31 24 22 25 29 28 26 21 24 29 31 34 36 37 41 45 49 48 50 53 55 54 54 54 56 58 59 59 60 59 58 57 56 55 54 51 51 48 46 46 45 44 44 43 43
23 25 28 31 27 29 28 25 27 25 25 25 24 26 29 37 37 37 38 43 49 51 52 53 55 57 58 57 57 57 59 59 59 58 58 56 54 53 51 50 48 46 45 45 44 44 43 43 42

GFSSGP_sfc_dewp_078.txt.gz
Dewpoint
55 52 45 36 21 22 19 18 20 23 36 41 40 42 38 46 46 41 57 60 63 63 66 68 70 71 71 71 71 71 71 71 70 70 70 70 70 70 69 68 67 66 66 64 65 65 65 65 65
49 43 41 33 19 17 17 20 36 39 41 44 46 47 49 46 52 55 55 60 63 63 64 67 69 69 70 70 70 70 70 70 70 70 70 70 70 69 68 67 66 66 65 64 64 64 64 62 63
46 46 34 27 21 19 18 21 35 43 46 42 42 49 47 53 54 55 57 59 62 63 63 68 68 67 70 71 70 70 69 69 69 69 70 70 70 69 68 67 66 65 65 63 63 63 62 62 63
32 30 27 19 17 18 21 20 26 42 44 47 46 43 48 53 53 55 61 58 60 61 62 66 68 69 69 70 70 69 69 68 68 68 69 70 69 68 67 66 66 65 64 62 62 61 62 62 63
35 27 20 20 18 18 19 24 37 42 45 49 46 44 47 53 51 59 65 61 61 64 65 63 67 68 69 70 70 69 68 68 68 69 69 69 69 67 67 66 66 65 64 62 61 61 62 61 62
31 25 20 18 18 18 25 33 41 45 47 48 45 49 51 54 55 61 65 65 66 65 66 65 66 66 68 69 69 67 67 67 68 68 68 69 68 67 67 66 66 65 65 64 63 62 61 61 60
28 22 20 18 17 16 25 35 36 45 46 47 50 48 50 51 57 63 64 64 64 65 65 65 65 64 64 68 67 67 67 67 67 68 67 68 67 66 66 66 66 65 64 63 62 61 60 60 59
25 23 20 18 14 15 24 33 39 42 45 51 50 46 44 50 63 63 63 63 62 63 63 64 63 62 63 67 66 66 67 67 67 67 67 67 66 66 66 65 65 64 63 63 61 60 59 58 57
23 20 18 17 12 18 29 24 41 40 47 48 51 50 52 62 62 61 61 61 62 63 63 63 62 62 62 63 65 65 66 66 66 66 66 65 65 64 63 64 64 63 63 62 61 60 58 54 56
22 17 18 17 16 20 24 21 38 41 44 47 49 52 57 61 61 60 59 60 60 61 61 62 62 62 61 61 61 62 62 63 63 63 62 62 62 62 62 63 63 63 62 62 60 59 56 51 44
21 20 20 20 21 25 29 29 40 41 43 46 45 52 60 59 59 59 59 58 58 60 61 62 61 61 60 59 60 62 61 59 59 59 60 61 62 61 61 60 60 59 59 57 55 50 49 46 42
19 19 19 19 30 31 30 33 48 48 47 52 53 59 59 57 58 58 57 57 57 58 59 61 61 60 60 59 58 61 60 59 58 60 59 59 58 57 57 56 56 54 54 52 50 50 45 42 40
20 22 24 26 30 29 32 34 47 48 54 52 57 57 58 57 57 58 57 57 57 56 56 58 59 59 59 58 58 59 58 57 58 59 59 58 56 55 54 53 53 52 51 50 52 47 44 41 40
27 26 26 29 30 31 32 36 42 51 53 50 50 53 56 56 57 58 57 55 56 56 56 56 57 57 58 57 56 56 57 58 59 59 59 57 56 55 53 53 52 52 50 52 50 47 45 42 38
28 25 25 25 30 31 31 29 37 49 49 49 51 55 55 54 56 56 56 55 56 56 56 56 57 57 56 55 56 58 57 58 59 58 59 57 57 57 54 53 53 53 51 53 50 48 47 42 40
27 25 22 23 29 33 29 26 42 48 48 47 53 54 52 52 55 56 56 56 56 56 55 56 57 57 56 54 54 53 54 56 56 57 58 58 58 58 56 54 54 54 53 53 50 49 47 44 41
27 23 24 24 25 32 30 28 41 48 49 51 52 52 51 52 54 55 55 54 55 55 55 55 56 55 54 53 53 52 51 51 52 56 56 58 59 58 58 56 56 55 54 53 51 49 47 44 40
24 24 24 24 26 32 31 30 42 45 45 48 49 50 50 50 51 54 54 54 54 54 54 54 54 53 53 54 54 51 53 52 51 53 55 56 58 58 58 57 55 54 53 52 50 48 48 44 42
26 25 25 25 24 32 31 31 31 44 45 45 48 50 50 50 52 53 53 53 53 54 53 52 52 52 53 53 50 48 47 52 52 52 54 57 57 59 58 57 54 54 52 51 50 49 47 45 43
26 25 24 23 24 27 24 21 27 44 45 45 47 49 49 51 52 53 53 52 52 53 53 51 50 51 51 51 49 48 51 54 53 53 54 57 58 59 58 56 55 55 53 51 51 49 46 45 45
26 25 24 20 24 25 26 23 25 36 42 46 47 48 49 51 51 52 52 52 52 51 53 52 50 50 51 51 50 54 54 54 53 53 54 57 59 60 59 58 57 56 54 52 50 49 46 44 45
24 26 26 26 26 22 26 22 27 30 38 44 45 46 49 50 52 52 52 52 52 53 53 53 51 50 51 52 51 51 51 49 51 51 53 58 59 59 60 59 58 56 55 53 51 49 47 46 45
26 28 27 28 26 25 26 25 26 29 34 41 45 46 48 50 51 52 52 52 52 53 53 52 51 51 50 52 51 52 53 53 53 53 54 58 59 59 60 60 59 57 55 54 54 52 50 50 49
27 27 28 29 27 23 25 27 26 27 27 38 42 45 47 49 51 51 52 51 51 52 52 51 50 50 51 51 53 55 55 54 52 52 54 56 58 59 60 60 59 58 56 55 54 52 51 51 49
26 25 24 23 24 23 30 28 26 29 28 34 42 44 47 48 49 51 51 51 50 50 50 50 50 50 51 53 55 56 57 55 52 52 53 55 57 58 59 60 59 58 56 55 55 53 53 51 49
25 25 26 22 24 28 32 27 25 27 30 30 36 44 45 47 48 48 50 50 47 47 48 49 49 49 51 52 57 58 57 56 54 52 55 56 57 58 59 59 59 56 55 54 54 51 48 48 48
25 26 29 30 32 28 30 30 26 24 24 26 32 43 45 45 47 48 48 49 50 45 47 49 49 50 51 52 56 57 58 55 54 53 54 58 58 58 58 58 56 55 53 52 50 49 48 48 47
26 29 27 31 27 25 27 27 25 26 23 24 29 40 44 44 46 47 49 49 50 50 49 51 50 50 51 53 55 56 57 57 55 56 56 57 58 57 57 56 55 54 52 50 49 48 47 46 46
26 26 28 29 31 26 23 24 30 29 28 23 24 32 39 44 45 46 47 49 50 50 51 52 52 52 54 55 56 56 56 57 57 56 57 56 56 57 56 55 54 52 51 49 47 47 46 45 44
23 24 26 28 26 29 27 24 28 30 27 24 24 29 31 36 41 45 47 47 49 51 52 52 53 54 55 56 56 57 58 57 57 58 57 57 56 56 56 53 53 51 49 47 45 44 44 44 44

GFSSGP_sfc_dewp_081.txt.gz
Dewpoint
53 52 43 33 19 22 22 19 20 23 36 40 41 42 39 47 44 38 56 58 63 63 66 70 70 71 71 71 71 71 71 71 70 70 70 70 69 69 68 67 67 67 67 66 65 65 65 65 65
49 43 38 28 19 16 16 19 28 37 41 44 45 46 49 49 52 53 53 59 63 63 65 70 70 70 70 70 70 70 71 70 70 70 70 70 69 68 68 67 66 67 67 66 66 65 64 64 65
45 42 31 26 20 18 18 20 25 39 46 44 41 48 47 53 53 55 56 59 62 63 63 68 69 69 69 69 70 70 70 70 70 70 70 69 68 68 67 66 66 67 67 65 63 62 63 64 63
32 30 25 20 18 19 21 20 20 36 43 47 45 44 48 53 52 54 58 62 62 63 62 67 68 67 67 68 69 70 69 69 69 69 70 69 68 67 67 65 65 66 66 63 61 62 63 64 63
34 27 21 20 18 19 20 19 22 37 42 47 46 43 46 53 53 62 65 64 61 61 62 63 67 66 67 68 70 69 69 68 69 69 69 68 67 67 66 65 65 65 65 63 61 63 65 63 61
28 24 20 18 18 19 19 26 40 43 45 47 44 47 49 54 58 63 64 64 63 63 63 64 66 67 67 68 68 68 68 68 68 69 68 67 67 67 66 65 65 64 64 63 62 62 63 62 61
26 23 22 19 19 19 18 34 41 44 45 44 49 45 49 54 60 64 64 63 65 65 63 63 64 64 64 66 66 67 67 67 68 68 67 66 66 66 66 65 65 63 62 61 61 60 62 62 61
25 24 27 20 18 15 16 32 39 43 43 50 49 44 44 54 62 63 63 62 63 63 62 62 63 63 63 63 66 66 66 67 67 67 67 65 65 66 65 64 63 63 62 60 59 59 61 61 61
23 21 19 19 16 14 21 25 40 43 48 48 50 51 50 61 61 61 61 61 62 63 63 63 62 61 61 62 62 65 66 67 67 67 66 64 64 64 63 62 63 63 62 61 59 58 61 61 60
22 20 19 20 16 18 21 22 39 42 45 45 48 53 53 61 59 58 59 59 60 60 61 61 61 60 61 61 63 63 64 65 66 66 64 64 63 62 62 62 62 62 61 60 59 57 54 52 52
22 21 22 19 20 20 23 30 40 41 42 45 46 48 59 58 58 57 59 59 59 60 61 61 60 60 59 59 60 61 61 62 63 63 63 62 62 62 60 60 59 58 57 52 50 49 43 40 46
20 20 20 20 23 30 29 37 47 45 45 50 49 54 58 56 56 57 58 58 58 59 60 61 60 60 58 58 58 60 60 61 62 62 62 61 60 59 58 57 56 54 53 50 49 46 43 40 43
20 21 24 26 26 31 32 34 45 48 52 56 58 58 58 56 56 57 57 57 58 57 59 60 60 58 57 57 56 59 60 60 61 61 61 60 58 56 55 54 53 52 51 50 47 44 41 40 39
26 26 27 26 27 30 38 44 42 45 54 49 51 55 56 56 55 57 56 56 56 56 57 59 59 58 57 56 58 58 59 59 60 60 59 58 56 55 53 52 51 51 49 51 47 44 41 40 39
28 24 26 24 26 28 30 34 37 44 53 50 50 55 54 54 55 56 56 55 56 56 57 57 58 59 58 56 56 58 57 58 59 59 58 56 56 54 53 52 51 50 50 51 48 45 43 40 37
26 27 22 23 27 28 28 23 32 50 48 47 53 54 52 52 55 57 56 55 56 56 56 57 57 58 57 56 57 57 57 58 58 58 56 55 56 55 53 52 52 52 52 51 49 47 45 41 38
27 21 23 24 26 27 30 25 32 47 47 48 53 51 50 51 54 55 56 55 55 56 56 57 56 56 55 55 53 54 56 57 57 58 56 56 57 56 53 53 53 53 52 52 49 49 46 42 40
23 24 25 25 26 30 30 30 40 46 49 50 50 50 49 50 50 54 55 55 55 56 56 56 56 55 55 55 54 52 52 52 54 56 56 58 57 57 56 55 54 54 53 52 50 48 47 44 41
27 26 25 25 26 27 27 29 32 43 45 46 48 49 49 49 51 53 54 54 54 54 54 55 54 53 54 54 53 53 53 51 51 53 55 58 58 58 57 56 55 54 53 52 50 48 46 44 42
27 26 25 25 26 27 27 26 26 42 43 44 48 49 49 49 51 53 52 54 54 54 53 52 52 52 52 52 50 51 51 53 52 52 54 55 56 58 57 56 54 54 52 51 50 48 47 46 44
27 26 26 25 25 25 25 23 26 38 43 45 46 49 49 49 50 50 51 51 52 52 52 51 52 52 51 51 50 52 51 52 52 52 52 55 56 58 58 56 55 54 53 51 50 49 47 45 45
25 28 28 26 25 23 26 21 25 30 40 45 45 47 48 49 51 51 50 50 50 51 52 51 50 51 52 51 49 49 47 45 45 47 50 53 56 58 58 58 56 55 54 52 51 52 49 49 44
27 30 29 28 25 24 25 24 24 31 36 39 45 46 47 49 51 51 52 51 51 52 51 52 51 50 50 51 50 50 48 47 48 51 52 52 54 57 58 58 57 56 55 54 53 51 50 50 49
30 29 29 29 27 23 25 25 23 26 29 36 42 45 47 49 51 51 52 52 52 52 53 52 51 50 50 51 51 50 50 50 51 52 52 52 53 56 58 58 58 58 57 55 54 54 51 50 50
28 25 23 22 22 22 27 27 26 28 29 35 41 44 46 48 50 51 51 51 51 51 52 52 51 50 50 50 51 50 51 52 52 52 52 52 54 56 58 58 58 58 58 56 54 54 53 51 50
25 26 25 20 22 23 31 29 28 29 29 31 40 43 46 47 50 51 51 51 50 51 51 51 50 49 50 50 50 51 52 53 54 53 53 53 54 55 56 59 59 58 58 56 56 54 51 49 49
24 24 26 26 31 28 28 30 29 25 26 32 36 43 44 47 49 50 51 51 50 50 50 50 49 49 49 50 50 51 52 53 54 56 54 54 54 56 56 58 58 57 56 55 54 52 50 49 49
24 29 26 30 24 25 26 27 27 27 23 24 34 42 44 46 48 49 49 51 51 50 50 50 49 48 48 49 50 50 54 56 57 57 55 54 56 57 56 56 55 54 54 53 52 51 50 49 48
26 26 27 28 29 23 23 24 29 29 27 23 28 42 44 46 46 48 48 49 51 51 49 50 50 49 50 50 51 52 53 56 58 57 56 55 57 57 57 56 54 54 53 52 51 50 48 47 46
21 23 28 26 25 29 27 24 27 30 31 30 25 31 43 45 46 46 48 49 49 50 50 48 49 50 51 53 53 53 55 56 57 57 56 57 56 56 57 56 55 53 52 50 49 47 47 46 45

GFSSGP_sfc_dewp_084.txt.gz
Dewpoint
52 49 42 29 17 19 20 19 21 25 33 42 43 43 40 44 41 34 54 57 64 67 70 69 70 71 70 71 70 70 71 71 71 71 70 70 70 69 68 68 68 68 67 65 65 64 63 63 64
46 43 36 26 18 16 16 19 19 32 40 45 44 45 47 46 52 52 54 56 63 65 69 69 70 70 71 70 70 70 70 70 70 70 70 70 69 68 68 68 67 67 67 65 65 65 65 62 62
44 39 28 23 20 17 17 20 20 30 41 42 41 47 47 51 53 54 57 60 63 64 65 69 69 70 70 70 70 70 70 70 70 69 69 69 68 68 68 67 67 67 67 66 65 65 64 63 63
32 29 24 20 20 19 20 20 22 24 42 46 44 42 47 53 51 53 60 63 62 63 63 66 68 69 70 70 70 70 70 69 69 69 69 69 68 68 68 67 67 67 66 64 64 65 63 63 62
31 25 20 20 18 19 20 21 22 30 37 45 45 42 44 52 55 61 64 63 61 62 62 64 67 67 69 70 70 69 69 69 69 69 68 68 68 67 67 67 66 65 64 64 64 64 63 62 62
26 24 18 16 16 19 20 21 35 36 43 46 45 44 47 54 58 61 63 63 62 62 62 64 65 67 67 68 69 68 69 68 68 68 67 67 67 66 66 66 65 64 63 65 65 64 62 62 61
24 22 21 24 19 20 18 29 40 41 43 43 48 45 48 52 60 63 63 64 62 63 63 63 64 64 66 65 66 67 68 68 68 67 66 66 66 65 65 65 64 63 64 65 64 62 62 61 60
26 24 25 20 18 17 19 29 38 42 41 50 48 43 42 51 61 63 62 63 64 63 62 61 63 63 63 63 65 65 66 67 67 66 66 65 65 65 65 63 62 62 61 64 64 62 61 61 60
24 21 20 20 18 18 19 23 38 43 46 48 50 50 50 57 62 61 61 61 62 62 60 61 62 62 62 63 64 65 65 66 66 66 65 64 64 63 62 61 61 61 60 61 63 62 61 60 60
22 21 20 21 20 18 21 20 24 42 44 45 47 52 52 61 60 59 59 59 60 60 61 62 61 60 60 62 62 64 63 64 65 64 64 64 63 61 61 62 61 60 60 61 62 62 61 58 56
22 21 22 21 21 21 22 25 39 40 40 44 45 49 53 59 59 57 58 59 60 61 61 61 60 60 59 60 60 62 63 63 65 64 63 63 62 61 60 59 58 55 56 52 52 51 50 53 53
20 22 21 20 22 26 28 32 43 41 40 51 49 52 58 57 56 56 56 58 59 60 60 60 60 59 59 60 62 62 62 63 64 63 62 61 61 59 58 57 55 52 50 47 44 44 46 49 51
20 21 22 24 26 26 30 31 40 46 49 57 59 58 57 57 55 57 57 58 58 59 60 60 59 58 57 58 60 61 62 62 62 63 62 61 59 58 56 55 53 52 50 45 43 42 43 47 48
25 24 26 27 25 27 31 38 44 41 53 50 54 56 56 56 55 55 56 56 57 57 59 59 58 57 56 57 58 60 60 61 62 61 61 59 58 56 54 53 52 50 50 47 44 41 41 42 45
27 26 25 24 25 26 31 29 41 43 54 51 50 54 54 54 54 54 56 56 56 57 58 59 58 57 56 56 56 58 61 61 60 60 59 57 56 55 54 52 51 50 51 48 45 43 41 40 39
27 25 22 20 25 27 27 25 28 49 52 51 51 53 52 52 54 54 55 56 56 56 57 58 58 58 57 56 55 56 58 60 60 59 58 56 56 54 52 51 51 51 52 49 46 44 41 40 38
26 21 21 23 27 28 29 26 31 48 48 46 48 52 50 52 52 55 55 55 56 56 57 57 57 57 56 57 58 58 58 59 58 58 57 56 55 54 52 52 52 51 52 50 48 47 44 41 39
23 24 24 25 25 27 27 28 28 45 46 45 48 50 49 49 50 54 55 55 56 56 57 56 56 56 56 55 55 57 56 56 58 57 56 56 55 54 54 53 53 52 52 51 49 48 47 43 41
25 25 24 25 25 25 24 24 26 39 45 46 48 48 48 48 50 54 54 55 55 55 56 55 54 55 55 55 55 55 54 54 56 56 56 56 56 55 54 54 54 53 51 51 50 48 46 45 42
27 26 25 25 25 25 24 25 26 34 42 45 47 48 47 48 50 51 53 54 54 54 55 54 53 54 55 55 56 56 53 52 53 55 57 57 57 56 56 55 54 54 52 51 50 49 47 46 43
27 26 25 22 26 26 25 24 24 31 42 44 46 49 49 47 49 50 51 53 54 53 53 53 52 52 53 55 52 51 51 52 53 53 54 56 57 58 57 56 55 54 53 52 51 49 47 46 45
24 28 27 27 25 23 25 22 24 25 29 43 44 48 49 48 50 50 51 50 52 52 52 52 52 51 52 52 51 49 50 49 49 50 51 53 55 56 57 56 56 54 54 52 52 51 49 48 46
25 29 29 28 26 27 25 24 23 28 29 31 42 45 48 49 50 50 50 51 51 51 52 52 52 51 51 51 51 49 49 50 46 48 49 51 54 55 56 56 55 55 54 54 52 51 49 49 48
31 29 29 29 27 24 24 23 21 24 28 32 36 43 47 48 49 51 51 51 51 51 51 52 51 51 51 51 50 49 49 48 48 48 50 51 52 54 55 57 57 56 55 54 53 52 51 51 50
29 25 23 22 23 23 25 25 23 26 28 30 31 40 46 48 49 50 51 51 51 51 50 51 51 51 51 51 51 50 50 49 48 48 49 49 51 52 54 56 56 57 57 56 56 54 53 51 50
27 26 25 20 22 22 29 26 27 31 31 30 32 40 45 47 49 50 51 51 51 51 51 51 51 51 51 50 51 51 50 50 50 50 50 51 51 52 54 56 58 58 58 58 56 55 54 54 52
24 26 27 25 29 27 27 28 29 29 25 28 31 42 45 47 49 50 51 51 51 51 51 52 51 51 50 50 50 50 51 50 50 51 52 53 53 54 54 55 56 56 56 56 56 56 54 53 53
23 28 25 28 22 23 25 27 25 28 27 24 31 39 42 46 48 50 51 51 51 51 51 52 51 50 49 49 49 49 50 51 52 53 54 54 54 53 55 56 56 56 55 55 55 54 53 51 51
24 23 27 28 27 22 22 24 30 28 28 29 25 34 41 44 47 49 50 51 51 51 51 51 51 50 49 49 50 49 49 51 52 52 54 55 55 55 56 56 56 56 55 54 54 53 52 51 50
23 22 23 22 24 27 25 21 27 29 30 29 27 26 38 44 46 48 49 50 51 51 50 50 50 50 50 50 50 50 51 51 52 54 55 56 55 55 56 56 56 56 56 54 52 51 50 50 47

GFSSGP_sfc_dewp_087.txt.gz
Dewpoint
54 44 40 30 21 22 19 20 22 22 28 39 41 42 38 42 39 34 55 60 65 68 69 69 70 71 71 72 72 71 72 71 71 71 71 70 70 70 69 69 68 68 67 65 64 64 64 65 65
45 41 36 27 20 17 16 19 20 23 33 43 43 45 46 41 52 53 56 58 62 69 70 68 70 70 71 71 71 71 72 71 70 71 70 70 69 69 69 68 67 67 67 65 64 64 64 64 64
43 36 31 25 22 16 16 20 20 22 33 36 39 46 45 48 54 54 58 59 60 67 69 69 70 69 70 70 71 71 71 70 70 70 70 69 69 69 69 68 67 67 67 65 64 64 63 63 63
34 31 25 23 18 20 20 19 22 21 34 44 43 42 45 49 51 54 60 65 63 65 65 65 67 68 70 70 70 70 70 70 69 69 69 69 69 69 68 67 67 67 67 66 65 63 62 63 63
31 27 23 20 19 20 21 21 22 23 32 44 44 40 43 51 56 57 63 64 64 65 65 64 66 68 68 70 70 70 69 69 69 69 68 68 68 68 68 67 67 67 66 67 64 62 61 62 62
28 25 20 16 17 19 21 23 22 31 33 44 45 44 44 53 56 61 63 63 64 64 65 64 66 67 67 67 69 69 69 68 68 68 67 67 68 67 67 67 66 65 66 66 64 63 62 61 61
25 24 18 18 20 21 20 25 35 35 39 40 46 41 47 52 58 63 63 64 64 63 65 65 65 66 64 66 66 67 67 68 67 67 66 66 66 66 66 65 65 65 65 65 64 63 62 61 60
27 25 22 22 19 18 20 23 31 35 31 48 48 43 43 49 61 63 63 63 64 63 63 64 65 66 65 65 65 65 67 67 67 66 66 65 65 66 65 64 64 66 66 65 63 62 61 61 60
25 23 21 20 20 20 21 20 32 43 42 47 49 49 50 58 61 61 61 61 62 63 63 63 63 65 66 64 65 66 67 66 66 66 65 64 64 63 62 61 63 65 65 63 62 61 61 60 60
24 23 21 22 22 20 21 22 23 34 40 42 46 51 54 60 60 58 59 59 60 61 62 62 62 63 63 65 64 66 66 67 66 65 65 64 64 62 60 61 62 63 64 63 62 61 60 56 53
24 21 24 22 22 21 22 23 25 35 32 40 40 46 52 59 59 58 58 59 60 61 61 62 61 61 61 61 63 65 65 65 65 64 63 64 61 61 59 59 56 60 62 59 59 58 53 55 53
23 24 23 22 21 25 25 29 38 39 34 49 47 49 54 58 58 57 57 58 59 61 61 61 60 60 60 60 61 63 63 64 64 63 63 62 60 59 58 55 54 55 57 60 58 55 56 55 53
22 22 22 22 22 26 27 27 30 37 47 53 53 54 56 57 57 57 56 58 59 60 60 60 59 59 58 59 61 62 62 63 63 63 63 61 58 58 56 55 51 51 51 53 54 54 54 54 53
26 23 23 27 27 26 25 30 42 39 51 56 57 56 56 56 56 55 56 56 58 58 60 59 58 58 57 59 61 62 62 63 62 63 63 61 58 58 55 53 51 49 48 49 51 52 52 52 52
28 27 27 26 24 24 28 28 34 39 52 51 53 53 53 53 56 53 54 56 56 57 59 58 58 58 57 58 60 61 62 62 61 61 61 59 58 56 55 53 51 50 48 49 48 49 51 50 50
27 26 22 20 25 28 29 25 28 42 51 50 51 52 52 54 55 54 55 56 57 57 58 58 58 58 58 58 59 60 61 61 61 60 60 58 58 56 55 53 52 52 49 47 45 44 45 46 46
26 19 21 20 27 29 29 26 27 46 49 49 51 52 52 52 52 53 55 56 56 57 57 58 58 57 58 58 59 60 60 60 60 60 58 58 57 56 54 53 53 54 50 49 46 45 44 42 42
17 24 25 23 25 26 24 25 27 34 43 43 46 51 51 51 51 54 54 56 56 57 57 57 57 57 57 58 58 59 59 60 59 59 58 57 56 56 56 53 53 53 52 51 49 47 47 44 42
23 24 23 25 26 24 22 24 25 28 41 43 47 50 51 51 50 53 55 56 56 57 56 56 56 56 56 57 57 56 56 58 57 57 57 57 56 55 56 54 53 53 53 52 52 50 49 46 45
26 25 24 25 26 26 25 24 26 32 36 39 44 48 50 49 49 52 54 55 55 56 56 55 55 55 56 56 57 56 56 56 56 57 57 57 56 56 56 55 53 53 53 54 53 52 50 49 46
27 26 25 23 26 26 26 25 26 28 38 42 45 46 49 49 49 50 51 54 54 55 55 54 54 55 56 56 56 55 54 54 55 56 57 57 57 56 55 55 55 56 54 53 54 54 52 50 48
25 28 26 25 24 16 27 21 25 26 27 38 40 46 47 49 49 49 50 52 53 54 54 54 54 54 55 56 55 54 51 52 53 54 55 56 57 56 55 55 56 56 55 55 55 54 54 53 50
25 29 28 27 25 25 24 24 24 26 25 27 34 43 47 49 49 49 50 51 51 53 53 54 53 53 54 56 55 54 52 52 54 54 54 56 57 58 57 57 58 58 58 58 57 56 55 54 54
30 27 28 30 28 25 26 25 22 22 25 29 34 40 46 48 49 49 51 51 51 52 53 53 53 53 53 54 54 53 54 53 51 53 52 53 54 56 57 58 59 59 58 58 58 57 57 56 55
28 28 23 24 25 22 26 25 25 27 27 29 29 35 45 48 49 50 49 51 51 51 52 52 52 52 53 52 53 53 52 52 51 51 51 51 52 54 55 57 58 58 58 58 59 58 57 57 56
28 28 24 15 22 22 27 23 24 30 31 33 33 33 43 47 49 50 49 51 51 51 51 51 52 52 53 53 53 53 53 51 51 51 51 51 51 52 54 56 56 57 58 58 59 60 59 58 58
27 26 27 25 30 27 26 29 30 30 30 28 28 37 44 47 48 49 50 51 51 51 51 51 51 51 53 53 53 53 53 52 52 52 52 53 54 54 55 56 56 57 58 59 59 60 59 59 58
25 29 25 26 18 17 22 26 22 27 28 30 29 34 42 47 49 49 50 51 52 52 52 52 52 52 53 53 53 53 53 53 53 54 54 54 54 54 55 56 56 57 58 59 59 59 58 57 56
22 22 27 27 27 19 20 24 33 30 29 30 32 31 38 46 48 49 50 51 52 52 52 53 54 53 52 52 53 53 53 54 54 54 55 55 56 55 55 55 56 57 57 56 56 56 57 55 54
22 22 23 22 19 29 27 22 29 34 33 34 33 32 31 41 47 49 51 51 52 52 52 52 53 53 52 52 52 52 53 54 54 54 54 56 56 56 56 56 56 56 56 56 56 56 55 54 54

GFSSGP_sfc_dewp_090.txt.gz
Dewpoint
53 40 38 33 21 19 16 16 19 19 23 28 32 35 34 36 32 29 54 57 64 66 67 67 71 71 72 72 71 71 72 72 71 70 70 71 71 71 70 70 69 69 68 66 65 66 65 65 65
39 38 38 28 18 12 14 19 18 19 22 33 32 37 40 34 42 49 54 61 59 64 67 66 70 70 70 71 71 71 72 72 71 70 71 71 71 70 70 69 68 68 67 65 65 66 65 65 65
42 40 30 22 18 11 13 19 19 21 23 27 32 41 39 33 50 51 58 60 61 61 68 67 70 69 70 71 71 70 71 70 70 70 71 70 70 70 69 68 67 67 66 64 64 64 65 64 65
36 30 26 18 13 17 17 19 21 21 28 28 33 38 41 45 49 53 57 61 61 62 66 68 67 68 70 70 70 70 70 70 70 70 70 70 69 69 68 67 66 66 66 64 64 63 63 64 64
31 26 16 12 12 17 18 19 23 23 25 35 39 36 42 47 50 53 57 61 63 62 66 68 65 68 67 67 68 69 70 70 70 69 69 69 69 68 67 67 67 66 66 64 63 63 62 63 63
25 24 12 6 10 17 18 21 22 27 27 30 39 38 40 51 52 56 61 62 64 66 66 68 65 67 67 65 65 69 69 69 69 68 68 68 68 67 67 67 67 67 66 65 63 62 62 62 61
22 17 10 8 8 17 18 23 26 25 23 24 38 34 37 50 54 62 62 63 64 65 66 66 66 67 64 63 62 63 68 68 68 67 67 67 67 66 67 67 67 67 65 64 63 62 62 61 61
23 19 13 12 8 11 19 21 23 25 23 43 41 34 35 49 58 62 62 63 64 63 64 65 65 66 66 66 65 66 67 67 67 67 66 66 66 66 65 65 66 66 65 64 63 62 62 61 61
26 17 12 11 13 15 21 21 24 32 33 35 40 44 45 54 59 59 59 60 64 63 63 64 65 65 64 65 66 66 66 66 66 66 66 65 65 64 63 63 65 65 64 63 63 62 61 61 60
21 16 13 15 16 19 21 21 23 25 23 28 34 46 50 55 56 55 57 58 59 62 63 62 63 65 65 64 66 66 66 66 67 66 66 64 65 63 59 64 65 65 63 63 62 61 60 56 51
18 16 13 17 20 21 21 21 24 24 23 28 29 36 48 54 56 56 57 58 58 59 63 63 62 63 63 65 66 67 65 65 66 66 64 65 64 62 59 62 63 62 60 55 56 56 52 52 49
19 19 16 18 20 21 21 23 24 25 25 31 42 45 48 53 56 56 57 56 56 58 61 63 62 62 63 63 64 64 64 64 64 63 63 65 62 60 58 57 59 59 56 56 55 52 54 54 50
24 19 19 18 21 21 23 23 23 22 23 30 45 47 48 53 55 57 57 56 57 58 61 62 61 61 61 60 61 63 64 64 63 63 63 62 61 59 56 56 56 56 56 56 55 54 55 53 50
21 22 20 20 20 22 23 22 25 23 38 42 49 48 52 53 53 55 56 54 56 58 60 61 60 59 60 60 60 61 63 64 63 63 62 60 60 58 55 55 53 55 56 56 55 54 53 50 49
24 22 19 19 20 19 19 18 21 31 44 45 50 51 50 50 53 54 54 54 56 58 59 59 59 59 59 59 60 62 61 63 63 62 60 59 59 57 57 52 52 51 53 56 54 54 51 49 48
23 23 19 18 20 22 27 19 27 35 38 41 47 48 49 51 53 54 54 54 57 57 59 58 58 58 58 59 60 62 63 62 62 61 59 58 58 56 55 52 51 50 52 51 51 50 49 48 46
21 17 19 18 19 17 25 20 25 35 39 38 42 47 48 49 52 53 53 55 56 57 58 58 57 57 58 59 60 61 61 61 61 61 58 57 58 56 54 53 54 53 50 48 48 48 49 46 44
19 19 19 18 18 24 21 23 24 25 34 36 39 44 48 48 50 52 53 55 56 57 58 58 58 58 58 60 59 60 59 60 60 60 57 57 56 57 55 54 55 53 51 50 48 49 47 45 44
19 18 16 16 21 23 19 18 22 24 26 34 38 42 46 48 50 51 53 55 56 57 57 57 58 57 57 58 57 57 57 58 59 59 57 56 55 56 56 54 55 54 52 53 53 50 50 47 46
21 19 18 18 20 24 19 18 22 24 26 30 34 41 44 48 49 51 52 55 55 56 56 57 57 56 56 57 58 57 58 58 58 58 58 56 56 55 56 55 53 54 53 54 54 52 50 49 47
23 22 21 19 20 22 20 19 19 22 28 32 37 38 42 47 48 50 51 53 54 56 56 56 56 56 56 57 57 57 57 57 56 57 58 57 55 55 55 55 54 55 54 54 55 54 54 51 51
19 20 22 23 21 16 23 13 18 23 23 24 28 40 41 46 48 48 51 52 54 56 56 56 56 56 56 57 55 56 54 54 54 54 55 57 57 56 54 54 55 56 55 55 55 54 55 54 52
23 21 23 24 23 21 19 14 17 23 23 22 27 32 41 46 48 48 50 51 52 54 56 56 56 56 56 56 55 54 53 54 54 55 54 55 57 57 55 55 56 56 55 55 56 56 56 55 54
28 27 26 26 25 21 21 15 15 19 21 23 28 33 40 45 48 47 49 50 51 54 54 56 55 55 56 56 56 54 53 53 53 53 55 55 53 53 56 53 55 56 55 56 57 58 58 57 56
26 23 21 22 23 20 17 18 19 23 23 26 25 29 40 45 48 48 48 49 50 52 53 54 54 54 55 56 56 55 55 53 54 53 53 54 53 54 54 55 56 56 58 59 60 59 59 59 59
25 23 23 18 19 18 20 20 19 25 25 28 32 33 37 44 47 48 48 50 50 52 53 53 52 52 54 55 56 56 56 52 52 54 53 53 53 54 56 57 57 58 59 59 59 58 57 58 58
22 24 25 24 23 24 21 24 26 27 26 27 28 29 35 42 46 47 49 50 51 51 53 54 53 53 53 54 55 55 55 54 53 53 55 54 54 53 56 56 56 56 56 56 56 56 57 58 59
18 21 23 24 19 17 17 22 21 23 24 24 25 29 36 43 45 45 48 50 51 51 51 54 53 52 53 54 55 54 55 54 54 54 53 54 54 53 53 54 55 54 54 55 56 57 58 59 60
21 22 24 23 23 19 18 18 26 26 26 25 26 32 35 43 45 46 47 50 51 52 51 53 53 52 52 53 54 55 54 54 54 54 55 54 54 53 54 54 55 55 54 55 56 57 58 58 57
26 22 22 23 21 25 24 20 26 30 30 31 29 32 31 39 44 46 47 49 51 52 52 52 53 53 53 53 54 54 55 55 55 54 55 56 55 56 54 54 53 53 54 56 57 57 56 56 55

GFSSGP_sfc_dewp_093.txt.gz
Dewpoint
52 40 33 30 22 17 13 15 16 14 17 21 26 27 27 29 27 28 53 57 60 61 65 67 71 72 73 72 71 72 72 72 71 71 71 71 71 71 70 70 70 69 69 66 65 66 66 66 66
37 30 33 29 17 13 11 17 16 16 19 25 29 28 28 28 30 37 48 60 59 59 65 66 71 71 72 70 71 71 72 72 71 71 71 71 71 71 70 70 69 68 68 66 66 66 66 65 66
40 32 31 23 17 12 11 17 16 17 21 21 24 30 29 26 34 41 57 57 57 59 62 67 70 70 70 70 70 70 71 70 70 70 71 71 71 70 70 69 68 67 68 66 66 66 65 65 65
33 29 25 12 12 14 15 15 17 18 19 23 22 26 31 37 42 47 55 57 58 57 60 68 67 69 70 69 71 71 70 68 70 70 71 71 71 70 69 67 67 67 67 66 65 65 65 65 64
30 25 17 15 13 10 16 15 19 19 19 23 28 30 32 39 45 50 53 58 61 61 60 67 65 66 68 68 67 67 68 68 69 70 70 70 70 69 68 67 66 66 66 66 64 64 64 64 64
23 19 15 12 10 9 16 17 20 20 21 22 28 29 31 46 49 51 59 60 63 64 65 66 67 66 68 67 62 61 65 68 69 69 69 69 68 68 67 66 66 66 65 65 64 64 63 63 63
23 19 16 13 11 8 14 20 22 22 20 19 26 26 30 41 50 59 59 61 64 64 65 67 68 67 67 65 63 63 64 64 67 68 68 68 67 66 66 67 66 65 64 64 64 63 63 62 61
23 19 15 13 11 10 11 17 18 19 20 23 26 27 30 47 55 59 59 61 63 63 64 66 66 68 68 67 62 63 64 63 66 67 67 66 66 66 67 66 66 65 64 64 63 63 62 62 61
23 16 13 13 12 12 13 17 19 21 22 22 23 33 38 44 54 55 56 59 62 63 63 64 64 66 67 66 64 64 63 62 65 66 66 65 64 65 65 65 65 64 64 63 63 62 62 61 60
20 16 14 14 14 13 14 16 18 18 19 19 24 31 40 46 51 52 54 56 58 62 62 62 63 64 65 63 65 64 62 62 62 68 66 64 66 65 62 65 64 64 63 63 62 61 61 56 51
19 17 16 14 14 15 15 16 16 17 19 24 25 30 35 46 50 54 54 55 55 59 62 62 62 63 64 65 65 64 63 64 65 68 66 65 65 64 66 64 62 60 60 55 56 55 50 49 48
16 16 16 16 12 14 17 17 17 19 20 23 24 36 41 44 50 53 54 55 54 55 61 63 62 62 63 64 65 65 64 62 66 66 65 65 64 64 63 62 60 58 54 54 53 51 53 51 50
19 18 20 17 17 16 16 15 16 16 19 22 29 40 41 44 50 56 55 54 56 55 58 62 62 62 62 62 64 65 64 64 64 64 64 65 63 62 61 61 59 56 55 54 53 53 52 51 50
21 20 21 21 19 18 17 18 16 16 19 28 38 42 43 48 50 55 55 54 54 55 59 61 62 62 61 62 62 62 65 64 63 63 64 63 63 60 59 60 58 55 55 54 53 53 53 50 49
22 21 21 21 20 18 17 15 14 15 24 32 37 44 44 46 49 51 54 53 53 57 59 61 61 60 60 60 61 62 63 63 63 62 63 63 61 60 61 59 57 55 57 59 55 55 52 48 47
23 22 19 20 20 18 18 14 17 24 29 29 39 43 44 45 48 52 54 52 54 57 59 59 59 59 59 60 61 61 62 64 63 62 62 62 61 60 59 56 55 56 57 55 54 52 48 48 47
22 18 20 20 19 17 19 18 19 30 31 30 34 38 42 44 49 52 53 53 54 57 59 59 58 59 59 60 62 62 62 62 62 61 61 59 59 59 57 54 54 56 55 55 54 53 53 50 46
20 19 20 20 19 19 17 16 19 19 24 27 29 33 40 44 46 52 52 54 55 57 59 58 58 59 59 60 60 60 61 61 61 60 59 57 57 57 56 53 53 52 50 52 53 54 54 48 47
22 20 20 20 18 17 19 18 15 17 20 24 26 30 37 43 46 51 52 54 55 57 58 58 57 58 59 59 58 57 57 59 59 58 57 56 55 55 57 54 52 53 52 53 55 55 54 51 48
22 22 22 21 19 20 21 19 16 16 17 23 24 30 35 42 47 50 53 54 55 56 57 57 57 57 58 58 58 58 57 58 58 58 58 57 56 55 55 55 55 55 55 55 55 55 53 51 50
24 24 23 20 21 21 21 20 18 17 17 20 25 28 30 39 46 49 51 53 54 55 57 57 57 57 57 58 58 58 58 58 57 57 57 56 56 55 55 56 56 56 56 56 57 56 55 52 52
24 24 21 20 20 19 21 15 16 17 19 23 26 29 31 36 45 47 50 52 55 56 56 56 57 56 57 58 57 56 54 54 55 56 57 57 56 55 55 56 56 57 57 57 57 56 56 57 52
23 23 21 22 21 22 19 17 18 17 16 19 22 25 30 36 44 46 49 50 53 55 55 57 56 56 57 56 57 56 54 54 55 56 57 57 53 53 52 54 57 57 57 58 58 58 59 57 56
23 24 24 24 24 21 21 20 17 15 19 21 24 28 31 37 44 46 48 48 51 55 55 56 56 56 57 57 57 56 55 54 54 54 54 56 54 52 53 55 57 58 57 57 58 59 59 58 57
24 25 23 27 27 22 21 20 21 20 19 20 23 25 34 38 44 46 47 47 50 54 54 54 55 55 56 57 57 56 55 56 54 54 53 54 54 55 55 56 57 57 58 58 58 59 59 60 59
22 24 22 20 24 25 22 17 17 20 21 24 24 26 34 39 44 46 47 48 49 53 54 55 53 53 56 56 56 56 55 54 54 54 53 52 53 52 53 55 54 56 58 58 59 60 61 61 61
19 23 24 22 25 25 23 20 24 23 25 24 23 28 32 38 43 45 46 49 48 51 53 54 53 53 55 56 57 56 56 54 53 55 56 54 53 51 53 54 56 56 57 58 59 60 60 59 60
14 15 20 21 21 21 20 19 18 22 24 24 23 25 28 34 41 44 45 50 50 50 52 55 53 52 54 55 57 56 56 57 56 55 55 56 55 55 55 56 57 58 58 59 59 58 58 58 59
15 15 17 19 20 19 21 19 23 25 25 26 26 28 30 35 40 43 45 48 50 51 51 53 53 51 53 54 55 56 56 56 56 56 56 56 57 55 55 57 57 57 57 58 58 58 58 57 58
27 18 17 21 19 21 22 21 27 27 27 32 30 29 31 36 41 42 43 47 49 51 50 51 52 52 52 53 54 55 56 57 57 56 56 57 57 57 56 56 55 55 56 57 56 56 56 56 56